[[{"header":{"parameterUnit":"m.s-1","parameterCategory":1,"la1":30.6,"la2":29.2853,"lo1":-89.7004,"lo2":-87.6739,"dy":0.0162,"dx":0.0183,"nx":112,"ny":82,"refTime":"2023-06-13T18:00:00:Z","depth":0,"parameterNumber":2,"parameterNumberName":"U-component_of_WINDS"},"data":[0.0,0.0,0.0,0.0,0.0,0.0,0.0,0.0,0.0,0.0,0.0,0.0,0.0,0.0,0.0,0.0,0.0,0.0,0.0,0.0,0.0,0.0,0.0,0.0,0.0,0.0,0.0,0.0,0.0,0.0,0.0,0.0,0.0,0.0,0.0,0.0,0.0,0.0,0.0,0.0,0.0,0.0,0.0,0.0,0.0,0.0,0.0,0.0,0.0,0.0,0.0,0.0,0.0,0.0,0.0,0.0,0.0,0.0,0.0,0.0,0.0,0.0,0.0,0.0,0.0,0.0,0.0,0.0,0.0,0.0,0.0,0.0,0.0,0.0,0.0,0.0,0.0,0.0,0.0,0.0,0.0,0.0,0.0,0.0,0.0,0.0,0.0,0.0,0.0,0.0,-5.8796,-6.1101,-6.4874,-6.7662,-6.8752,-6.9042,-6.8283,-6.6291,0.0,0.0,0.0,0.0,0.0,0.0,0.0,0.0,0.0,0.0,0.0,0.0,0.0,0.0,0.0,0.0,0.0,0.0,0.0,0.0,0.0,0.0,0.0,0.0,0.0,0.0,0.0,0.0,0.0,0.0,0.0,0.0,0.0,0.0,0.0,0.0,0.0,0.0,0.0,0.0,0.0,0.0,0.0,0.0,0.0,0.0,0.0,0.0,0.0,0.0,0.0,0.0,0.0,0.0,0.0,0.0,0.0,0.0,0.0,0.0,0.0,0.0,0.0,0.0,0.0,0.0,0.0,0.0,0.0,0.0,0.0,0.0,0.0,0.0,0.0,0.0,0.0,0.0,0.0,0.0,0.0,0.0,0.0,0.0,0.0,0.0,0.0,0.0,0.0,0.0,0.0,0.0,0.0,0.0,0.0,0.0,0.0,0.0,0.0,0.0,0.0,0.0,0.0,0.0,-5.924,-6.3331,-6.63,-6.8335,-6.9146,-6.9438,-6.868,-6.6467,0.0,0.0,0.0,0.0,0.0,0.0,0.0,0.0,0.0,0.0,0.0,0.0,0.0,0.0,0.0,0.0,0.0,0.0,0.0,0.0,0.0,0.0,0.0,0.0,0.0,0.0,0.0,0.0,0.0,0.0,0.0,0.0,0.0,0.0,0.0,0.0,0.0,0.0,0.0,0.0,0.0,0.0,0.0,0.0,0.0,0.0,0.0,0.0,0.0,0.0,0.0,0.0,0.0,0.0,0.0,0.0,0.0,0.0,0.0,0.0,0.0,0.0,0.0,0.0,0.0,0.0,0.0,0.0,0.0,0.0,0.0,0.0,0.0,0.0,0.0,0.0,0.0,0.0,0.0,0.0,0.0,0.0,0.0,0.0,0.0,0.0,0.0,0.0,0.0,0.0,0.0,0.0,0.0,0.0,0.0,0.0,0.0,0.0,0.0,0.0,0.0,0.0,0.0,-5.8836,-6.1095,-6.4063,-6.651,-6.8263,-6.8958,-6.9471,-6.8981,-6.7038,-6.5425,0.0,0.0,0.0,0.0,0.0,0.0,0.0,0.0,0.0,0.0,0.0,0.0,0.0,0.0,0.0,0.0,0.0,0.0,0.0,0.0,0.0,0.0,0.0,0.0,0.0,0.0,0.0,0.0,0.0,0.0,0.0,0.0,0.0,0.0,0.0,0.0,0.0,0.0,0.0,0.0,0.0,0.0,0.0,0.0,0.0,0.0,0.0,0.0,0.0,0.0,0.0,0.0,0.0,0.0,0.0,0.0,0.0,0.0,0.0,0.0,0.0,0.0,0.0,0.0,0.0,0.0,0.0,0.0,0.0,0.0,0.0,0.0,0.0,0.0,0.0,0.0,0.0,0.0,0.0,0.0,0.0,0.0,0.0,0.0,0.0,0.0,0.0,0.0,0.0,0.0,0.0,0.0,0.0,0.0,0.0,0.0,0.0,0.0,0.0,0.0,0.0,0.0,-6.0633,-6.2853,-6.4473,-6.661,-6.8233,-6.8893,-6.9334,-6.8931,-6.738,-6.592,0.0,0.0,0.0,0.0,0.0,0.0,0.0,0.0,0.0,0.0,0.0,0.0,0.0,0.0,0.0,0.0,0.0,0.0,0.0,0.0,0.0,0.0,0.0,0.0,0.0,0.0,0.0,0.0,0.0,0.0,0.0,0.0,0.0,0.0,0.0,0.0,0.0,0.0,0.0,0.0,0.0,0.0,0.0,0.0,0.0,0.0,0.0,0.0,0.0,0.0,0.0,0.0,0.0,0.0,0.0,0.0,0.0,0.0,0.0,0.0,0.0,0.0,0.0,0.0,0.0,0.0,0.0,0.0,0.0,0.0,0.0,0.0,0.0,0.0,0.0,0.0,0.0,0.0,0.0,0.0,0.0,0.0,0.0,0.0,0.0,0.0,0.0,0.0,0.0,0.0,0.0,0.0,0.0,0.0,0.0,0.0,0.0,0.0,0.0,0.0,0.0,0.0,-6.1297,-6.3553,-6.5233,-6.7183,-6.8608,-6.929,-6.9093,-6.8436,-6.7117,-6.6042,0.0,0.0,0.0,0.0,0.0,0.0,0.0,0.0,0.0,0.0,0.0,0.0,0.0,0.0,0.0,0.0,0.0,0.0,0.0,0.0,0.0,0.0,0.0,0.0,0.0,0.0,0.0,0.0,0.0,0.0,0.0,0.0,0.0,0.0,0.0,0.0,0.0,0.0,0.0,0.0,0.0,0.0,0.0,0.0,0.0,0.0,0.0,0.0,0.0,0.0,0.0,0.0,0.0,0.0,0.0,0.0,0.0,0.0,0.0,0.0,0.0,0.0,0.0,0.0,0.0,0.0,0.0,0.0,0.0,0.0,0.0,0.0,0.0,0.0,0.0,0.0,0.0,0.0,0.0,0.0,0.0,0.0,0.0,0.0,0.0,0.0,0.0,0.0,0.0,0.0,0.0,0.0,0.0,0.0,0.0,0.0,0.0,0.0,0.0,0.0,0.0,0.0,-6.1463,-6.3403,-6.5274,-6.7031,-6.8208,-6.8505,-6.8772,-6.8354,-6.7065,0.0,0.0,0.0,0.0,0.0,0.0,0.0,0.0,0.0,0.0,0.0,0.0,0.0,0.0,0.0,0.0,0.0,0.0,0.0,0.0,0.0,0.0,0.0,0.0,0.0,0.0,0.0,0.0,0.0,0.0,0.0,0.0,0.0,0.0,0.0,0.0,0.0,0.0,0.0,0.0,0.0,0.0,0.0,0.0,0.0,0.0,0.0,0.0,0.0,0.0,0.0,0.0,0.0,0.0,0.0,0.0,0.0,0.0,0.0,0.0,0.0,0.0,0.0,0.0,0.0,0.0,0.0,0.0,0.0,0.0,0.0,0.0,0.0,0.0,0.0,0.0,0.0,0.0,0.0,0.0,0.0,0.0,0.0,0.0,0.0,0.0,0.0,0.0,0.0,0.0,0.0,0.0,0.0,0.0,0.0,0.0,0.0,0.0,0.0,0.0,0.0,0.0,-5.9981,-6.1845,-6.3604,-6.5347,-6.6991,-6.7928,-6.7999,-6.8298,-6.8059,-6.706,0.0,0.0,0.0,0.0,0.0,0.0,0.0,0.0,0.0,0.0,0.0,0.0,0.0,0.0,0.0,0.0,0.0,0.0,0.0,0.0,0.0,0.0,0.0,0.0,0.0,0.0,0.0,0.0,0.0,0.0,0.0,0.0,0.0,0.0,0.0,0.0,0.0,0.0,0.0,0.0,0.0,0.0,0.0,0.0,0.0,0.0,0.0,0.0,0.0,0.0,0.0,0.0,0.0,0.0,0.0,0.0,0.0,0.0,0.0,0.0,0.0,0.0,0.0,0.0,0.0,0.0,0.0,0.0,0.0,0.0,0.0,0.0,0.0,0.0,0.0,0.0,0.0,0.0,0.0,0.0,0.0,0.0,0.0,0.0,0.0,0.0,0.0,0.0,0.0,0.0,0.0,0.0,0.0,0.0,0.0,0.0,0.0,0.0,0.0,0.0,0.0,0.0,-6.0387,-6.2607,-6.4393,-6.5378,-6.7002,-6.797,-6.797,-6.7669,-6.7365,0.0,0.0,0.0,0.0,0.0,0.0,0.0,0.0,0.0,0.0,0.0,0.0,0.0,0.0,0.0,0.0,0.0,0.0,0.0,0.0,0.0,0.0,0.0,0.0,0.0,0.0,0.0,0.0,0.0,0.0,0.0,0.0,0.0,0.0,0.0,0.0,0.0,0.0,0.0,0.0,0.0,0.0,0.0,0.0,0.0,0.0,0.0,0.0,0.0,0.0,0.0,0.0,0.0,0.0,0.0,0.0,0.0,0.0,0.0,0.0,0.0,0.0,0.0,0.0,0.0,0.0,0.0,0.0,0.0,0.0,0.0,0.0,0.0,0.0,0.0,0.0,0.0,0.0,0.0,0.0,0.0,0.0,0.0,0.0,0.0,0.0,0.0,0.0,0.0,0.0,0.0,0.0,0.0,0.0,0.0,0.0,0.0,0.0,0.0,0.0,0.0,0.0,0.0,-6.0727,-6.2586,-6.4189,-6.5352,-6.6793,-6.7548,-6.7304,-6.7243,-6.6728,-6.5638,0.0,0.0,0.0,0.0,0.0,0.0,0.0,0.0,0.0,0.0,0.0,0.0,0.0,0.0,0.0,0.0,0.0,0.0,0.0,0.0,0.0,0.0,0.0,0.0,0.0,0.0,0.0,0.0,0.0,0.0,0.0,0.0,0.0,0.0,0.0,0.0,0.0,0.0,0.0,0.0,0.0,0.0,0.0,0.0,0.0,0.0,0.0,0.0,0.0,0.0,0.0,0.0,0.0,0.0,0.0,0.0,0.0,0.0,0.0,0.0,0.0,0.0,0.0,0.0,0.0,0.0,0.0,0.0,0.0,0.0,0.0,0.0,0.0,0.0,0.0,0.0,0.0,0.0,0.0,0.0,0.0,0.0,0.0,0.0,0.0,0.0,0.0,0.0,0.0,0.0,0.0,0.0,0.0,0.0,0.0,0.0,0.0,0.0,0.0,0.0,0.0,0.0,-6.0705,-6.2529,-6.4066,-6.5162,-6.6274,-6.6814,-6.6629,-6.6629,-6.6023,-6.4663,0.0,0.0,0.0,0.0,0.0,0.0,0.0,0.0,0.0,0.0,0.0,0.0,0.0,0.0,0.0,0.0,0.0,0.0,0.0,0.0,0.0,0.0,0.0,0.0,0.0,0.0,0.0,0.0,0.0,0.0,0.0,0.0,0.0,0.0,0.0,0.0,0.0,0.0,0.0,0.0,0.0,0.0,0.0,0.0,0.0,0.0,0.0,0.0,0.0,0.0,0.0,0.0,0.0,0.0,0.0,0.0,0.0,0.0,0.0,0.0,0.0,0.0,0.0,0.0,0.0,0.0,0.0,0.0,0.0,0.0,0.0,0.0,0.0,0.0,0.0,0.0,0.0,0.0,0.0,0.0,0.0,0.0,0.0,0.0,0.0,0.0,0.0,0.0,0.0,0.0,0.0,0.0,0.0,0.0,0.0,0.0,0.0,0.0,0.0,0.0,0.0,0.0,-6.0648,-6.2462,-6.396,-6.5032,-6.5742,-6.6096,-6.6096,-6.6033,-6.5459,-6.4101,0.0,0.0,0.0,0.0,0.0,0.0,0.0,0.0,0.0,0.0,0.0,0.0,0.0,0.0,0.0,0.0,0.0,0.0,0.0,0.0,0.0,0.0,0.0,0.0,0.0,0.0,0.0,0.0,0.0,0.0,0.0,0.0,0.0,0.0,0.0,0.0,0.0,0.0,0.0,0.0,0.0,0.0,0.0,0.0,0.0,0.0,0.0,0.0,0.0,0.0,0.0,0.0,0.0,0.0,0.0,0.0,0.0,0.0,0.0,0.0,-5.5653,0.0,0.0,0.0,0.0,0.0,0.0,0.0,0.0,0.0,0.0,0.0,0.0,0.0,0.0,0.0,0.0,0.0,0.0,0.0,0.0,0.0,0.0,0.0,0.0,0.0,0.0,0.0,0.0,0.0,0.0,0.0,0.0,0.0,0.0,0.0,0.0,0.0,0.0,0.0,0.0,0.0,-6.1575,-6.2866,-6.425,-6.589,-6.6466,-6.6715,-6.6715,-6.6491,-6.5675,-6.413,-6.2962,0.0,0.0,0.0,0.0,0.0,0.0,0.0,0.0,0.0,0.0,0.0,0.0,0.0,0.0,0.0,0.0,0.0,0.0,0.0,0.0,0.0,0.0,0.0,0.0,0.0,0.0,0.0,0.0,0.0,0.0,0.0,0.0,0.0,0.0,0.0,0.0,0.0,0.0,0.0,0.0,0.0,0.0,0.0,0.0,0.0,0.0,0.0,0.0,0.0,0.0,0.0,0.0,0.0,0.0,0.0,0.0,0.0,0.0,0.0,0.0,-5.7297,0.0,0.0,0.0,0.0,0.0,0.0,0.0,0.0,0.0,0.0,0.0,0.0,0.0,0.0,0.0,0.0,0.0,0.0,0.0,0.0,0.0,0.0,0.0,0.0,0.0,0.0,0.0,0.0,0.0,0.0,0.0,0.0,0.0,0.0,0.0,0.0,0.0,0.0,0.0,0.0,-6.189,-6.2858,-6.4056,-6.5979,-6.6312,-6.644,-6.644,-6.609,-6.5216,-6.3625,-6.2743,0.0,0.0,0.0,0.0,0.0,0.0,0.0,0.0,0.0,0.0,0.0,0.0,0.0,0.0,0.0,0.0,0.0,0.0,0.0,0.0,0.0,0.0,0.0,0.0,0.0,0.0,0.0,0.0,0.0,0.0,0.0,0.0,0.0,0.0,0.0,0.0,0.0,0.0,0.0,0.0,0.0,0.0,0.0,0.0,0.0,0.0,0.0,0.0,0.0,0.0,0.0,0.0,0.0,-5.8955,-5.9745,-6.0769,-6.0932,-6.1869,-6.3239,-6.12,-6.033,-6.0236,-5.9605,0.0,0.0,0.0,0.0,0.0,0.0,0.0,0.0,0.0,0.0,0.0,0.0,0.0,0.0,0.0,0.0,0.0,0.0,0.0,0.0,0.0,0.0,0.0,0.0,-6.0585,-6.0231,0.0,0.0,0.0,0.0,0.0,0.0,0.0,0.0,0.0,0.0,0.0,0.0,-6.2093,-6.2848,-6.398,-6.5896,-6.6099,-6.6099,-6.6099,-6.5774,-6.4871,-6.3286,-6.2729,-6.1896,0.0,0.0,0.0,0.0,0.0,0.0,0.0,0.0,0.0,0.0,0.0,0.0,0.0,0.0,0.0,0.0,0.0,0.0,0.0,0.0,0.0,0.0,0.0,0.0,0.0,0.0,0.0,0.0,0.0,0.0,0.0,0.0,-4.7133,-4.9599,0.0,0.0,0.0,0.0,0.0,0.0,0.0,0.0,0.0,0.0,0.0,0.0,0.0,-5.5652,-5.6873,-5.7969,-5.9239,-6.0705,-6.1375,-6.2449,-6.3732,-6.3732,-6.4368,-6.5309,-6.5005,0.0,-6.3283,-6.1732,0.0,0.0,0.0,0.0,0.0,0.0,0.0,0.0,0.0,0.0,0.0,0.0,0.0,0.0,0.0,0.0,0.0,0.0,0.0,0.0,0.0,0.0,-6.085,-6.0995,-6.1463,-6.1713,0.0,-6.0071,-5.9025,-5.8482,-5.831,0.0,0.0,0.0,0.0,0.0,0.0,0.0,-6.279,-6.3516,-6.4648,-6.6564,-6.6767,-6.6767,-6.6767,-6.6438,-6.5561,-6.3973,-6.2985,-6.2292,-6.1762,-6.0722,0.0,0.0,0.0,0.0,0.0,0.0,0.0,0.0,0.0,0.0,0.0,0.0,0.0,0.0,0.0,0.0,0.0,0.0,0.0,0.0,0.0,0.0,0.0,0.0,0.0,0.0,0.0,0.0,0.0,-4.7429,-4.9791,-5.088,-5.1623,-5.2085,0.0,0.0,0.0,0.0,0.0,0.0,0.0,0.0,0.0,-5.518,-5.5826,-5.6899,-5.8441,-5.9675,-6.0988,-6.2354,-6.3466,-6.4539,-6.5573,-6.6104,-6.6796,-6.759,-6.7462,-6.7122,-6.647,-6.4312,-6.3057,-6.2448,0.0,0.0,0.0,0.0,-6.0188,-5.9975,-6.0042,-5.9906,0.0,-6.0291,0.0,0.0,0.0,0.0,0.0,0.0,0.0,0.0,0.0,0.0,0.0,-6.2503,-6.2822,-6.2784,-6.2437,-6.1782,-6.0926,0.0,-5.9074,-5.8819,-5.8819,0.0,0.0,0.0,0.0,-6.1475,-6.3116,-6.3549,-6.4364,-6.6186,-6.636,-6.636,-6.636,-6.6005,-6.5302,-6.4087,-6.3354,-6.2679,-6.2043,-6.1481,-6.067,0.0,0.0,0.0,0.0,0.0,0.0,0.0,0.0,0.0,0.0,0.0,0.0,0.0,0.0,0.0,0.0,0.0,0.0,0.0,0.0,0.0,0.0,0.0,0.0,0.0,0.0,0.0,0.0,-4.9973,-5.1847,-5.2622,-5.3793,-5.4552,0.0,0.0,0.0,0.0,0.0,0.0,-5.4082,-5.4422,-5.507,-5.6059,-5.6927,-5.826,-6.0101,-6.1284,-6.2529,-6.3966,-6.5015,-6.6009,-6.6959,-6.7671,-6.8432,-6.9174,-6.8953,-6.8786,-6.8518,-6.6387,-6.5,-6.4275,-6.3704,-6.3392,-6.3153,-6.2406,-6.1982,-6.166,-6.1558,-6.1294,-6.1031,-6.1587,0.0,-6.1997,-6.1559,0.0,0.0,0.0,0.0,-6.0578,-6.2052,-6.2057,-6.2103,-6.354,-6.3838,-6.3699,-6.335,-6.3222,-6.2723,0.0,-6.0244,-5.9933,-5.9808,0.0,0.0,0.0,0.0,-6.1936,-6.3325,-6.3648,-6.4323,-6.5744,-6.5925,-6.5925,-6.5925,-6.56,-6.5051,-6.4188,-6.3769,-6.3215,-6.2399,-6.223,-6.1416,-6.0002,0.0,0.0,0.0,0.0,0.0,0.0,0.0,0.0,0.0,0.0,0.0,0.0,0.0,0.0,0.0,0.0,0.0,0.0,0.0,0.0,0.0,0.0,0.0,0.0,0.0,0.0,0.0,0.0,0.0,-5.5548,-5.5691,0.0,0.0,0.0,0.0,-5.4327,-5.4513,-5.4544,-5.431,-5.4293,-5.5394,-5.7683,-5.8286,-5.9717,-6.2053,-6.2563,-6.3771,-6.568,-6.5757,-6.6612,-6.8205,-6.8238,-6.8674,-6.9389,-6.9389,-6.9115,-6.8599,-6.7321,-6.6645,-6.6308,-6.6034,-6.5526,-6.4883,-6.4993,-6.4702,-6.4208,-6.3359,-6.3043,-6.3061,-6.3231,-6.3116,-6.2895,-6.3171,-6.2573,0.0,0.0,-6.1267,-6.0835,-6.1879,-6.2081,-6.2322,-6.3313,-6.3993,-6.439,-6.4037,-6.3973,-6.3536,0.0,-6.1965,-6.1839,-6.1522,0.0,-6.143,-6.1487,-6.1997,-6.268,-6.344,-6.4051,-6.4814,-6.5802,-6.5925,-6.5925,-6.5925,-6.56,-6.5145,-6.454,-6.416,-6.3806,-6.3385,-6.2818,-6.2002,-6.1059,-6.0058,0.0,0.0,0.0,0.0,0.0,0.0,0.0,0.0,0.0,0.0,0.0,0.0,0.0,0.0,0.0,0.0,0.0,0.0,0.0,0.0,0.0,0.0,0.0,0.0,0.0,0.0,0.0,0.0,-5.6368,-5.6882,0.0,-5.7074,-5.6347,-5.5713,-5.541,-5.5222,-5.5228,-5.5608,-5.623,-5.7143,-5.8468,-5.9645,-6.1087,-6.2912,-6.4,-6.5172,-6.6512,-6.7625,-6.8416,-6.9042,-6.9967,-7.0569,-7.0804,-7.0942,-7.0903,-7.0677,-6.9973,-6.8511,-6.6659,-6.6424,-6.6092,-6.5708,-6.5842,-6.5491,-6.4926,-6.5326,-6.5204,-6.4974,-6.5259,-6.5102,-6.4843,-6.4988,-6.4361,-6.3652,-6.3873,-6.323,-6.2764,-6.3709,-6.3967,-6.4165,-6.4948,-6.5266,-6.5441,-6.5314,-6.5314,-6.5168,-6.4702,-6.3573,-6.2508,-6.201,-6.1924,-6.2067,-6.2374,-6.2658,-6.3136,-6.4016,-6.4339,-6.4698,-6.5222,-6.5315,-6.5315,-6.5315,-6.5187,-6.4971,-6.4512,-6.4354,-6.416,-6.3834,-6.2948,-6.2131,-6.1472,-6.0441,-5.9507,0.0,0.0,0.0,0.0,0.0,0.0,0.0,0.0,0.0,0.0,0.0,0.0,0.0,0.0,0.0,0.0,0.0,0.0,0.0,0.0,0.0,0.0,0.0,0.0,0.0,0.0,-5.6228,-5.7492,-5.8335,-5.8687,-5.8224,-5.7326,-5.6622,-5.633,-5.5743,-5.5761,-5.6579,-5.7353,-5.8404,-5.9679,-6.1008,-6.2492,-6.4113,-6.521,-6.6476,-6.7874,-6.899,-6.9816,-7.0303,-7.127,-7.1689,-7.1594,-7.1753,-7.1705,-7.1507,-7.1189,-6.9875,-6.7998,-6.7949,-6.7653,-6.7236,-6.7125,-6.6638,-6.6072,-6.6596,-6.6591,-6.6414,-6.6555,-6.6328,-6.6094,-6.6094,-6.5406,-6.4749,-6.5052,-6.4576,-6.4099,-6.4985,-6.5067,-6.5182,-6.586,-6.6007,-6.6007,-6.6007,-6.6007,-6.6007,-6.6007,-6.4935,-6.3804,-6.321,-6.306,-6.3141,-6.3315,-6.3372,-6.3608,-6.4361,-6.4512,-6.4612,-6.4996,-6.4996,-6.4996,-6.4996,-6.4996,-6.4845,-6.4387,-6.4294,-6.408,-6.3529,-6.2872,-6.2231,-6.145,-6.0448,-5.9577,-5.8709,0.0,0.0,0.0,0.0,0.0,0.0,0.0,0.0,0.0,0.0,0.0,0.0,0.0,0.0,0.0,0.0,0.0,0.0,0.0,0.0,0.0,0.0,0.0,-5.239,-5.4825,-5.7216,-5.9145,-6.0114,-6.0519,-6.0201,-5.8899,-5.7765,-5.697,-5.6093,-5.6033,-5.695,-5.758,-5.8985,-6.1357,-6.2424,-6.3882,-6.5783,-6.6311,-6.7678,-6.9798,-6.9831,-7.0626,-7.2018,-7.2018,-7.187,-7.1622,-7.1655,-7.1355,-7.088,-7.0829,-7.0675,-7.0468,-7.0694,-7.0267,-6.9425,-6.8889,-6.832,-6.7741,-6.7152,-6.7151,-6.738,-6.7056,-6.6731,-6.6522,-6.6522,-6.5832,-6.5143,-6.544,-6.5143,-6.4843,-6.5407,-6.531,-6.5273,-6.586,-6.6007,-6.6007,-6.6007,-6.6007,-6.6007,-6.6007,-6.6007,-6.5819,-6.5187,-6.506,-6.4804,-6.416,-6.403,0.0,-6.4483,-6.4512,-6.4612,-6.4996,-6.4996,-6.4996,-6.4996,-6.4967,-6.4706,-6.4067,-6.4009,-6.3622,-6.264,-6.2611,-6.2078,-6.1108,-6.0199,-5.9418,-5.8795,0.0,0.0,0.0,0.0,0.0,0.0,0.0,0.0,0.0,0.0,0.0,0.0,0.0,0.0,0.0,0.0,0.0,0.0,0.0,0.0,0.0,0.0,-5.3147,-5.4675,-5.6356,-5.8087,-5.9837,-5.9885,-5.9718,-5.9425,-5.8085,-5.707,-5.6698,-5.6445,-5.6617,-5.7251,-5.8919,-6.0425,-6.163,-6.3658,-6.5031,-6.5783,-6.7876,-6.9202,-6.9798,-7.0891,-7.1522,-7.1722,-7.2249,-7.233,-7.2044,-7.2396,-7.245,-7.2294,-7.2136,-7.1872,-7.1563,-7.0551,-6.9869,-6.9457,-6.9405,-6.9189,-6.8887,-6.851,-6.8107,-6.7786,-6.7726,-6.7306,-6.6851,-6.6851,-6.6641,-6.646,-6.6582,-6.646,-6.6368,-6.6547,-6.6516,-6.6514,-6.6693,-6.6753,-6.6753,-6.6753,-6.6753,-6.6753,-6.6753,-6.6753,-6.6506,-6.5819,-6.5538,-6.5285,-6.5094,-6.4839,0.0,-6.4868,-6.4868,-6.4932,-6.4996,-6.4996,-6.5124,-6.5348,-6.494,-6.4652,-6.4696,-6.4256,-6.381,-6.3356,-6.2645,-6.1697,-6.0451,-6.0218,-5.9635,0.0,0.0,0.0,0.0,0.0,0.0,0.0,0.0,0.0,0.0,0.0,0.0,0.0,0.0,0.0,0.0,0.0,0.0,0.0,0.0,0.0,0.0,-5.2541,-5.4592,-5.6201,-5.7509,-5.8791,-5.9933,-5.9961,-5.9745,-5.9461,-5.8318,-5.7544,-5.7471,-5.7302,-5.7547,-5.8358,-6.0017,-6.1526,-6.2811,-6.4622,-6.6115,-6.7316,-6.898,-7.0262,-7.1189,-7.2051,-7.2465,-7.2545,-7.2973,-7.2934,0.0,-7.2789,-7.2827,-7.2721,-7.2455,-7.224,0.0,0.0,0.0,0.0,0.0,-6.9418,-6.9185,-6.9287,-6.9024,-6.8606,-6.8759,-6.8485,-6.7933,-6.7539,-6.7418,-6.7358,-6.7059,-6.6999,-6.6999,-6.6999,-6.6999,-6.6999,-6.6999,-6.6999,-6.6999,-6.6999,-6.6999,-6.6999,-6.6999,-6.6999,0.0,-6.6506,-6.6132,-6.579,-6.5538,-6.5348,-6.5158,-6.506,-6.4996,-6.4996,-6.4996,-6.5124,-6.5168,-6.5095,-6.4993,0.0,0.0,0.0,-6.3502,-6.2783,-6.2193,0.0,0.0,0.0,-6.0144,-5.9619,0.0,0.0,0.0,-5.6456,-5.6201,0.0,0.0,0.0,0.0,0.0,0.0,0.0,0.0,0.0,0.0,0.0,0.0,0.0,0.0,0.0,0.0,-5.3959,-5.5908,-5.714,-5.8385,-5.9263,-5.9625,-6.0031,-6.0167,-5.9842,-5.9116,-5.8595,-5.8648,-5.8386,-5.8726,-5.9849,0.0,0.0,0.0,0.0,-6.7203,-6.9382,-6.9886,-7.1189,-7.3193,-7.326,-7.3488,-7.3872,-7.3872,-7.3561,-7.3001,-7.2904,-7.2712,-7.2498,-7.2165,-7.2057,-7.2067,-7.2003,-7.1456,-7.0595,-6.9828,-6.9305,-6.9105,-6.9722,0.0,0.0,-6.9822,-6.9633,-6.9201,-6.838,-6.8076,-6.7956,-6.7388,-6.7148,-6.7089,-6.7089,-6.7059,-6.6999,-6.6999,-6.6999,-6.6999,-6.6999,-6.6999,-6.6999,-6.6999,-6.6999,-6.6999,-6.6999,-6.6753,-6.6319,-6.5727,-6.5601,-6.5412,-6.5187,-6.5124,-6.5124,-6.5124,0.0,0.0,-6.4692,-6.5131,-6.4932,-6.3802,-6.3564,-6.2972,-6.1791,-6.1673,-6.1494,-6.1253,-6.0923,-6.0742,-6.0681,-5.995,-5.99,-6.0552,-5.8546,-5.803,0.0,0.0,0.0,0.0,0.0,0.0,0.0,0.0,0.0,0.0,0.0,0.0,0.0,0.0,0.0,-5.3484,-5.5402,-5.6778,-5.7393,-5.8594,-5.9433,-5.9531,-5.9599,-5.9583,-5.9315,-5.8851,-5.87,-5.8932,-5.9451,-6.0078,-6.072,-6.2825,-6.4272,-6.4851,-6.7358,-6.8906,-6.9382,-7.1407,-7.2846,-7.3584,0.0,0.0,-7.4442,-7.4442,-7.4115,-7.3531,-7.2953,-7.2696,-7.2609,-7.1977,-7.1743,-7.171,-7.1171,-7.0904,-7.0776,-7.0369,-7.0016,-6.9753,-7.0188,-7.0129,-6.9853,-6.9603,-6.9351,-6.9037,-6.8854,-6.8794,0.0,-6.8645,-6.8196,-6.7777,-6.7777,-6.7388,-6.6999,-6.6999,-6.6999,-6.6999,-6.6999,-6.6999,-6.6999,-6.6999,-6.6999,-6.6999,-6.6999,-6.6753,-6.6444,-6.6319,-6.607,-6.5882,-6.5819,-6.5819,-6.5819,-6.5819,-6.5882,-6.5867,-6.5707,-6.5352,-6.5111,-6.5052,-6.4075,-6.3254,-6.273,-6.1998,-6.1613,-6.1494,-6.1224,-6.0952,-6.0681,-6.1023,-6.0941,-6.058,-5.9696,-5.9736,0.0,0.0,0.0,0.0,0.0,0.0,0.0,0.0,0.0,0.0,0.0,-4.8486,0.0,0.0,-5.3022,-5.4409,-5.5679,-5.6705,-5.7243,-5.8015,-5.8764,-5.9201,-5.9315,-5.9315,-5.9315,-5.9281,-5.9492,-6.0064,-6.073,-6.149,-6.2432,-6.4303,-6.5789,-6.6826,-6.8894,-7.0567,-7.1755,-7.3028,-7.4019,-7.4818,-7.518,-7.5099,-7.4591,-7.4591,-7.4259,-7.3667,-7.3315,-7.302,-7.2668,-7.1951,-7.1755,-7.1955,-7.1321,-7.1066,-7.1083,-7.0756,-7.0517,-7.043,-7.0802,-7.0677,-7.0427,-7.0383,-7.0187,-6.9901,-6.9572,-6.9482,-6.9423,-6.9093,-6.8495,-6.7956,-6.7956,-6.7478,-6.6999,-6.6999,-6.6999,-6.6999,-6.6999,-6.6999,-6.6999,-6.6999,-6.6999,-6.6999,-6.6999,-6.6876,-6.6691,-6.6506,-6.6382,-6.6195,-6.6007,-6.6007,-6.6007,-6.6007,-6.6132,-6.6058,-6.5532,-6.5017,-6.4755,-6.4901,-6.4201,-6.3508,-6.3019,-6.238,-6.191,-6.1613,-6.1434,-6.1224,-6.0952,-6.1559,-6.1652,-6.1314,-6.1371,-6.1395,0.0,0.0,0.0,0.0,0.0,0.0,0.0,-4.6211,-4.6992,-4.8968,-4.9824,-5.0623,-5.2183,-5.3351,-5.4243,-5.4861,-5.5651,-5.6422,-5.696,-5.7547,-5.8178,-5.8985,-5.9153,-5.9261,-5.9422,-5.9872,-6.0534,-6.1412,-6.2104,-6.3083,-6.4456,-6.5901,-6.7476,-6.9239,-7.0519,-7.225,-7.437,-7.4484,-7.5058,-7.603,-7.5923,-7.5506,-7.4813,-7.4757,-7.4422,-7.3912,-7.3785,-7.3242,-7.2421,-7.1983,-7.196,-7.2054,-7.1736,-7.1621,-7.1653,-7.1288,-7.1105,-7.1137,-7.1444,-7.1315,-7.1092,-7.1255,-7.1113,-7.0799,-7.032,-7.0171,-7.0021,-6.9363,-6.8704,-6.8136,-6.8016,-6.7478,-6.6999,-6.6999,-6.6999,-6.6999,-6.6999,-6.6999,-6.6999,-6.6999,-6.6999,-6.6999,-6.6999,-6.6999,-6.6937,-6.6629,-6.6629,-6.6506,-6.6257,-6.6195,-6.6195,-6.6195,-6.6444,-6.6276,-6.5383,-6.4846,-6.4596,-6.4509,-6.4136,-6.3736,-6.3134,-6.2701,-6.2234,-6.1732,-6.1613,-6.1404,-6.1193,-6.1803,-6.1986,-6.1816,-6.2536,-6.2608,-3.8194,-3.9841,-4.1562,-4.3223,-4.4436,-4.5727,0.0,-4.8827,-4.9951,-5.1763,-5.2235,-5.2735,-5.4291,-5.454,-5.4658,-5.512,-5.596,-5.6644,-5.6727,-5.7827,-5.8714,-5.9045,-5.9315,-5.9369,-5.9153,-6.0294,-6.1474,-6.2342,-6.3399,-6.4799,-6.6742,-6.803,-6.9469,-7.121,-7.2928,-7.4237,-7.5132,-7.5535,-7.5964,-7.6517,-7.5972,-7.5684,-7.5637,-7.5438,-7.5088,-7.4731,-7.4161,-7.2975,-7.1489,-7.2028,-7.1933,-7.1523,-7.2083,-7.252,-7.2737,-7.2152,-7.1844,-7.1875,-7.1895,-7.1886,-7.1759,-7.1148,-7.0889,-7.0889,-7.0829,-7.0799,-7.0679,-7.0051,-6.9393,-6.8734,-6.8136,-6.7478,-6.6999,-6.6999,-6.6999,-6.6999,-6.6999,-6.6999,-6.6999,-6.6999,-6.6999,-6.6999,-6.6999,-6.6999,-6.6999,-6.6937,-6.6937,-6.6937,-6.6876,-6.6876,-6.6876,-6.6876,-6.6937,-6.6761,-6.6372,-6.566,-6.5155,-6.487,-6.4266,-6.3762,-6.3451,-6.2643,-6.2116,-6.2057,-6.1523,-6.1253,-6.1193,-6.1803,-6.1816,-6.1222,-6.1879,-6.2409,-4.0153,-4.1793,-4.3315,-4.463,-4.5959,-4.7452,-4.9298,-5.0537,-5.1784,-5.3223,-5.413,-5.49,-5.5541,-5.576,-5.5863,0.0,-5.6137,-5.6343,-5.6888,-5.7635,-5.8327,-5.9015,-5.9796,-6.0167,-5.9902,-6.1154,-6.2371,-6.3293,-6.4988,-6.6532,-6.7996,-7.0042,-7.1704,-7.2859,-7.4533,-7.5709,-7.6261,-7.6452,-7.6604,-7.6632,-7.6409,-7.6006,-7.5545,-7.546,-7.5225,-7.4866,-7.3994,-7.3187,-7.2477,-7.2404,-7.2231,-7.1992,-7.2582,-7.2706,-7.2703,-7.2583,-7.2428,-7.2273,-7.2076,-7.185,-7.1564,-7.1048,-7.0889,-7.0889,-7.0889,-7.0649,-7.032,-7.0051,-6.9213,-6.8345,-6.8046,-6.7478,-6.6999,-6.6999,-6.6999,-6.6999,-6.6999,-6.6999,-6.6999,-6.6999,-6.6999,-6.706,-6.7243,-6.7304,-6.7365,-6.7548,-6.7243,-6.6999,-6.6999,-6.6999,-6.6999,-6.6999,-6.6822,-6.6673,-6.6522,-6.5999,-6.5444,-6.4934,-6.4519,-6.4015,-6.3538,-6.2759,-6.2292,-6.2116,-6.1702,-6.1344,-6.1193,-6.1803,-6.1787,-6.1136,-6.1794,-6.2011,-4.2263,-4.378,-4.5228,-4.6299,-4.7746,-4.9363,-5.1131,-5.2437,-5.3541,-5.4749,-5.5628,-5.6166,-5.6064,-5.6244,-5.6413,-5.6255,-5.6201,-5.6476,-5.7217,-5.7803,-5.853,-5.9469,-6.0582,-6.1299,-6.1351,-6.2351,-6.3546,-6.4885,-6.6626,-6.8338,-7.0023,-7.1966,-7.3569,-7.4775,-7.5936,-7.6776,-7.7322,-7.7052,-7.6844,-7.6662,-7.6467,-7.6009,-7.5401,-7.5283,-7.5106,-7.4747,-7.4005,-7.3453,-7.3117,-7.2823,-7.2549,-7.2335,-7.2706,-7.2734,-7.2515,-7.2457,-7.2302,-7.2052,-7.1704,-7.1265,-7.0829,-7.0509,-7.038,-7.038,-7.038,-7.0081,-6.9662,-6.9482,-6.8734,-6.7926,-6.7747,-6.7358,-6.6999,-6.6999,-6.6999,-6.6999,-6.6999,-6.6999,-6.6999,-6.6999,-6.706,-6.7243,-6.7487,-6.7669,-6.7759,-6.7846,-6.7487,-6.7246,-6.7274,-6.7182,-6.7121,-6.7121,-6.6823,-6.6643,-6.6643,-6.619,-6.5704,-6.5221,-6.4865,-6.4328,-6.3552,-6.2999,-6.247,-6.1969,-6.1613,-6.1404,-6.1193,-6.1629,-6.1527,-6.1003,-6.1399,-6.1251,-4.4284,-4.5797,-4.7384,-4.8503,-4.9968,-5.1642,-5.3796,-5.4746,-5.5552,-5.6751,-5.6555,-5.6115,-5.5775,-5.5723,-5.5545,-5.5049,-5.6182,-5.7276,-5.7654,-5.8674,-5.9789,-6.0638,-6.1784,-6.2825,0.0,-6.3793,-6.4966,-6.7572,-6.8351,-7.0089,-7.3467,-7.3716,-7.4841,-7.7199,-7.7119,-7.7322,-7.8046,-7.7134,-7.6718,-7.6662,-7.5835,-7.5401,-7.5401,-7.5075,-7.4719,-7.4419,-7.4388,-7.3651,-7.2486,-7.3168,-7.2891,-7.2029,-7.2395,-7.2515,-7.2391,-7.1406,-7.1038,-7.0975,-7.0628,-7.0142,-6.9506,-6.919,-6.9064,-6.9064,-6.9064,-6.9034,-6.8884,-6.8226,-6.8016,-6.7837,-6.7178,-6.6999,-6.6999,-6.6999,-6.6999,-6.6999,-6.6999,-6.6999,-6.6999,-6.6999,-6.7243,-6.7487,-6.7487,-6.7999,-6.8144,-6.7502,-6.7614,-6.7859,-6.7939,-6.7669,-6.7487,-6.7487,-6.7152,-6.6969,-6.6969,-6.637,-6.5981,-6.5951,-6.5353,-6.4576,-6.3654,-6.3238,-6.2616,-6.1613,-6.1344,-6.1193,-6.1193,-6.1222,-6.1041,-6.071,-6.0406,-6.0067,-4.7059,-4.8119,-4.9351,-5.0743,-5.1788,-5.2937,-5.4619,-5.5837,-5.6852,-5.7647,-5.7444,-5.7189,-5.7054,-5.6681,-5.6442,-5.6471,-5.7122,-5.7845,-5.8554,-5.9455,-6.0447,-6.1587,-6.2915,0.0,0.0,0.0,0.0,-6.8319,-7.0695,-7.2557,-7.3749,-7.5322,-7.6498,-7.7099,-7.754,-7.7544,-7.7167,-7.6831,-7.641,-7.5835,-7.531,-7.4956,-7.4719,-7.4599,-7.4479,-7.4359,-7.4147,-7.378,-7.3411,-7.3446,-7.3169,-7.2675,-7.2579,-7.2357,-7.2073,-7.1513,-7.0625,-6.9682,-6.9808,-6.9532,-6.9163,-6.9067,-6.9004,-6.9004,-6.9004,-6.8675,-6.8256,-6.8046,-6.7657,-6.7268,-6.7059,-6.6999,-6.6999,-6.6999,-6.6999,-6.6999,-6.6999,-6.7182,-6.7365,-6.7365,-6.7608,-6.797,-6.8358,-6.8403,-6.8312,-6.8196,-6.7595,-6.7327,-6.777,-6.7598,-6.7513,-6.7759,-6.7517,-6.7243,-6.6999,-6.6789,-6.646,-6.6041,-6.5802,-6.5114,-6.389,-6.3357,-6.2705,-6.1939,-6.1464,-6.1193,-6.1193,-6.1193,-6.1013,-6.0681,-6.056,-6.0377,-4.9165,-5.0195,-5.1282,-5.23,-5.3468,-5.4686,-5.5766,-5.6976,-5.7962,-5.8363,-5.7868,-5.7298,-5.722,-5.679,-5.6519,-5.6765,-5.7555,-5.8445,-5.9231,-6.0372,-6.1567,-6.2805,-6.4593,-6.6465,0.0,0.0,0.0,-7.0483,-7.2525,-7.4145,-7.4884,-7.6393,-7.7231,-7.7226,-7.7577,-7.7422,-7.6718,-7.6492,-7.6009,-7.5225,-7.4897,-7.4599,-7.4419,-7.4419,-7.4359,-7.4239,-7.4118,-7.3997,-7.3753,-7.3539,-7.3293,-7.2952,-7.2302,-7.208,-7.1853,-7.102,-6.9946,-6.9004,-6.9226,-6.8863,-6.8286,-6.8286,-6.8286,-6.8286,-6.816,-6.7799,-6.7441,-6.7317,-6.7019,-6.6691,-6.6814,-6.6814,-6.6876,-6.7121,-6.7182,-6.7243,-6.7365,-6.7548,-6.7578,-6.7336,-6.7665,-6.8019,-6.8154,-6.8112,-6.8193,-6.8518,-6.766,-6.7243,-6.7838,-6.775,-6.765,-6.7901,-6.7698,-6.7426,-6.7182,-6.706,-6.6819,-6.637,-6.6131,-6.5443,-6.4248,-6.3506,-6.2705,-6.1939,-6.1433,-6.1193,-6.1193,-6.1193,-6.1073,-6.0863,-6.0511,-6.033,-5.064,-5.2081,-5.3189,-5.3299,-5.5064,-5.6954,-5.7286,-5.8031,-5.8719,-5.8961,-5.7755,-5.6598,-5.6332,0.0,-5.585,-5.5962,-5.7537,-5.8991,-5.9902,-6.1525,-6.3123,0.0,-6.6773,-6.8665,-6.9498,0.0,0.0,-7.3848,0.0,-7.4837,-7.6893,-7.7005,-7.7226,-7.7577,-7.7311,-7.7032,-7.6662,-7.6034,-7.5454,-7.4897,-7.4539,-7.4359,-7.4359,-7.4359,-7.4178,-7.3905,-7.4239,-7.4028,-7.3509,-7.3509,-7.3293,-7.2922,-7.1843,-7.1684,-7.1792,-7.0145,-6.9286,-6.9064,-6.9004,-6.8106,-6.6999,-6.6999,-6.6999,-6.6937,-6.6629,-6.6506,-6.6382,-6.607,-6.6007,-6.607,-6.6444,-6.6506,-6.6691,-6.7365,-6.7548,-6.7638,-6.7909,-6.7969,-6.7816,-6.7057,-6.7494,-6.7685,-6.6976,-6.7277,-6.7842,-6.8392,-6.7868,-6.7587,-6.8147,-6.8039,-6.79,-6.7904,-6.7664,-6.7517,-6.7487,-6.7182,-6.6969,-6.6939,-6.634,-6.5592,-6.4605,-6.3653,-6.2645,-6.1673,-6.1344,-6.1193,-6.1193,-6.1164,-6.1135,-6.1135,-6.0141,-5.999,-5.2936,-5.3827,-5.4749,-5.5904,-5.6682,-5.7345,-5.8174,-5.8326,-5.8297,-5.8065,-5.7,-5.6065,-5.604,-5.5742,-5.5834,-5.6795,-5.7942,0.0,-6.1072,-6.2404,0.0,-6.6649,-6.8225,-6.9846,-7.1688,-7.258,0.0,0.0,-7.545,-7.5839,-7.6959,-7.727,-7.7391,-7.7311,-7.7032,-7.6548,-7.6034,-7.5396,-7.4956,-7.4539,-7.4419,-7.4178,-7.3723,-7.3723,-7.3753,-7.3905,-7.3784,-7.3784,-7.3814,-7.3601,-7.3293,-7.2952,-7.2394,-7.2141,-7.1883,-7.1171,-7.0367,-6.9662,-6.9183,-6.8106,-6.6999,-6.6999,-6.6814,-6.6629,-6.6506,-6.6319,-6.6132,-6.6007,-6.6007,-6.607,-6.6444,-6.6691,-6.6999,-6.7426,-6.7819,-6.8026,-6.7629,-6.7917,-6.7993,-6.7315,-6.7703,-6.8044,-6.7706,-6.8022,-6.8264,-6.8285,-6.7926,-6.7863,-6.8373,-6.8017,-6.7887,-6.8437,-6.7853,-6.7423,-6.7487,-6.7182,-6.6789,-6.6281,-6.6101,-6.5413,-6.4188,-6.3713,-6.3032,-6.1998,-6.1673,-6.1404,-6.1193,-6.07,-6.0438,-6.0438,-5.9741,-5.9508,-5.413,-5.5031,-5.6016,-5.705,-5.7626,-5.8031,-5.8356,-5.8208,-5.7971,-5.7937,-5.6819,-5.5967,-5.623,-5.6071,-5.6133,-5.7114,0.0,0.0,-6.1739,-6.3692,-6.581,-6.7971,-6.9796,-7.1375,-7.2729,-7.3276,-7.4286,0.0,-7.5958,-7.6313,-7.7205,-7.7358,-7.7223,-7.6807,-7.6637,-7.6149,-7.5396,-7.4956,-7.4539,-7.4178,-7.4057,-7.3845,-7.3509,-7.3509,-7.3601,-7.3692,0.0,-7.3692,-7.3692,-7.3539,-7.3293,-7.2952,-7.2241,-7.2019,-7.1883,-7.104,-7.0145,-6.9291,-6.8713,-6.7668,-6.6568,-6.6753,-6.6568,-6.6257,-6.6132,-6.5945,-6.5698,-6.5216,-6.5191,-6.5382,-6.5581,-6.5888,-6.6312,-6.7,-6.7472,-6.7672,-6.7592,-6.7843,-6.794,-6.7336,-6.7324,-6.736,-6.7536,-6.7715,-6.7848,-6.7861,-6.7797,-6.7856,-6.7964,-6.7758,-6.7697,-6.8013,-6.765,-6.7356,-6.7245,-6.6793,-6.64,-6.6041,-6.5443,-6.4784,-6.4036,-6.3474,-6.2883,-6.2322,-6.185,-6.1437,-6.0966,-6.044,-6.0061,-5.98,-5.9161,-5.9016,-5.4943,-5.6021,-5.6954,-5.7453,-5.8169,-5.8664,-5.8335,-5.7912,-5.7724,-5.7959,-5.6862,-5.6,-5.6643,-5.6569,-5.6654,-5.729,0.0,-6.0687,-6.2155,-6.5019,-6.7523,-6.8811,-7.1158,-7.2876,-7.3276,-7.3889,-7.4779,-7.5918,-7.5911,-7.6309,-7.7434,-7.7255,-7.6807,-7.6092,-7.6092,-7.5687,-7.4778,-7.4479,-7.4178,-7.3844,-7.3601,-7.3509,-7.3447,-7.3447,-7.3447,-7.3509,0.0,0.0,-7.3509,-7.3447,-7.3231,-7.2859,-7.1904,-7.1682,-7.1725,-7.0363,-6.9317,-6.8491,-6.7929,-6.6946,-6.5978,-6.6201,-6.6047,-6.5735,-6.5367,-6.5212,-6.4998,-6.4193,-6.4143,-6.4399,-6.4543,-6.4815,-6.5439,-6.6514,-6.6915,-6.7111,-6.761,-6.7714,-6.7519,-6.7166,-6.6654,-6.6406,-6.6901,-6.7005,-6.7109,-6.7368,-6.7593,-6.7644,-6.7471,-6.7493,-6.748,-6.7251,-6.7203,-6.7136,-6.6786,-6.6282,-6.5892,-6.5742,-6.4635,-6.3947,-6.3887,-6.3057,-6.2615,-6.2615,-6.2057,-6.1439,-6.0765,-6.0355,-5.9888,-5.9219,-5.8551,-5.8551,-5.6417,-5.705,-5.7483,-5.853,-5.8901,-5.8936,-5.8664,-5.7971,-5.7311,-5.7071,-5.6213,-5.5674,-5.6343,-5.6624,-5.6991,-5.7904,-5.9414,-6.1085,-6.2836,-6.5366,-6.7856,-7.016,-7.1781,-7.3171,-7.4375,-7.4606,0.0,0.0,-7.6016,-7.6043,-7.6798,-7.6605,-7.6034,-7.5193,-7.5134,-7.4806,-7.4087,-7.4026,-7.3875,-7.3539,-7.3509,-7.3355,-7.3107,-7.3107,-7.3231,-7.3509,-7.3231,0.0,-7.3509,-7.3169,-7.2921,-7.2578,-7.2393,-7.1825,-7.1023,-7.0235,-6.9456,-6.8637,-6.7575,-6.6437,-6.5576,-6.5359,-6.5058,-6.466,-6.4132,-6.371,-6.3524,-6.3622,-6.3717,-6.3933,-6.4695,-6.5349,-6.5936,-6.6629,-6.7367,-6.7825,-6.7371,-6.7054,-6.6774,-6.6701,-6.6628,-6.667,-6.6953,-6.7005,-6.7109,-6.7368,-6.7439,-6.7439,-6.742,-6.7413,-6.7387,-6.7243,-6.6783,-6.6401,-6.6146,-6.5796,-6.526,-6.4395,-6.4126,-6.3767,-6.3258,-6.3081,-6.2905,-6.2615,-6.2498,-6.1997,-6.1027,-6.0497,-5.9737,-5.8779,-5.8192,-5.779,-5.6908,-5.7892,-5.8703,-5.9439,-5.9608,-5.9498,-5.9059,-5.8099,-5.7261,-5.7088,-5.6485,-5.6113,-5.6752,-5.7091,-5.7596,-5.8331,-5.9907,-6.171,-6.3729,-6.6385,-6.886,-7.0896,-7.2214,-7.3295,-7.3952,-7.4379,-7.4858,-7.5506,-7.5654,-7.6006,-7.6629,-7.6329,-7.566,-7.4659,-7.4825,-7.4554,-7.3723,-7.3692,-7.3539,-7.3231,-7.3231,-7.3169,-7.2983,-7.2983,-7.3107,-7.3231,-7.3045,0.0,-7.3231,-7.2859,-7.2671,-7.2452,-7.1883,-7.116,-7.0286,-6.9471,-6.8549,-6.7519,-6.6358,-6.5407,-6.458,-6.3775,-6.3626,-6.3735,-6.3415,-6.3356,-6.3331,-6.3132,-6.344,-6.3921,-6.43,-6.4904,-6.5438,-6.5792,-6.6385,-6.6752,-6.6459,-6.648,-6.6617,-6.6617,-6.6617,-6.667,-6.6744,-6.6796,-6.6796,-6.6796,-6.6901,-6.6901,-6.6554,-6.6659,-6.6733,-6.6623,-6.6402,-6.6052,-6.5447,-6.516,-6.4718,-6.4036,-6.3707,-6.3378,-6.3079,-6.3079,-6.3021,-6.2847,-6.2673,-6.1994,-6.0871,-6.0404,-5.9612,-5.8444,-5.8121,-5.8124,-5.7488,-5.8707,-5.9815,-6.0211,-6.0296,-6.01,-5.9365,-5.8313,-5.7471,-5.7328,-5.6839,-5.6607,-5.7243,-5.7669,-5.8059,-5.8664,-6.0396,-6.2354,-6.4115,-6.7026,-6.9532,-7.0906,-7.2326,-7.3227,-7.3358,-7.3992,0.0,-7.4642,-7.5185,0.0,-7.6289,-7.5819,-7.5105,-7.421,-7.4498,-7.4283,-7.3386,-7.3386,-7.3231,-7.2921,-7.2983,-7.2983,-7.2921,-7.2983,-7.2983,-7.2983,-7.2983,0.0,0.0,-7.2425,-7.2176,-7.1861,-7.0852,-7.0042,-6.9308,-6.8347,-6.7347,-6.6289,-6.5182,-6.4421,-6.3694,-6.247,-6.2441,-6.2848,-6.2764,-6.2981,-6.3076,-6.279,-6.3298,-6.394,-6.4084,-6.4549,-6.5087,-6.5417,-6.5712,-6.59,-6.59,-6.6311,-6.667,-6.6617,-6.6617,-6.6565,-6.6512,-6.6512,-6.6406,-6.6139,-6.6246,-6.6161,-6.5646,-6.5723,-6.583,-6.5723,-6.584,-6.5626,-6.4779,-6.4465,-6.4176,-6.3797,-6.3348,-6.3079,-6.3079,-6.3079,-6.3079,-6.3079,-6.2847,-6.2136,-6.0889,-6.0748,-5.9957,-5.8748,-5.8748,-5.8958,-5.8974,-5.9555,-5.9904,-6.0809,-6.1014,-6.0697,-5.9484,-5.8722,-5.8055,-5.7416,-5.6839,-5.6662,-5.7608,-5.8003,-5.839,-5.8991,-6.0916,-6.2557,-6.3344,-6.6506,-6.9104,-7.0051,0.0,0.0,-7.3404,-7.415,-7.4642,-7.479,-7.4918,0.0,-7.5075,-7.4451,-7.3938,-7.3632,-7.3632,-7.3448,-7.3045,-7.3045,-7.2859,-7.2546,-7.2859,-7.2859,-7.2546,-7.2859,-7.2983,-7.2983,-7.2983,0.0,0.0,-7.1873,-7.1036,-7.0153,-6.9426,-6.8585,-6.7536,-6.6914,-6.6557,-6.6201,-6.4595,-6.3877,-6.3483,-6.2448,-6.2122,-6.2125,-6.1844,-6.1789,-6.1938,-6.2703,-6.3224,-6.374,-6.4524,-6.5156,-6.583,-6.6649,-6.6858,-6.6858,-6.6858,-6.6921,-6.6901,-6.667,-6.6617,-6.6512,-6.6246,-6.6246,-6.6139,-6.5808,-6.5569,-6.5406,-6.5351,-6.5101,-6.485,-6.4604,-6.4777,-6.4727,-6.4141,-6.38,-6.3457,-6.3226,-6.3109,-6.3079,-6.3079,-6.3079,-6.3079,-6.3079,-6.3079,-6.272,-6.1945,-6.1945,-6.1386,-6.039,-6.039,-6.0307,-5.9407,-6.0406,-6.1261,-6.1642,-6.1702,-6.1443,-6.0607,-5.9608,-5.8647,-5.8027,-5.739,-5.7125,-5.7666,-5.8169,-5.8664,-5.9261,0.0,0.0,-6.3991,-6.678,-6.9069,-7.0,-7.1198,-7.2067,0.0,0.0,-7.4285,-7.4802,0.0,0.0,-7.4089,-7.4158,-7.3943,-7.32,-7.3571,-7.3508,-7.2983,-7.2796,-7.2671,-7.2515,-7.242,-7.2294,-7.2167,-7.2357,-7.242,-7.242,-7.242,0.0,0.0,-7.1066,-7.0293,-6.9303,-6.8619,-6.7752,-6.6821,-6.63,-6.5653,-6.4774,-6.3839,-6.2851,-6.2014,-6.1224,-6.079,-6.0764,-6.1378,-6.191,-6.2321,-6.2846,-6.3649,-6.4382,-6.4967,-6.5366,-6.5744,-6.6266,-6.6266,-6.6162,-6.6369,-6.6615,-6.6691,-6.6617,-6.6459,-6.6299,-6.6192,-6.5924,-6.5515,-6.5211,-6.4936,-6.4691,-6.4524,-6.4412,-6.43,-6.4188,-6.4412,-6.4356,-6.3766,-6.3595,-6.3424,-6.3137,-6.3079,-6.3079,-6.3079,-6.3079,-6.3079,-6.3079,-6.3079,-6.275,-6.2091,-6.2091,-6.1706,-6.088,-6.088,-6.1088,-5.9874,-6.1055,-6.2151,-6.2331,-6.2333,-6.1985,-6.1139,-6.0084,-5.9119,-5.8315,-5.7765,-5.7584,-5.8003,-5.8445,-5.908,0.0,0.0,-6.3362,-6.4524,-6.6834,-6.8771,-6.9772,0.0,-7.1224,0.0,-7.2556,-7.367,-7.4533,0.0,0.0,-7.3169,-7.357,-7.3476,-7.2859,-7.332,-7.332,-7.2859,-7.2608,-7.2483,-7.2357,-7.2104,-7.1913,-7.185,-7.1913,-7.2007,-7.1977,-7.1764,0.0,0.0,-7.0049,-6.922,-6.8329,-6.7486,-6.6715,-6.5985,-6.5525,-6.4793,-6.4018,-6.2939,-6.2009,-6.1228,-6.0295,-5.9888,-5.9916,-6.1057,-6.173,-6.2221,-6.2678,-6.3634,-6.4568,-6.4946,-6.5345,-6.5678,-6.5905,-6.6044,-6.6067,-6.6274,-6.6447,-6.6565,-6.6512,-6.6246,-6.6032,-6.5817,-6.5406,-6.5084,-6.4881,-6.4575,-6.444,-6.4425,-6.4159,-6.3981,-6.3981,-6.4027,-6.3906,-6.3538,-6.3424,-6.3309,-6.3137,-6.3079,-6.3079,-6.3079,-6.3079,-6.3079,-6.3079,-6.3079,-6.2839,-6.2391,-6.2391,-6.2151,-6.1702,-6.1702,-6.1942,-6.0813,-6.1583,-6.2241,-6.2899,-6.2847,-6.22,-6.0552,-5.9941,-5.9331,-5.8044,-5.7781,-5.8003,-5.8555,-5.8882,-5.9525,-6.0782,0.0,0.0,-6.4577,-6.6393,-6.7989,0.0,0.0,-7.0408,-7.114,-7.1875,-7.2735,0.0,0.0,0.0,-7.2515,-7.2167,-7.2198,-7.2483,-7.2546,-7.2546,-7.2515,-7.2515,-7.2357,-7.2007,-7.2007,-7.1786,-7.1435,-7.185,-7.2007,0.0,0.0,0.0,0.0,-6.8743,-6.7611,-6.6921,-6.5958,-6.5314,-6.4909,-6.4299,-6.4226,-6.4184,-6.1982,-6.1433,-6.1497,-6.0121,-5.9682,-5.9855,-6.0737,-6.1018,-6.1186,-6.2153,-6.3047,-6.3808,-6.4378,-6.5037,-6.5678,-6.5905,-6.6497,-6.7005,-6.7005,-6.6796,-6.6512,-6.6246,-6.5947,-6.5538,-6.4936,-6.4826,-6.485,-6.487,-6.4646,-6.4744,-6.5407,-6.4661,-6.3977,-6.3977,-6.3438,-6.3252,-6.3481,-6.3252,-6.3079,-6.3079,-6.3079,-6.3079,-6.3079,-6.3079,-6.3079,-6.3079,-6.3079,-6.3079,-6.3079,-6.3079,-6.3079,-6.3049,-6.3049,-6.3049,-6.0988,-6.1912,-6.2752,-6.273,-6.2316,-6.1697,-6.0763,-5.9769,-5.8951,-5.8512,-5.8241,-5.828,-5.8882,-5.9339,-6.0084,-6.1339,-6.2681,0.0,0.0,0.0,0.0,-6.878,-6.988,-7.075,0.0,0.0,0.0,0.0,0.0,0.0,-7.2137,-7.1786,-7.1756,-7.2167,-7.2167,-7.2167,-7.2167,-7.1883,-7.1692,-7.1564,-7.1371,-7.1178,-7.1018,-7.0727,-7.0611,0.0,0.0,0.0,0.0,-6.7916,-6.7001,-6.5836,-6.4877,-6.4236,-6.3861,-6.3037,-6.2457,-6.2002,-6.0905,-6.0194,-5.9624,-5.8929,-5.8859,-5.9122,-5.9782,-6.0631,-6.1599,-6.2932,-6.362,-6.4037,-6.4429,-6.5037,-6.5678,-6.5905,-6.6237,-6.6512,-6.6723,-6.6321,-6.5947,-6.5623,-6.5297,-6.4991,-6.4604,-6.4188,-6.4062,-6.4556,-6.4357,-6.4213,-6.4482,-6.4185,-6.3827,-6.3408,-6.3199,-6.3137,-6.3252,-6.3137,-6.3079,-6.3079,-6.3079,-6.3079,-6.3079,-6.3079,-6.3079,-6.3079,-6.3079,-6.3079,-6.3079,-6.3079,-6.3194,-6.3367,-6.3367,-6.3367,-6.1104,-6.2061,-6.2961,-6.2346,-6.1844,-6.1198,-6.0208,-5.936,-5.8688,-5.8537,-5.8545,-5.8719,-5.9153,-5.9925,-6.0821,-6.1972,-6.3264,0.0,0.0,0.0,0.0,-6.8689,0.0,0.0,0.0,-7.0731,0.0,0.0,0.0,0.0,-7.1392,-7.1443,-7.15,-7.1786,-7.1913,-7.2007,-7.2007,-7.1786,-7.1628,-7.1628,-7.1113,-7.0769,-7.056,-7.0141,-6.9842,0.0,0.0,0.0,0.0,-6.6938,-6.5996,-6.4877,-6.4091,-6.3486,-6.2882,-6.2062,-6.1451,-6.0994,-6.0137,-5.9345,-5.8753,-5.8523,-5.8988,-5.9591,-5.9673,-6.0425,-6.1469,-6.2581,-6.3047,-6.3252,-6.3609,-6.4334,-6.506,-6.5267,-6.5681,-6.6054,-6.6214,-6.5754,-6.532,-6.5132,-6.4802,-6.4412,-6.4132,-6.3736,-6.3692,-6.4238,-6.4123,-6.4096,-6.4366,-6.4156,-6.3857,-6.3468,-6.3228,-6.3079,-6.3079,-6.3079,-6.3079,-6.3079,-6.3079,-6.3079,-6.3079,-6.3079,-6.3079,-6.3079,-6.2839,-6.272,-6.272,-6.2565,-6.2585,-6.2755,-6.2867,-6.2867,0.0,-6.2121,-6.2872,-6.187,-6.1374,-6.0702,-5.924,-5.8746,0.0,-5.8342,-5.8719,-5.9237,-5.959,-6.0639,-6.176,-6.2786,-6.3916,0.0,0.0,-6.6883,0.0,0.0,-6.9387,0.0,-7.0696,0.0,0.0,0.0,0.0,0.0,-7.0501,-7.1074,-7.1435,-7.1435,-7.1786,-7.2007,-7.1944,-7.1944,-7.1944,-7.1913,-7.1182,-7.053,-6.9991,-6.9871,-6.9512,0.0,0.0,0.0,0.0,-6.5933,-6.4847,-6.3917,-6.3452,-6.2733,-6.1851,-6.116,-6.0932,-6.076,-5.9533,-5.9002,-5.8811,-5.8722,-5.9721,-6.0829,-6.0221,-6.0438,-6.101,-6.1461,-6.1633,-6.1765,-6.2266,-6.3255,-6.4089,-6.4089,-6.4914,-6.57,-6.57,-6.5211,-6.4771,-6.4715,-6.43,-6.388,-6.3538,-6.3481,-6.3577,-6.3975,-6.4006,-6.4216,-6.4874,-6.4395,-6.3977,-6.3947,-6.3408,-6.3079,-6.3079,-6.3079,-6.3079,-6.3079,-6.3079,-6.3079,-6.3079,-6.3079,-6.3079,-6.3079,-6.2421,-6.2061,-6.2088,-6.1653,-6.1489,-6.1574,-6.1819,-6.1929,-6.1852,0.0,-6.2903,-6.2144,-6.1201,-6.026,0.0,-5.8717,-5.8179,-5.8748,-5.9153,-5.9787,-6.1049,-6.1717,-6.2579,-6.4022,0.0,-6.5161,-6.6379,0.0,0.0,-6.9475,-6.9552,-6.9476,-6.934,0.0,0.0,0.0,0.0,-6.9802,-7.0089,-7.0946,-7.1435,-7.1435,-7.1786,-7.185,-7.1564,-7.1564,-7.1435,-7.1178,-7.0474,-7.0111,-6.9961,-6.8914,-6.8345,0.0,0.0,0.0,-6.6247,-6.4944,-6.4062,-6.3481,-6.1936,-6.0944,-6.0166,-5.9262,-5.9097,-5.9229,-5.8373,-5.8422,-5.8783,-5.8732,-5.9393,-6.0251,-6.028,-6.1184,-6.2115,-6.1687,-6.1916,-6.2216,-6.2365,-6.3255,-6.4089,-6.4089,-6.4755,-6.5406,-6.5406,-6.4936,-6.4437,-6.4244,-6.388,-6.3538,-6.3252,-6.3194,-6.3404,-6.3917,-6.4006,-6.4066,-6.4216,-6.4096,-6.3827,-6.3348,-6.3169,-6.3079,-6.3079,-6.3079,-6.3079,-6.3079,-6.3079,-6.3079,-6.3079,-6.3079,-6.3079,-6.3079,-6.2421,-6.1935,-6.1649,-6.1524,-6.174,-6.2208,-6.2262,-6.2262,-6.2091,-6.257,-6.2874,-6.2083,-6.1374,-6.0637,-5.9846,0.0,-5.8999,-5.9602,-6.0197,-6.089,-6.1882,-6.2677,-6.3636,0.0,-6.5204,0.0,0.0,0.0,-6.8555,-6.9089,-6.8948,-6.8684,0.0,0.0,0.0,0.0,0.0,-6.9376,-6.9736,-7.0987,-7.1756,-7.1883,-7.2104,-7.204,-7.1722,-7.15,-7.1156,-7.0727,-7.0205,-6.9662,-6.9034,-6.8315,-6.7807,0.0,0.0,0.0,-6.5444,-6.428,-6.3221,-6.2303,-6.083,-5.9753,-5.8974,-5.848,-5.849,-5.8795,-5.871,-5.8913,-5.9219,-5.9188,-5.9921,-6.095,-6.1111,-6.2016,-6.2861,-6.1863,-6.1815,-6.2066,-6.2315,-6.2953,-6.3618,-6.3618,-6.4234,-6.4832,-6.4832,-6.4531,-6.4188,-6.4049,-6.3864,-6.3582,-6.3166,-6.3318,-6.3528,-6.3558,-6.3588,-6.3588,-6.3588,-6.3588,-6.3438,-6.3109,-6.3079,-6.3079,-6.3079,-6.3079,-6.3079,-6.3079,-6.3079,-6.3079,-6.3079,-6.3079,-6.278,-6.2181,-6.1935,-6.1413,-6.0584,-6.0856,-6.1156,-6.1508,-6.1584,-6.1637,-6.2241,-6.266,-6.2872,-6.2017,-6.1721,-6.1365,-6.0205,0.0,-6.0511,-6.0754,-6.1485,-6.2179,-6.2664,-6.3749,0.0,0.0,0.0,0.0,-6.8007,-6.8054,-6.804,-6.8296,-6.8059,0.0,0.0,0.0,0.0,0.0,0.0,-6.91,-6.9414,-7.0996,-7.204,-7.2326,-7.2235,-7.2078,-7.1792,-7.1413,-7.095,-7.0438,-6.9909,-6.9064,-6.7956,-6.7867,-6.7508,-6.6999,0.0,0.0,-6.4852,-6.3617,-6.2331,-6.0926,-5.999,-5.9059,-5.8306,-5.8367,-5.8612,-5.9034,-5.9582,-5.9879,-5.9971,-5.98,-6.0756,-6.2014,-6.2044,-6.2679,-6.3131,-6.2081,-6.1726,-6.1815,-6.2266,-6.2701,-6.3001,-6.3001,-6.3704,-6.4274,-6.4274,-6.4175,-6.3993,-6.3993,-6.3963,-6.3797,-6.3169,-6.3677,-6.3917,-6.3199,-6.3169,-6.3169,-6.3079,-6.3079,-6.3079,-6.3079,-6.3079,-6.3079,-6.3079,-6.3079,-6.3079,-6.3079,-6.3079,-6.3079,-6.3079,-6.2989,-6.2418,-6.119,-6.1318,-6.079,-5.9636,-6.0167,-6.0429,-6.0481,-6.069,-6.0794,-6.2929,-6.2989,-6.2991,-6.2554,-6.2251,-6.1945,-6.1649,-6.1704,0.0,0.0,0.0,0.0,0.0,-6.4969,-6.56,0.0,0.0,-6.728,0.0,0.0,-6.7968,-6.8059,0.0,0.0,0.0,0.0,0.0,0.0,0.0,-6.9004,-6.9067,-7.0585,-7.15,-7.1564,-7.1114,-7.0779,-7.0715,-7.0715,-7.0464,-7.0025,-6.8887,-6.8166,-6.7956,-6.7388,-6.7089,0.0,0.0,-6.497,-6.4392,-6.2323,-6.1183,-6.0643,-5.9645,-5.8902,-5.8306,-5.8612,-5.907,-5.9644,-5.9976,-6.0643,-6.1191,-6.0309,-6.0921,-6.2044,-6.2286,-6.2372,-6.2457,-6.2415,-6.2355,-6.2266,-6.2396,-6.2701,-6.3001,-6.3001,-6.3704,-6.4274,-6.4274,-6.4175,-6.3993,-6.3993,-6.3963,-6.3797,-6.3169,-6.4066,-6.4455,-6.3258,-6.3528,-6.3677,-6.3139,-6.3079,-6.3079,-6.3079,-6.3079,-6.3079,-6.3079,-6.3079,-6.3079,-6.3079,-6.3079,-6.3079,-6.3079,-6.254,-6.1995,-6.1463,-6.0891,-6.0499,-6.0272,-6.0324,-6.0534,-6.0742,-6.0794,-6.0794,-6.3079,-6.3079,-6.3079,-6.3079,-6.2954,-6.2909,-6.2966,-6.2964,-6.3255,-6.422,0.0,0.0,0.0,0.0,-6.682,-6.6884,0.0,-6.7869,-6.7722,-6.7697,-6.7729,0.0,0.0,0.0,0.0,0.0,0.0,0.0,0.0,0.0,-6.9766,-7.0528,-7.0987,-7.1147,-7.0386,-6.9928,-6.9928,-6.9441,-6.9073,-6.8884,-6.8256,-6.7777,-6.7418,-6.7119,-6.6728,-6.6186,0.0,-6.4347,-6.3091,-6.1647,-6.075,-6.007,-5.9076,-5.8531,-5.8367,-5.9009,-5.9873,-6.0733,-6.0666,-6.1267,-6.1995,-6.1343,-6.1959,-6.3115,-6.3592,-6.3485,-6.3256,-6.338,-6.2833,-6.2216,-6.2365,-6.2518,-6.2688,-6.2688,-6.3297,-6.3876,-6.3716,-6.3844,-6.4027,-6.422,-6.4419,-6.4455,-6.4186,-6.4934,-6.5233,-6.4276,-6.4066,-6.3887,-6.3617,-6.3288,-6.3079,-6.3079,-6.3079,-6.3079,-6.3079,-6.3079,-6.3079,-6.3079,-6.3079,-6.3079,-6.3079,-6.278,-6.2292,-6.1519,-6.1352,-6.0988,-6.0377,-6.0534,-6.069,-6.0794,-6.0794,-6.0794,-6.3079,-6.3079,-6.3224,-6.3719,-6.38,-6.3815,-6.423,-6.4467,-6.4925,-6.6129,-6.661,0.0,0.0,-6.7579,0.0,-6.7647,-6.7962,-6.8119,-6.791,-6.7608,-6.7365,0.0,0.0,0.0,0.0,0.0,0.0,0.0,0.0,0.0,-7.0103,-7.0284,-7.0411,-7.0544,-6.9629,-6.9173,-6.9173,-6.8263,-6.7807,-6.7956,-6.7745,-6.7354,-6.6846,-6.6635,-6.6094,-6.5344,-6.4619,-6.3424,-6.1881,-6.1089,-6.0313,-5.9488,-5.8761,-5.8626,-5.8993,-5.9932,-6.085,-6.1615,-6.135,-6.1829,-6.2561,-6.2281,-6.3084,-6.4203,-6.4652,-6.448,-6.4057,-6.39,-6.3009,-6.2116,-6.2347,-6.2396,-6.2428,-6.2536,-6.3076,-6.3515,-6.3384,-6.3697,-6.4088,-6.4229,-6.4512,-6.4784,-6.4784,-6.5473,-6.5742,-6.4904,-6.4485,-6.4126,-6.3827,-6.3378,-6.3079,-6.3079,-6.3079,-6.3079,-6.3079,-6.3079,-6.3079,-6.3079,-6.3079,-6.3079,-6.3079,-6.2929,-6.2442,-6.1629,-6.1613,-6.1301,-6.0481,-6.069,-6.0794,-6.0794,-6.0794,-6.0794,-6.3079,-6.3079,-6.3402,-6.458,-6.4588,-6.459,-6.5509,-6.6385,-6.7174,-6.7865,-6.8296,-6.8359,-6.7846,-6.7553,-6.7589,-6.8203,-6.7909,-6.7548,-6.7548,0.0,0.0,0.0,0.0,0.0,0.0,0.0,0.0,0.0,0.0,0.0,-6.9157,-6.9726,-6.9756,-6.9157,-6.8468,-6.8108,-6.8108,-6.7388,-6.7358,-6.7956,-6.7049,-6.6597,-6.6476,-6.5606,-6.5096,-6.4917,-6.31,-6.2029,-6.1545,-6.0323,-5.9572,-5.9205,-5.9177,-5.9707,-6.0624,-6.1555,-6.1965,-6.1945,-6.1956,-6.2359,-6.2864,-6.2795,-6.3633,-6.4696,-6.4683,-6.4423,-6.3963,-6.3304,-6.2733,-6.2396,-6.2365,-6.2396,-6.2473,-6.2852,-6.3266,-6.3671,-6.3703,-6.3892,-6.3936,-6.3656,-6.3822,-6.4066,-6.4066,-6.5144,-6.5562,-6.4276,-6.4575,-6.4515,-6.3288,-6.3109,-6.3079,-6.3079,-6.3079,-6.3079,-6.3079,-6.3079,-6.3079,-6.3079,-6.3079,-6.3079,-6.3079,-6.248,-6.2104,-6.1904,-6.1267,-6.0921,-6.0742,-6.0794,-6.0794,-6.0794,-6.0794,-6.0794,-6.3079,-6.3522,-6.4171,-6.5045,-6.5739,-6.6375,-6.6933,-6.7839,-6.8728,-6.9674,-7.0091,-7.0035,-6.929,0.0,-6.8421,-6.7669,-6.7335,0.0,0.0,0.0,0.0,0.0,0.0,0.0,0.0,0.0,0.0,0.0,0.0,0.0,0.0,-6.9064,-6.8552,-6.8061,-6.7593,-6.7296,-6.7049,-6.681,-6.681,-6.7049,-6.6687,-6.6268,-6.5852,-6.5032,-6.4103,-6.3158,-6.2174,-6.125,-6.0385,-5.9877,-5.9482,-5.9205,-5.942,-6.001,-6.0745,-6.1292,-6.1813,-6.2337,-6.2445,-6.304,-6.3779,-6.3933,-6.4737,-6.5607,-6.526,-6.4934,-6.4444,-6.3779,-6.3449,-6.3214,-6.2541,-6.2762,-6.3091,-6.304,-6.3641,-6.4178,-6.3585,-6.3756,-6.4001,-6.3878,-6.3885,-6.4276,-6.5114,-6.5323,-6.5353,-6.5263,-6.4755,-6.4216,-6.3707,-6.3318,-6.3079,-6.3079,-6.3079,-6.3079,-6.3079,-6.3079,-6.3079,-6.3079,-6.3079,-6.3079,-6.3079,-6.2839,-6.2675,-6.2511,-6.2238,-6.214,-6.2056,-6.1625,-6.144,-6.1409,-6.1009,-6.0794,-6.3194,-6.3875,-6.4677,-6.5521,-6.6673,-6.7739,-6.8214,-6.9102,-7.0091,-7.1062,-7.1039,-7.0614,-6.9874,-6.9122,0.0,0.0,-6.6753,0.0,0.0,0.0,0.0,0.0,0.0,0.0,0.0,0.0,0.0,0.0,0.0,0.0,0.0,-6.8402,-6.7617,-6.7159,-6.6867,-6.6568,-6.6319,-6.6319,-6.6201,-6.5994,-6.5932,-6.5571,-6.4976,-6.4009,-6.2906,-6.1787,-6.1188,-6.0532,-5.9668,-5.9606,-5.9482,-5.942,-5.9825,-6.0262,-6.0727,-6.1349,-6.1706,-6.2097,-6.2726,-6.3401,-6.4102,-6.4767,-6.5596,-6.628,-6.5888,-6.5606,-6.5249,-6.4548,-6.4257,-6.4062,-6.3354,-6.3507,-6.3767,-6.3598,-6.4121,-6.4497,-6.3703,-6.3741,-6.3944,-6.3734,-6.3707,-6.4066,-6.5173,-6.4994,-6.4844,-6.5293,-6.4605,-6.3917,-6.3737,-6.3348,-6.3079,-6.3079,-6.3079,-6.3079,-6.3079,-6.3079,-6.3079,-6.3079,-6.3079,-6.3079,-6.3079,-6.3079,-6.2979,-6.2794,-6.2875,-6.2848,-6.2664,-6.2095,-6.1809,-6.1779,-6.1101,-6.0794,-6.3424,-6.399,-6.4797,-6.6101,-6.7438,-6.8608,-6.929,-7.0135,-7.1087,-7.2064,-7.1052,-6.9786,-6.9455,-6.8092,0.0,-6.6568,-6.6195,0.0,0.0,0.0,0.0,0.0,0.0,0.0,0.0,0.0,0.0,0.0,0.0,0.0,0.0,-6.7644,-6.7159,-6.6506,-6.6195,-6.6007,-6.6007,-6.6007,-6.5654,-6.5005,-6.4634,-6.4293,-6.3922,-6.2303,-6.1418,-6.1017,-6.0109,-5.973,-5.9668,-5.9329,-5.942,-5.9792,-6.0438,-6.0638,-6.0765,-6.2002,-6.1805,-6.1156,-6.2739,-6.3304,-6.3534,-6.5062,-6.6048,-6.6565,-6.6435,-6.6415,-6.6254,-6.55,-6.5108,-6.4906,-6.4906,-6.4736,-6.4567,-6.4652,-6.4733,-6.4599,-6.4122,-6.3993,-6.3823,-6.3194,-6.3079,-6.3258,-6.3887,-6.4006,-6.3977,-6.4006,-6.4006,-6.3767,-6.3169,-6.3079,-6.3079,-6.3079,-6.3079,-6.3079,-6.3079,-6.3079,-6.3079,-6.3079,-6.3079,-6.3079,-6.3079,-6.3079,-6.2922,-6.2487,-6.2763,-6.2737,-6.2371,-6.202,-6.1809,-6.1809,-6.1132,-6.0794,-6.3481,-6.461,-6.5982,-6.6568,0.0,-6.9321,-7.0237,-7.1174,-7.1885,-7.208,-7.1536,-7.0465,-6.8755,-6.7807,0.0,-6.6004,-6.5727,0.0,0.0,0.0,0.0,0.0,0.0,0.0,0.0,0.0,0.0,0.0,0.0,0.0,0.0,-6.7103,-6.629,-6.5143,-6.5238,-6.497,-6.4344,-6.4315,-6.4103,-6.3622,-6.2815,-6.255,-6.2645,-6.1652,-6.0817,-6.0109,-5.9538,-5.9329,-5.9329,-5.9205,-5.942,-5.9735,-5.989,-6.038,-6.0967,-6.1262,-6.1453,-6.1682,-6.2789,-6.3577,-6.4338,-6.5477,-6.6485,-6.7086,-6.6791,-6.6699,-6.6488,-6.555,-6.561,-6.574,-6.5175,-6.5345,-6.5502,-6.4849,-6.4915,-6.4885,-6.4158,-6.3993,-6.3823,-6.3194,-6.3079,-6.3258,-6.3887,-6.3647,-6.3498,-6.3947,-6.3617,-6.3288,-6.3109,-6.3079,-6.3079,-6.3079,-6.3079,-6.3079,-6.3079,-6.3079,-6.3079,-6.3079,-6.3079,-6.3079,-6.3079,-6.263,-6.2442,-6.2513,-6.2794,-6.3036,-6.3098,-6.2695,-6.2517,-6.2487,-6.1348,-6.0794,-6.3562,-6.5049,0.0,-6.6831,-6.8135,-6.96,-7.0341,-7.1143,-7.1674,-7.1383,-7.0709,-6.9573,-6.7919,-6.6997,0.0,-6.5407,0.0,0.0,0.0,0.0,0.0,0.0,0.0,0.0,0.0,0.0,0.0,0.0,0.0,0.0,0.0,0.0,0.0,0.0,-6.4337,-6.3954,-6.3389,-6.3266,-6.2997,-6.2489,-6.1743,-6.1241,-6.0922,-6.0489,-5.9866,-5.8902,-5.8463,-5.8289,-5.8289,-5.8536,-5.8904,-5.9333,-5.9738,-6.0179,-6.0714,-6.1122,-6.1308,-6.1597,-6.2837,-6.383,-6.4697,-6.5937,-6.6895,-6.7529,-6.7264,-6.7185,-6.7039,-6.6337,-6.6275,-6.6318,-6.5797,-6.5741,-6.5692,-6.5071,-6.4987,-6.4912,-6.4162,-6.388,-6.3652,-6.3194,-6.3079,-6.3199,-6.3558,-6.3318,-6.3199,-6.3588,-6.3318,-6.3079,-6.3079,-6.3079,-6.3079,-6.3079,-6.3079,-6.3079,-6.3079,-6.3079,-6.3079,-6.3079,-6.2839,-6.269,-6.269,-6.2301,-6.2085,-6.1954,-6.2233,-6.2566,-6.2842,-6.2441,-6.2319,-6.2394,-6.1212,-6.0638,-6.372,-6.5189,-6.6514,-6.6862,-6.8077,-6.9336,-6.9599,-7.0154,-7.0494,-7.0251,0.0,-6.7644,-6.6926,-6.5757,-6.4932,0.0,0.0,0.0,0.0,0.0,0.0,0.0,0.0,0.0,0.0,0.0,0.0,0.0,0.0,0.0,0.0,0.0,0.0,-6.421,-6.3407,-6.2931,-6.2844,-6.2596,-6.2121,0.0,-6.1146,-6.0336,-5.9058,-5.9121,-5.8597,-5.7611,-5.7116,-5.6893,-5.6954,-5.7531,-5.8161,-5.881,-5.9681,-6.0093,-6.0306,-6.1378,-6.1421,-6.1196,-6.284,-6.3969,-6.4818,-6.6227,-6.7185,-6.7797,-6.7797,-6.7797,-6.7695,-6.742,-6.6953,-6.6617,-6.6512,-6.5893,-6.5242,-6.5242,-6.5022,-6.4604,-6.4075,-6.3709,-6.3424,-6.3137,-6.3079,-6.3079,-6.3079,-6.3079,-6.3079,-6.3079,-6.3079,-6.3079,-6.3079,-6.3079,-6.3079,-6.3079,-6.3079,-6.3079,-6.3079,-6.3019,-6.2989,-6.2989,-6.2361,-6.1972,-6.1912,-6.1912,-6.1642,-6.1044,-6.1262,-6.1539,-6.1844,-6.153,-6.1492,-6.1704,-6.0788,-6.0377,-6.3421,-6.5106,0.0,-6.6862,-6.7788,-6.8507,-6.8122,-6.791,-6.7968,-6.8448,-6.7608,-6.6549,-6.5577,-6.4762,0.0,0.0,0.0,0.0,0.0,0.0,0.0,0.0,0.0,0.0,0.0,0.0,0.0,0.0,0.0,0.0,0.0,0.0,0.0,-6.1848,-6.1891,-6.1726,-6.1235,-6.1145,-6.0905,0.0,-6.0147,-5.9341,-5.8131,-5.8351,-5.7802,-5.6726,-5.6826,-5.6893,-5.6954,-5.7531,-5.8189,-5.881,-5.9183,-5.99,-6.0789,-6.1172,-6.1636,-6.2166,-6.2721,-6.4023,-6.5507,-6.5816,-6.6767,-6.7797,-6.7797,-6.7644,-6.742,-6.6901,-6.6723,-6.6427,-6.5731,-6.5242,-6.4826,-6.466,-6.4549,-6.4326,-6.3706,-6.3565,-6.3424,-6.3137,-6.3079,-6.3079,-6.3079,-6.3079,-6.3079,-6.3079,-6.3079,-6.3079,-6.3079,-6.3079,-6.3079,-6.3079,-6.3079,-6.3079,-6.3079,-6.26,-6.2301,-6.2301,-6.1702,-6.1074,-6.0535,-6.0505,-6.0446,-6.0326,-6.0656,-6.082,-6.0905,-6.1048,-6.1118,-6.1142,-6.0449,-6.0092,-6.3257,0.0,0.0,-6.6426,0.0,-6.6671,-6.6372,-6.5708,-6.5214,-6.5601,-6.5723,-6.5502,-6.4669,0.0,0.0,0.0,0.0,0.0,0.0,0.0,0.0,0.0,0.0,0.0,0.0,0.0,0.0,0.0,0.0,0.0,0.0,-6.2216,-6.1638,-6.1136,-6.1131,-6.1027,-6.0681,-6.0364,-6.01,-5.9737,-5.9058,-5.8058,-5.6676,-5.6709,-5.6271,-5.5477,-5.5718,-5.5788,-5.5909,-5.6925,-5.7743,-5.8348,-5.9148,-6.0066,-6.0941,-6.1535,-6.2035,-6.2545,-6.3385,-6.4576,-6.5786,-6.6091,-6.6928,-6.7746,-6.7368,-6.7109,-6.6901,-6.6321,-6.6054,-6.5839,-6.5242,-6.4826,-6.4493,-6.4075,-6.3963,-6.3906,-6.3565,-6.3394,-6.3252,-6.3137,-6.3079,-6.3079,-6.3079,-6.3079,-6.3079,-6.3079,-6.3079,-6.3079,-6.3079,-6.3079,-6.3079,-6.3079,-6.278,-6.26,-6.26,-6.2002,-6.1613,-6.1613,-6.0984,-6.0446,-6.0086,-5.9787,-5.9608,-5.9608,-5.9801,-5.9964,-6.0072,-6.0204,-6.0365,-6.0502,-5.9978,-5.9622,-6.3025,0.0,-6.5403,-6.5726,-6.5408,0.0,-6.4726,-6.382,-6.3051,-6.2865,-6.3641,-6.4294,0.0,0.0,0.0,0.0,0.0,0.0,0.0,0.0,0.0,0.0,0.0,0.0,0.0,0.0,0.0,0.0,0.0,0.0,-6.1753,-6.1092,-6.075,-6.075,-6.0549,-6.0477,-6.0477,-5.9875,-5.9439,-5.92,-5.8093,-5.6869,-5.5612,-5.5172,-5.4691,-5.4358,-5.4501,-5.4667,-5.4758,-5.625,-5.7247,-5.7944,-5.9362,-6.0346,-6.1052,-6.2035,-6.2545,-6.3013,-6.4255,-6.5238,-6.5962,-6.6524,-6.7098,-6.7439,-6.6744,-6.6427,-6.6268,-6.57,-6.532,-6.5077,-6.4746,-6.4437,-6.4101,-6.3622,-6.3451,-6.3424,-6.3424,-6.3252,-6.3079,-6.3079,-6.3079,-6.3079,-6.3079,-6.3079,-6.3049,-6.2929,-6.2899,-6.2869,-6.275,-6.272,-6.272,-6.272,-6.2241,-6.1942,-6.1942,-6.1313,-6.0924,-6.0924,-6.0296,-5.9907,-5.9907,-5.9398,-5.9099,-5.9099,-5.9099,-5.9207,-5.9422,-5.9422,-5.9583,-5.9827,-5.9409,-5.8971,0.0,0.0,-6.5059,0.0,-6.5053,-6.4726,0.0,0.0,-6.2865,0.0,-6.1968,0.0,0.0,0.0,0.0,0.0,0.0,0.0,0.0,0.0,0.0,0.0,0.0,0.0,0.0,0.0,0.0,0.0,0.0,0.0,-6.0371,-5.9808,-5.9442,-5.9442,-5.9403,-5.9365,-5.9365,-5.9063,-5.8924,-5.8866,-5.7321,-5.6507,-5.6216,-5.5178,-5.4331,-5.3761,-5.4309,-5.4699,-5.5026,-5.6365,-5.7389,-5.825,-5.9416,-6.0524,-6.1531,-6.2184,-6.3238,-6.4449,-6.4642,-6.5544,-6.6588,-6.6433,-6.6536,-6.6691,-6.6289,-6.5862,-6.5406,-6.4991,-6.4715,-6.4468,-6.4188,-6.3849,-6.3565,-6.3538,-6.3309,-6.3137,-6.3137,-6.3137,-6.3079,-6.3079,-6.3079,-6.3079,-6.3079,-6.3079,-6.2869,-6.2301,-6.2241,-6.2032,-6.1433,-6.1373,-6.1373,-6.1373,-6.1313,-6.1253,-6.1253,-6.0625,-6.0206,-6.0206,-5.9608,-5.9249,-5.9249,-5.9159,-5.9099,-5.9099,-5.9099,-5.9099,-5.9153,-5.9153,-5.9153,-5.9207,-5.8584,-5.8255,-6.2789,-6.3421,-6.3817,0.0,-6.3239,-6.2941,-6.2188,0.0,-6.1303,-6.0648,0.0,0.0,0.0,0.0,0.0,0.0,0.0,0.0,0.0,0.0,0.0,0.0,0.0,0.0,0.0,0.0,0.0,0.0,0.0,-5.9626,-5.9626,-5.9345,-5.9064,-5.8727,-5.903,-5.9019,-5.8677,-5.8579,-5.8263,-5.7715,-5.6849,-5.63,-5.6152,-5.5636,-5.5054,-5.4433,-5.4849,-5.5379,-5.5875,-5.7134,-5.814,-5.9039,-6.0368,-6.1348,-6.2166,-6.327,-6.4142,-6.482,-6.5576,-6.6152,-6.6529,-6.6453,-6.6438,-6.6183,-6.5561,-6.5211,-6.4912,-6.4468,-6.4244,-6.4075,-6.3823,-6.3595,-6.3481,-6.3309,-6.3194,-6.3079,-6.3079,-6.3079,-6.3079,-6.3079,-6.3079,-6.3079,-6.3079,-6.278,-6.2421,-6.2151,-6.1792,-6.1433,-6.1164,-6.1104,-6.1104,-6.1104,-6.0775,-6.0535,-6.0535,-5.9578,-5.8979,-5.8979,-5.8351,-5.7992,-5.7992,-5.7992,-5.8171,-5.856,-5.8919,-5.9099,-5.9099,-5.9099,-5.8919,-5.856,-5.8261,-5.7723,0.0,0.0,-6.2613,-6.2087,-6.1791,-6.1494,0.0,0.0,-6.0071,0.0,0.0,0.0,0.0,0.0,0.0,0.0,0.0,0.0,0.0,0.0,0.0,0.0,0.0,0.0,0.0,0.0,0.0,0.0,0.0,-5.9149,-5.898,-5.898,-5.8699,-5.8081,-5.843,-5.8417,-5.808,-5.8147,-5.7739,-5.6875,-5.662,-5.6336,-5.5966,-5.6108,-5.5936,-5.5591,-5.5761,-5.6222,-5.6936,-5.8055,-5.9093,-6.0053,-6.1226,-6.221,-6.3027,-6.4255,-6.4948,-6.5448,-6.6463,-6.6644,-6.6511,-6.6449,-6.613,-6.5615,-6.4936,-6.4604,-6.4412,-6.3993,-6.3823,-6.3709,-6.3481,-6.3424,-6.3367,-6.3137,-6.2959,-6.2839,-6.2839,-6.2839,-6.278,-6.26,-6.257,-6.257,-6.257,-6.2181,-6.1792,-6.1613,-6.1164,-6.0775,-6.0625,-6.0595,-6.0595,-6.0595,-5.9997,-5.9578,-5.9578,-5.853,-5.7872,-5.7872,-5.7393,-5.7094,-5.7094,-5.7094,-5.7334,-5.7842,-5.8351,-5.868,-5.886,-5.868,-5.8351,-5.7872,-5.7693,-5.7094,0.0,-6.2175,0.0,-6.1732,-6.1613,0.0,0.0,0.0,0.0,0.0,0.0,0.0,0.0,0.0,0.0,0.0,0.0,0.0,0.0,0.0,0.0,0.0,0.0,0.0,0.0,0.0,0.0,0.0,0.0,-5.8952,-5.839,-5.8362,-5.8053,-5.7463,-5.7143,-5.7158,-5.7423,-5.771,-5.7462,-5.6819,-5.6764,-5.6443,-5.5834,-5.6388,-5.6815,-5.7093,-5.6845,-5.7189,-5.8107,-5.9039,-6.0023,-6.1062,-6.1734,-6.2843,-6.4188,-6.4545,-6.5707,-6.7051,-6.6867,-6.6863,-6.689,-6.6311,-6.5561,-6.4826,-6.4493,-6.4019,-6.3565,-6.3538,-6.3367,-6.3137,-6.3137,-6.3137,-6.3137,-6.3079,-6.26,-6.2151,-6.2151,-6.2151,-6.1972,-6.1343,-6.1224,-6.1224,-6.1224,-6.1194,-6.0954,-6.0296,-6.0146,-5.9907,-5.9279,-5.9219,-5.9219,-5.9219,-5.862,-5.8231,-5.8231,-5.7573,-5.7154,-5.7154,-5.7124,-5.7094,-5.7094,-5.7094,-5.7124,-5.7154,-5.7184,-5.7513,-5.8171,-5.7513,-5.7184,-5.7124,-5.6555,-5.6226,0.0,0.0,0.0,-6.1404,-6.1344,-6.1224,-6.0621,-6.0499,0.0,0.0,0.0,0.0,0.0,0.0,0.0,0.0,0.0,0.0,0.0,0.0,0.0,0.0,0.0,0.0,0.0,0.0,0.0,0.0,0.0,0.0,-5.8306,-5.7912,-5.7435,-5.6788,-5.6832,-5.6932,-5.7053,-5.7154,-5.7049,-5.6815,-5.6731,-5.6622,-5.6415,-5.741,-5.7999,-5.8377,-5.9191,-5.9462,-5.9332,-6.018,-6.099,-6.1765,-6.2988,-6.3881,-6.4674,-6.5869,-6.6547,-6.6964,-6.713,-6.6887,-6.6343,-6.5754,-6.5101,-6.4437,-6.3963,-6.3679,-6.3391,-6.2799,-6.2565,-6.2361,-6.1942,-6.1822,-6.1822,-6.1822,-6.1642,-6.1343,-6.0894,-6.1164,-6.1403,-6.1164,-6.1104,-6.1104,-6.1104,-6.0745,-6.0386,-6.0116,-5.9727,-5.9368,-5.9129,-5.9099,-5.8949,-5.853,-5.8261,-5.7932,-5.7513,-5.6885,-5.6496,-5.6496,-5.6107,-5.5867,-5.5867,-5.5867,-5.6077,-5.6496,-5.6077,-5.6406,-5.7453,-5.7214,-5.6885,-5.6496,-5.6286,-5.5957,-6.1291,-6.1114,0.0,0.0,0.0,-6.0553,-6.0367,0.0,0.0,0.0,0.0,0.0,0.0,0.0,0.0,0.0,0.0,0.0,0.0,0.0,0.0,0.0,0.0,0.0,0.0,0.0,0.0,0.0,0.0,0.0,-5.7688,-5.7294,-5.676,-5.6142,-5.6526,-5.6679,-5.6563,-5.6799,-5.6828,-5.6603,-5.6875,-5.6982,-5.7011,-5.8321,-5.9131,-5.9574,-6.0936,-6.1195,-6.068,-6.1399,-6.216,-6.2992,-6.4011,-6.4834,-6.5675,-6.6792,-6.7178,-6.7135,-6.726,-6.6764,-6.5991,-6.532,-6.4746,-6.4188,-6.3652,-6.3424,-6.3159,-6.2328,-6.2091,-6.1942,-6.1283,-6.1104,-6.1044,-6.0835,-6.0775,-6.0595,-5.9907,-6.0296,-6.0715,-6.0475,-6.0446,-6.0446,-6.0446,-6.0057,-5.9757,-5.9757,-5.9398,-5.9099,-5.9099,-5.8919,-5.859,-5.8171,-5.7723,-5.7274,-5.6825,-5.6196,-5.5837,-5.5837,-5.5448,-5.5179,-5.5179,-5.5179,-5.5388,-5.5888,-5.5418,-5.5598,-5.6466,-5.6466,-5.6256,-5.5837,-5.5837,-5.5598,0.0,0.0,0.0,-5.9451,0.0,0.0,-5.9618,0.0,0.0,0.0,0.0,0.0,0.0,0.0,0.0,0.0,0.0,0.0,0.0,0.0,0.0,0.0,0.0,0.0,0.0,0.0,0.0,0.0,0.0,-5.7097,-5.6451,-5.6395,-5.6114,-5.5524,-5.6106,-5.6222,-5.5958,-5.6786,-5.6841,-5.6137,-5.7106,-5.7567,-5.7492,-5.9143,-6.0133,-6.0715,-6.1901,-6.2284,-6.2116,-6.2612,-6.3564,-6.4723,-6.4723,-6.574,-6.7197,-6.7197,-6.7451,-6.7695,-6.7161,-6.6607,-6.5938,-6.5101,-6.4412,-6.3936,-6.3595,-6.3309,-6.2929,-6.2241,-6.2061,-6.1912,-6.1224,-6.1044,-6.0894,-6.0206,-6.0057,-5.9877,-5.9249,-5.9608,-5.9877,-5.9219,-5.9099,-5.9069,-5.9069,-5.9069,-5.9039,-5.9039,-5.9039,-5.9039,-5.9039,-5.8501,-5.8082,-5.8082,-5.6944,-5.6218,-5.6188,-5.5568,-5.5179,-5.5179,-5.5179,-5.5179,-5.5179,-5.5179,-5.5179,-5.5179,-5.5179,-5.5179,-5.5179,-5.5179,-5.5179,-5.5179,-5.5179,-5.5179,-6.047,0.0,0.0,0.0,0.0,0.0,0.0,0.0,0.0,0.0,0.0,0.0,0.0,0.0,0.0,0.0,0.0,0.0,0.0,0.0,0.0,0.0,0.0,0.0,0.0,0.0,0.0,0.0,-5.7294,-5.662,-5.6423,-5.6002,-5.5782,-5.5874,-5.6423,-5.6563,-5.6208,-5.6834,-5.7109,-5.7136,-5.7527,-5.8109,-5.8733,-6.0277,-6.1029,-6.1288,-6.2635,-6.3244,-6.3148,-6.3293,-6.3902,-6.4755,-6.5465,-6.6339,-6.7262,-6.7548,-6.7585,-6.7439,-6.6901,-6.6321,-6.57,-6.4771,-6.43,-6.388,-6.3367,-6.3137,-6.2839,-6.1702,-6.1373,-6.1134,-5.9967,-5.9668,-5.9608,-5.9428,-5.9368,-5.9338,-5.9129,-5.9249,-5.9308,-5.9129,-5.871,-5.8411,-5.8411,-5.7992,-5.7663,-5.7663,-5.7663,-5.7663,-5.7663,-5.7483,-5.7214,-5.6765,-5.6376,-5.5987,-5.5508,-5.5299,-5.5179,-5.5179,-5.5179,-5.5179,-5.5179,-5.5179,-5.5179,-5.5179,-5.5179,-5.5179,-5.5179,-5.5179,-5.5179,-5.5179,-5.5179,-5.494,-6.0062,-5.9626,-5.9248,-5.861,0.0,0.0,-5.8986,-5.9451,0.0,0.0,0.0,0.0,0.0,0.0,0.0,0.0,0.0,0.0,0.0,0.0,0.0,0.0,0.0,0.0,0.0,0.0,0.0,-5.7547,-5.6592,-5.603,-5.603,-5.581,-5.5787,-5.599,-5.6709,-5.6957,-5.6705,-5.7351,-5.7811,-5.8024,-5.8539,-5.9241,-6.0139,-6.1302,-6.2009,-6.238,-6.3228,-6.366,-6.3755,-6.3755,-6.4336,-6.5352,-6.5886,-6.6662,-6.7451,-6.7687,-6.7491,-6.7005,-6.6586,-6.6023,-6.5375,-6.4524,-6.3949,-6.3516,-6.3219,-6.269,-6.2091,-6.1343,-6.0715,-6.0086,-5.9308,-5.9099,-5.9099,-5.9099,-5.9099,-5.9039,-5.874,-5.871,-5.871,-5.871,-5.8381,-5.8022,-5.7752,-5.7363,-5.7094,-5.7094,-5.7094,-5.7094,-5.7094,-5.6855,-5.6585,-5.6248,-5.5927,-5.5598,-5.5209,-5.5179,-5.5179,-5.5179,-5.5179,-5.5179,-5.5179,-5.5179,-5.5179,-5.5179,-5.5179,-5.5179,-5.5179,-5.5179,-5.5059,-5.479,-5.479,-5.4431,-5.9481,-5.8755,-5.8202,-5.7534,-5.7584,0.0,-5.8483,-5.8914,-5.9205,0.0,0.0,0.0,0.0,0.0,0.0,0.0,0.0,0.0,0.0,0.0,0.0,0.0,0.0,0.0,0.0,-5.7688,-5.7041,-5.6451,-5.5861,-5.5496,-5.5496,-5.5787,-5.6048,-5.6105,-5.6964,-5.7403,-5.7306,-5.8188,-5.8723,-5.8935,-5.9873,-6.0764,-6.1578,-6.2228,-6.2922,-6.358,-6.366,-6.3755,-6.4024,-6.3976,-6.4785,-6.6047,-6.6047,-6.6773,-6.7746,-6.7695,-6.7149,-6.6438,-6.6057,-6.5513,-6.4885,-6.4031,-6.3355,-6.2824,-6.2862,-6.2061,-6.1104,-6.1014,-6.0086,-5.9099,-5.9099,-5.9099,-5.9099,-5.9099,-5.9099,-5.8919,-5.8261,-5.8112,-5.8082,-5.7932,-5.7902,-5.7723,-5.7094,-5.6944,-5.6885,-5.6885,-5.6885,-5.6885,-5.6885,-5.6406,-5.6128,-5.6128,-5.5538,-5.5179,-5.5179,-5.5179,-5.5179,-5.5179,-5.5179,-5.5179,-5.5179,-5.5179,-5.5179,-5.5179,-5.5179,-5.5149,-5.5089,-5.5089,-5.479,-5.4221,-5.4132,-5.3713,-5.8986,-5.8578,-5.8457,-5.7871,-5.7948,0.0,-5.8261,-5.8591,-5.8832,0.0,0.0,0.0,0.0,0.0,0.0,0.0,0.0,0.0,0.0,0.0,0.0,0.0,0.0,0.0,0.0,-5.7266,-5.6564,-5.6423,-5.5861,-5.5496,-5.5496,-5.5787,-5.6193,-5.6709,-5.7584,-5.801,-5.7928,-5.9006,-5.9635,-5.9916,-6.0769,-6.1607,-6.2568,-6.3132,-6.3437,-6.358,-6.3802,-6.3976,-6.3976,-6.3755,-6.4497,-6.5754,-6.5754,-6.6474,-6.7471,-6.7005,-6.6395,-6.566,-6.4889,-6.4034,-6.3195,-6.2573,-6.2097,-6.173,-6.1575,-6.1313,-6.1014,-6.0446,-5.9727,-5.9099,-5.9099,-5.9099,-5.9099,-5.9099,-5.9099,-5.8919,-5.8261,-5.8112,-5.7812,-5.6765,-5.6555,-5.6496,-5.6376,-5.5927,-5.5568,-5.5568,-5.5568,-5.5568,-5.5568,-5.5448,-5.5388,-5.5388,-5.5269,-5.5179,-5.5179,-5.5179,-5.5179,-5.5179,-5.5179,-5.5179,-5.5179,-5.5179,-5.5179,-5.5179,-5.5179,-5.494,-5.4401,-5.4401,-5.4341,-5.4192,-5.3653,-5.3025,-5.8808,-5.8399,-5.8246,-5.8006,-5.8225,0.0,0.0,-5.8571,-5.8641,0.0,0.0,0.0,0.0,0.0,0.0,0.0,0.0,0.0,0.0,0.0,0.0,0.0,0.0,0.0,0.0,-5.6848,-5.6283,-5.5973,-5.5664,-5.5554,-5.5729,-5.6193,-5.6709,-5.7332,-5.8225,-5.8811,-5.9229,-6.0064,-6.078,-6.1302,-6.1828,-6.2458,-6.3196,-6.3628,-6.3865,-6.3959,-6.41,-6.4085,-6.3991,-6.3707,-6.3982,-6.4597,-6.4747,-6.5286,-6.5873,-6.5491,-6.4957,-6.4413,-6.3938,-6.3263,-6.2526,-6.2153,-6.1558,-6.1042,-6.107,-6.0864,-6.0446,-5.9787,-5.9368,-5.9099,-5.9099,-5.9099,-5.9099,-5.9099,-5.9099,-5.8919,-5.8261,-5.7842,-5.7334,-5.6346,-5.5897,-5.5688,-5.5688,-5.5418,-5.5179,-5.5179,-5.5179,-5.5179,-5.5179,-5.5179,-5.5179,-5.5179,-5.5179,-5.5179,-5.5179,-5.5179,-5.5179,-5.5179,-5.5179,-5.5179,-5.5179,-5.5179,-5.5179,-5.5179,-5.5179,-5.5029,-5.47,-5.4012,-5.3533,-5.3204,-5.2845,-5.2336,-5.874,-5.8302,-5.8003,-5.828,-5.8555,-5.8803,0.0,0.0,0.0,0.0,0.0,0.0,0.0,0.0,0.0,0.0,0.0,0.0,0.0,0.0,0.0,0.0,0.0,0.0,0.0,-5.6606,-5.6148,-5.5669,-5.5613,-5.5845,-5.6163,-5.6709,-5.7276,-5.7948,-5.8828,-5.9606,-6.0368,-6.1021,-6.1714,-6.2383,-6.2759,-6.3148,-6.3675,-6.3912,-6.4193,-6.4379,-6.4333,-6.4193,-6.3959,-6.358,-6.3402,-6.3318,-6.3676,-6.4019,-6.4315,-6.4037,-6.3579,-6.3065,-6.296,-6.2495,-6.1889,-6.1595,-6.0959,-6.0355,-6.0621,-6.0326,-5.9787,-5.9249,-5.9099,-5.9099,-5.9099,-5.9099,-5.9099,-5.9099,-5.9099,-5.8919,-5.8261,-5.7573,-5.6915,-5.6338,-5.5658,-5.5179,-5.5179,-5.5179,-5.5179,-5.5179,-5.5179,-5.5179,-5.5179,-5.5179,-5.5179,-5.5179,-5.5179,-5.5179,-5.5179,-5.5179,-5.5179,-5.5179,-5.5179,-5.5179,-5.5179,-5.5059,-5.5059,-5.5179,-5.494,-5.479,-5.479,-5.3593,-5.2785,-5.2396,-5.2127,-5.1738,-5.8545,-5.8449,-5.8639,-5.8639,-5.8828,-5.9045,-5.9045,0.0,-5.825,-5.8195,0.0,0.0,0.0,0.0,0.0,0.0,0.0,0.0,0.0,0.0,0.0,0.0,0.0,0.0,0.0,0.0,-5.6249,-5.599,-5.6193,-5.648,-5.6766,-5.7078,-5.764,-5.847,-5.9362,-6.0136,-6.0742,-6.1512,-6.2035,-6.2432,-6.2905,-6.3469,-6.3959,-6.4193,-6.4426,-6.4656,-6.4426,-6.4193,-6.3912,-6.3196,-6.2741,-6.2572,-6.3286,-6.3645,-6.3746,-6.3462,-6.2984,-6.2352,-6.1827,-6.1004,-6.0229,-5.9878,-5.9549,-5.9303,-5.9308,-5.9279,-5.9189,-5.9129,-5.9099,-5.9099,-5.9099,-5.9099,-5.9099,-5.9099,-5.9099,-5.8919,-5.8261,-5.7573,-5.6915,-5.6338,-5.5658,-5.5179,-5.5179,-5.5179,-5.5179,-5.5179,-5.5179,-5.5179,-5.5179,-5.5179,-5.5179,-5.5179,-5.5179,-5.5179,-5.5179,-5.5179,-5.5179,-5.5179,-5.5179,-5.5179,-5.5179,-5.464,-5.4581,-5.5179,-5.4012,-5.3414,-5.3414,-5.2665,-5.2576,-5.3054,-5.1887,-5.1289,-5.8589,-5.8719,-5.8936,-5.9099,-5.9261,-5.9315,-5.9153,-5.8664,-5.8169,-5.8003,0.0,0.0,0.0,0.0,0.0,0.0,-5.53,0.0,0.0,0.0,0.0,0.0,0.0,0.0,0.0,0.0,0.0,0.0,0.0,-5.6276,-5.6557,-5.7547,-5.836,-5.9069,-5.9819,-6.0451,-6.1,-6.1512,-6.1985,-6.2432,-6.2954,-6.3517,-6.4006,-6.4379,-6.4702,-6.4918,-6.4656,-6.43,-6.3879,-6.3148,-6.2432,-6.1966,-6.2078,-6.2186,-6.2229,-6.1969,-6.1575,-6.1172,-6.091,-6.0358,-5.9667,-5.9369,-5.9207,-5.9099,-5.9099,-5.9099,-5.9099,-5.9099,-5.9099,-5.9099,-5.9099,-5.9099,-5.9099,-5.9099,-5.9099,-5.9039,-5.874,-5.7842,-5.7004,-5.6765,-5.5897,-5.5179,-5.5179,-5.5179,-5.5179,-5.5179,-5.5179,-5.5179,-5.5179,-5.5179,-5.5179,-5.5179,-5.5179,-5.5179,-5.5179,-5.5179,-5.5179,-5.5179,-5.482,-5.4431,-5.4042,-5.3773,-5.3743,-5.4012,-5.3473,-5.3174,-5.3174,-5.2516,-5.2336,-5.2606,-5.1648,-5.1276,-5.8882,-5.9045,-5.9261,-5.9583,-5.9583,-5.9422,-5.9153,-5.8664,-5.8085,-5.7836,-5.7528,0.0,0.0,0.0,-5.5358,-5.5184,0.0,-5.4478,0.0,0.0,0.0,0.0,0.0,0.0,0.0,0.0,0.0,-5.4759,-5.5466,-5.6058,-5.6581,-5.7592,-5.8477,-5.9199,-5.9671,-6.028,-6.0927,-6.1181,-6.1696,-6.2432,-6.2856,-6.3437,-6.41,-6.4518,-6.4839,-6.5054,-6.4748,-6.4254,-6.3658,-6.2873,-6.2166,-6.1461,-6.1103,-6.0949,-6.0949,-6.0742,-6.0534,-6.0302,-6.0167,-5.9849,-5.9369,-5.9153,-5.9099,-5.9099,-5.9099,-5.9099,-5.9099,-5.9099,-5.9099,-5.9099,-5.9099,-5.9099,-5.9099,-5.9099,-5.8979,-5.883,-5.883,-5.7782,-5.6825,-5.6825,-5.5957,-5.5179,-5.5179,-5.5179,-5.5179,-5.5179,-5.5179,-5.5179,-5.5179,-5.5179,-5.5179,-5.5179,-5.5179,-5.5179,-5.5179,-5.5179,-5.5119,-5.494,-5.4311,-5.3713,-5.3204,-5.2995,-5.2995,-5.3174,-5.2815,-5.2725,-5.2905,-5.2247,-5.1947,-5.1917,-5.1486,-5.1386,0.0,0.0,0.0,-5.988,0.0,0.0,0.0,-5.8664,-5.8085,-5.7836,-5.7528,-5.7129,-5.652,-5.5852,-5.5213,-5.4633,-5.4176,0.0,0.0,0.0,0.0,0.0,0.0,0.0,0.0,0.0,0.0,-5.5362,-5.5634,-5.6172,-5.7027,-5.7132,-5.7549,-5.84,-5.8704,-5.9313,-6.0214,-6.0515,-6.1226,-6.2383,-6.271,-6.3309,-6.4333,-6.4564,-6.4839,-6.5054,-6.4518,-6.3879,-6.3164,-6.2365,-6.1714,-6.1155,-6.0638,-6.0429,-6.0429,-6.0429,-6.025,-5.9963,-5.9636,-5.9369,-5.9099,-5.9099,-5.9099,-5.9099,-5.9099,-5.9099,-5.9099,-5.9099,-5.9099,-5.9099,-5.9099,-5.9099,-5.9099,-5.9099,-5.862,-5.8141,-5.8141,-5.7124,-5.6248,-5.6248,-5.5658,-5.5179,-5.5179,-5.5179,-5.5179,-5.5179,-5.5179,-5.5179,-5.5179,-5.5179,-5.5179,-5.5179,-5.5179,-5.5179,-5.5179,-5.5179,-5.491,-5.4281,-5.3593,-5.3204,-5.3174,-5.2576,-5.2546,-5.3174,-5.1947,-5.1588,-5.2217,-5.1558,-5.1259,-5.1259,-5.1463,-5.1572,0.0,0.0,-5.9827,-5.972,0.0,0.0,0.0,0.0,0.0,-5.7584,-5.704,-5.652,-5.5881,-5.5242,-5.4657,-5.42,-5.4013,-5.3942,0.0,-5.3993,0.0,0.0,0.0,0.0,0.0,0.0,0.0,-5.4404,-5.5417,-5.6125,-5.6414,-5.7247,-5.7828,-5.8136,-5.8207,-5.8431,-5.8746,-5.9151,-5.9942,-6.0946,-6.1768,-6.2748,-6.3865,-6.424,-6.4472,-6.4564,-6.424,-6.3675,-6.2905,-6.2266,-6.1664,-6.1186,-6.0586,-6.0272,-6.0144,-6.0144,-5.966,-5.9032,-5.8684,-5.8494,-5.853,-5.8949,-5.9099,-5.9099,-5.9099,-5.9099,-5.9099,-5.9099,-5.9099,-5.9099,-5.9099,-5.877,-5.8471,-5.8471,-5.7932,-5.7453,-5.7453,-5.6765,-5.6218,-5.6218,-5.5658,-5.5179,-5.5179,-5.5179,-5.5179,-5.5179,-5.5179,-5.5158,-5.4955,-5.5108,-5.5128,-5.4955,-5.5078,-5.5029,-5.4581,-5.4132,-5.3593,-5.2935,-5.2665,-5.2336,-5.1887,-5.1678,-5.1648,-5.1887,-5.1439,-5.1319,-5.1558,-5.1319,-5.1323,-5.1479,-5.1741,-5.1834,-5.9207,-5.956,0.0,-5.972,-5.9667,0.0,-5.8857,0.0,-5.7918,0.0,0.0,-5.6461,-5.5562,-5.5097,-5.4653,-5.4013,-5.3993,-5.4097,0.0,-5.4149,-5.3919,0.0,-5.35,-5.3553,0.0,-5.3815,-5.4023,-5.4333,-5.5232,-5.5879,0.0,0.0,-5.7304,-5.7405,-5.7355,-5.7426,-5.7669,-5.8073,-5.8905,-6.0202,-6.1194,-6.2333,-6.3628,-6.41,-6.4286,-6.4193,-6.3865,-6.3293,-6.2464,-6.1966,-6.141,-6.0845,-6.0429,-5.994,-5.9493,-5.9493,-5.8912,-5.8046,-5.7805,-5.7752,-5.7842,-5.8261,-5.8381,-5.8381,-5.8381,-5.856,-5.877,-5.877,-5.877,-5.877,-5.877,-5.8261,-5.7752,-5.7752,-5.7244,-5.6765,-5.6765,-5.6256,-5.5837,-5.5837,-5.5478,-5.5179,-5.5179,-5.5179,-5.5179,-5.5179,-5.5179,-5.5078,-5.4854,-5.4955,-5.5006,-5.4803,-5.4717,-5.4451,-5.3892,-5.3234,-5.2665,-5.2217,-5.1977,-5.1648,-5.1229,-5.1229,-5.1229,-5.1229,-5.1229,-5.1229,-5.1229,-5.1229,-5.1369,-5.1618,-5.188,-5.2048]},{"header":{"parameterUnit":"m.s-1","parameterCategory":1,"la1":30.6,"la2":29.2853,"lo1":-89.7004,"lo2":-87.6739,"dy":0.0162,"dx":0.0183,"nx":112,"ny":82,"refTime":"2023-06-13T18:00:00:Z","depth":0,"parameterNumber":3,"parameterNumberName":"V-component_of_WINDS"},"data":[0.0,0.0,0.0,0.0,0.0,0.0,0.0,0.0,0.0,0.0,0.0,0.0,0.0,0.0,0.0,0.0,0.0,0.0,0.0,0.0,0.0,0.0,0.0,0.0,0.0,0.0,0.0,0.0,0.0,0.0,0.0,0.0,0.0,0.0,0.0,0.0,0.0,0.0,0.0,0.0,0.0,0.0,0.0,0.0,0.0,0.0,0.0,0.0,0.0,0.0,0.0,0.0,0.0,0.0,0.0,0.0,0.0,0.0,0.0,0.0,0.0,0.0,0.0,0.0,0.0,0.0,0.0,0.0,0.0,0.0,0.0,0.0,0.0,0.0,0.0,0.0,0.0,0.0,0.0,0.0,0.0,0.0,0.0,0.0,0.0,0.0,0.0,0.0,0.0,0.0,-4.7189,-4.7738,-4.8004,-4.8152,-4.8029,-4.8907,-4.9497,-4.9502,0.0,0.0,0.0,0.0,0.0,0.0,0.0,0.0,0.0,0.0,0.0,0.0,0.0,0.0,0.0,0.0,0.0,0.0,0.0,0.0,0.0,0.0,0.0,0.0,0.0,0.0,0.0,0.0,0.0,0.0,0.0,0.0,0.0,0.0,0.0,0.0,0.0,0.0,0.0,0.0,0.0,0.0,0.0,0.0,0.0,0.0,0.0,0.0,0.0,0.0,0.0,0.0,0.0,0.0,0.0,0.0,0.0,0.0,0.0,0.0,0.0,0.0,0.0,0.0,0.0,0.0,0.0,0.0,0.0,0.0,0.0,0.0,0.0,0.0,0.0,0.0,0.0,0.0,0.0,0.0,0.0,0.0,0.0,0.0,0.0,0.0,0.0,0.0,0.0,0.0,0.0,0.0,0.0,0.0,0.0,0.0,0.0,0.0,0.0,0.0,0.0,0.0,0.0,0.0,-4.7758,-4.8815,-4.9621,-5.022,-5.07,-5.0565,-5.0937,-5.2164,0.0,0.0,0.0,0.0,0.0,0.0,0.0,0.0,0.0,0.0,0.0,0.0,0.0,0.0,0.0,0.0,0.0,0.0,0.0,0.0,0.0,0.0,0.0,0.0,0.0,0.0,0.0,0.0,0.0,0.0,0.0,0.0,0.0,0.0,0.0,0.0,0.0,0.0,0.0,0.0,0.0,0.0,0.0,0.0,0.0,0.0,0.0,0.0,0.0,0.0,0.0,0.0,0.0,0.0,0.0,0.0,0.0,0.0,0.0,0.0,0.0,0.0,0.0,0.0,0.0,0.0,0.0,0.0,0.0,0.0,0.0,0.0,0.0,0.0,0.0,0.0,0.0,0.0,0.0,0.0,0.0,0.0,0.0,0.0,0.0,0.0,0.0,0.0,0.0,0.0,0.0,0.0,0.0,0.0,0.0,0.0,0.0,0.0,0.0,0.0,0.0,0.0,0.0,-4.8501,-4.9254,-5.0164,-5.0575,-5.0974,-5.1611,-5.1641,-5.2099,-5.3205,-5.3217,0.0,0.0,0.0,0.0,0.0,0.0,0.0,0.0,0.0,0.0,0.0,0.0,0.0,0.0,0.0,0.0,0.0,0.0,0.0,0.0,0.0,0.0,0.0,0.0,0.0,0.0,0.0,0.0,0.0,0.0,0.0,0.0,0.0,0.0,0.0,0.0,0.0,0.0,0.0,0.0,0.0,0.0,0.0,0.0,0.0,0.0,0.0,0.0,0.0,0.0,0.0,0.0,0.0,0.0,0.0,0.0,0.0,0.0,0.0,0.0,0.0,0.0,0.0,0.0,0.0,0.0,0.0,0.0,0.0,0.0,0.0,0.0,0.0,0.0,0.0,0.0,0.0,0.0,0.0,0.0,0.0,0.0,0.0,0.0,0.0,0.0,0.0,0.0,0.0,0.0,0.0,0.0,0.0,0.0,0.0,0.0,0.0,0.0,0.0,0.0,0.0,0.0,-4.976,-5.0558,-5.1284,-5.1343,-5.1534,-5.2151,-5.2604,-5.3132,-5.3717,-5.4461,0.0,0.0,0.0,0.0,0.0,0.0,0.0,0.0,0.0,0.0,0.0,0.0,0.0,0.0,0.0,0.0,0.0,0.0,0.0,0.0,0.0,0.0,0.0,0.0,0.0,0.0,0.0,0.0,0.0,0.0,0.0,0.0,0.0,0.0,0.0,0.0,0.0,0.0,0.0,0.0,0.0,0.0,0.0,0.0,0.0,0.0,0.0,0.0,0.0,0.0,0.0,0.0,0.0,0.0,0.0,0.0,0.0,0.0,0.0,0.0,0.0,0.0,0.0,0.0,0.0,0.0,0.0,0.0,0.0,0.0,0.0,0.0,0.0,0.0,0.0,0.0,0.0,0.0,0.0,0.0,0.0,0.0,0.0,0.0,0.0,0.0,0.0,0.0,0.0,0.0,0.0,0.0,0.0,0.0,0.0,0.0,0.0,0.0,0.0,0.0,0.0,0.0,-5.0305,-5.1121,-5.1773,-5.2136,-5.2526,-5.3048,-5.3497,-5.383,-5.4108,-5.5171,0.0,0.0,0.0,0.0,0.0,0.0,0.0,0.0,0.0,0.0,0.0,0.0,0.0,0.0,0.0,0.0,0.0,0.0,0.0,0.0,0.0,0.0,0.0,0.0,0.0,0.0,0.0,0.0,0.0,0.0,0.0,0.0,0.0,0.0,0.0,0.0,0.0,0.0,0.0,0.0,0.0,0.0,0.0,0.0,0.0,0.0,0.0,0.0,0.0,0.0,0.0,0.0,0.0,0.0,0.0,0.0,0.0,0.0,0.0,0.0,0.0,0.0,0.0,0.0,0.0,0.0,0.0,0.0,0.0,0.0,0.0,0.0,0.0,0.0,0.0,0.0,0.0,0.0,0.0,0.0,0.0,0.0,0.0,0.0,0.0,0.0,0.0,0.0,0.0,0.0,0.0,0.0,0.0,0.0,0.0,0.0,0.0,0.0,0.0,0.0,0.0,0.0,-5.0779,-5.1803,-5.3094,-5.2962,-5.3171,-5.4248,-5.3972,-5.4249,-5.5407,0.0,0.0,0.0,0.0,0.0,0.0,0.0,0.0,0.0,0.0,0.0,0.0,0.0,0.0,0.0,0.0,0.0,0.0,0.0,0.0,0.0,0.0,0.0,0.0,0.0,0.0,0.0,0.0,0.0,0.0,0.0,0.0,0.0,0.0,0.0,0.0,0.0,0.0,0.0,0.0,0.0,0.0,0.0,0.0,0.0,0.0,0.0,0.0,0.0,0.0,0.0,0.0,0.0,0.0,0.0,0.0,0.0,0.0,0.0,0.0,0.0,0.0,0.0,0.0,0.0,0.0,0.0,0.0,0.0,0.0,0.0,0.0,0.0,0.0,0.0,0.0,0.0,0.0,0.0,0.0,0.0,0.0,0.0,0.0,0.0,0.0,0.0,0.0,0.0,0.0,0.0,0.0,0.0,0.0,0.0,0.0,0.0,0.0,0.0,0.0,0.0,0.0,-5.0665,-5.1665,-5.2665,-5.3868,-5.3766,-5.4032,-5.4942,-5.457,-5.4868,-5.6146,0.0,0.0,0.0,0.0,0.0,0.0,0.0,0.0,0.0,0.0,0.0,0.0,0.0,0.0,0.0,0.0,0.0,0.0,0.0,0.0,0.0,0.0,0.0,0.0,0.0,0.0,0.0,0.0,0.0,0.0,0.0,0.0,0.0,0.0,0.0,0.0,0.0,0.0,0.0,0.0,0.0,0.0,0.0,0.0,0.0,0.0,0.0,0.0,0.0,0.0,0.0,0.0,0.0,0.0,0.0,0.0,0.0,0.0,0.0,0.0,0.0,0.0,0.0,0.0,0.0,0.0,0.0,0.0,0.0,0.0,0.0,0.0,0.0,0.0,0.0,0.0,0.0,0.0,0.0,0.0,0.0,0.0,0.0,0.0,0.0,0.0,0.0,0.0,0.0,0.0,0.0,0.0,0.0,0.0,0.0,0.0,0.0,0.0,0.0,0.0,0.0,0.0,-5.1575,-5.2883,-5.3793,-5.4014,-5.4621,-5.5041,-5.5041,-5.5411,-5.5779,0.0,0.0,0.0,0.0,0.0,0.0,0.0,0.0,0.0,0.0,0.0,0.0,0.0,0.0,0.0,0.0,0.0,0.0,0.0,0.0,0.0,0.0,0.0,0.0,0.0,0.0,0.0,0.0,0.0,0.0,0.0,0.0,0.0,0.0,0.0,0.0,0.0,0.0,0.0,0.0,0.0,0.0,0.0,0.0,0.0,0.0,0.0,0.0,0.0,0.0,0.0,0.0,0.0,0.0,0.0,0.0,0.0,0.0,0.0,0.0,0.0,0.0,0.0,0.0,0.0,0.0,0.0,0.0,0.0,0.0,0.0,0.0,0.0,0.0,0.0,0.0,0.0,0.0,0.0,0.0,0.0,0.0,0.0,0.0,0.0,0.0,0.0,0.0,0.0,0.0,0.0,0.0,0.0,0.0,0.0,0.0,0.0,0.0,0.0,0.0,0.0,0.0,0.0,-5.2557,-5.3572,-5.446,-5.5324,-5.5428,-5.5558,-5.5852,-5.5926,-5.6116,-5.6433,0.0,0.0,0.0,0.0,0.0,0.0,0.0,0.0,0.0,0.0,0.0,0.0,0.0,0.0,0.0,0.0,0.0,0.0,0.0,0.0,0.0,0.0,0.0,0.0,0.0,0.0,0.0,0.0,0.0,0.0,0.0,0.0,0.0,0.0,0.0,0.0,0.0,0.0,0.0,0.0,0.0,0.0,0.0,0.0,0.0,0.0,0.0,0.0,0.0,0.0,0.0,0.0,0.0,0.0,0.0,0.0,0.0,0.0,0.0,0.0,0.0,0.0,0.0,0.0,0.0,0.0,0.0,0.0,0.0,0.0,0.0,0.0,0.0,0.0,0.0,0.0,0.0,0.0,0.0,0.0,0.0,0.0,0.0,0.0,0.0,0.0,0.0,0.0,0.0,0.0,0.0,0.0,0.0,0.0,0.0,0.0,0.0,0.0,0.0,0.0,0.0,0.0,-5.3237,-5.4355,-5.5325,-5.6147,-5.6229,-5.6438,-5.6656,-5.6656,-5.6764,-5.6958,0.0,0.0,0.0,0.0,0.0,0.0,0.0,0.0,0.0,0.0,0.0,0.0,0.0,0.0,0.0,0.0,0.0,0.0,0.0,0.0,0.0,0.0,0.0,0.0,0.0,0.0,0.0,0.0,0.0,0.0,0.0,0.0,0.0,0.0,0.0,0.0,0.0,0.0,0.0,0.0,0.0,0.0,0.0,0.0,0.0,0.0,0.0,0.0,0.0,0.0,0.0,0.0,0.0,0.0,0.0,0.0,0.0,0.0,0.0,0.0,0.0,0.0,0.0,0.0,0.0,0.0,0.0,0.0,0.0,0.0,0.0,0.0,0.0,0.0,0.0,0.0,0.0,0.0,0.0,0.0,0.0,0.0,0.0,0.0,0.0,0.0,0.0,0.0,0.0,0.0,0.0,0.0,0.0,0.0,0.0,0.0,0.0,0.0,0.0,0.0,0.0,0.0,-5.3775,-5.5261,-5.6338,-5.6656,-5.7149,-5.7456,-5.7456,-5.7528,-5.7532,-5.759,0.0,0.0,0.0,0.0,0.0,0.0,0.0,0.0,0.0,0.0,0.0,0.0,0.0,0.0,0.0,0.0,0.0,0.0,0.0,0.0,0.0,0.0,0.0,0.0,0.0,0.0,0.0,0.0,0.0,0.0,0.0,0.0,0.0,0.0,0.0,0.0,0.0,0.0,0.0,0.0,0.0,0.0,0.0,0.0,0.0,0.0,0.0,0.0,0.0,0.0,0.0,0.0,0.0,0.0,0.0,0.0,0.0,0.0,0.0,0.0,-3.5797,0.0,0.0,0.0,0.0,0.0,0.0,0.0,0.0,0.0,0.0,0.0,0.0,0.0,0.0,0.0,0.0,0.0,0.0,0.0,0.0,0.0,0.0,0.0,0.0,0.0,0.0,0.0,0.0,0.0,0.0,0.0,0.0,0.0,0.0,0.0,0.0,0.0,0.0,0.0,0.0,0.0,-5.52,-5.5865,-5.6718,-5.8166,-5.8161,-5.7994,-5.7994,-5.8311,-5.8232,-5.7616,-5.7568,0.0,0.0,0.0,0.0,0.0,0.0,0.0,0.0,0.0,0.0,0.0,0.0,0.0,0.0,0.0,0.0,0.0,0.0,0.0,0.0,0.0,0.0,0.0,0.0,0.0,0.0,0.0,0.0,0.0,0.0,0.0,0.0,0.0,0.0,0.0,0.0,0.0,0.0,0.0,0.0,0.0,0.0,0.0,0.0,0.0,0.0,0.0,0.0,0.0,0.0,0.0,0.0,0.0,0.0,0.0,0.0,0.0,0.0,0.0,0.0,-3.5977,0.0,0.0,0.0,0.0,0.0,0.0,0.0,0.0,0.0,0.0,0.0,0.0,0.0,0.0,0.0,0.0,0.0,0.0,0.0,0.0,0.0,0.0,0.0,0.0,0.0,0.0,0.0,0.0,0.0,0.0,0.0,0.0,0.0,0.0,0.0,0.0,0.0,0.0,0.0,0.0,-5.5726,-5.6226,-5.7172,-5.8889,-5.8926,-5.8782,-5.8782,-5.9117,-5.8979,-5.8174,-5.8381,0.0,0.0,0.0,0.0,0.0,0.0,0.0,0.0,0.0,0.0,0.0,0.0,0.0,0.0,0.0,0.0,0.0,0.0,0.0,0.0,0.0,0.0,0.0,0.0,0.0,0.0,0.0,0.0,0.0,0.0,0.0,0.0,0.0,0.0,0.0,0.0,0.0,0.0,0.0,0.0,0.0,0.0,0.0,0.0,0.0,0.0,0.0,0.0,0.0,0.0,0.0,0.0,0.0,-3.774,-3.7514,-3.7422,-3.7156,-3.7267,-3.7717,-3.6864,-3.634,-3.6193,-3.6705,0.0,0.0,0.0,0.0,0.0,0.0,0.0,0.0,0.0,0.0,0.0,0.0,0.0,0.0,0.0,0.0,0.0,0.0,0.0,0.0,0.0,0.0,0.0,0.0,-5.4431,-5.459,0.0,0.0,0.0,0.0,0.0,0.0,0.0,0.0,0.0,0.0,0.0,0.0,-5.5909,-5.6588,-5.7608,-5.9333,-5.9516,-5.9516,-5.9516,-5.9876,-5.9704,-5.8886,-5.9139,-5.8995,0.0,0.0,0.0,0.0,0.0,0.0,0.0,0.0,0.0,0.0,0.0,0.0,0.0,0.0,0.0,0.0,0.0,0.0,0.0,0.0,0.0,0.0,0.0,0.0,0.0,0.0,0.0,0.0,0.0,0.0,0.0,0.0,-3.2318,-3.3063,0.0,0.0,0.0,0.0,0.0,0.0,0.0,0.0,0.0,0.0,0.0,0.0,0.0,-3.9696,-3.9179,-3.9377,-3.9024,-3.8117,-3.8445,-3.8269,-3.7729,-3.7729,-3.7727,-3.7896,-3.772,0.0,-3.8024,-3.7644,0.0,0.0,0.0,0.0,0.0,0.0,0.0,0.0,0.0,0.0,0.0,0.0,0.0,0.0,0.0,0.0,0.0,0.0,0.0,0.0,0.0,0.0,-5.313,-5.4559,-5.6197,-5.7423,0.0,-5.6263,-5.4922,-5.4416,-5.4256,0.0,0.0,0.0,0.0,0.0,0.0,0.0,-5.6536,-5.719,-5.8209,-5.9934,-6.0117,-6.0117,-6.0117,-6.048,-6.0339,-5.9525,-5.938,-5.9372,-5.9643,-5.8639,0.0,0.0,0.0,0.0,0.0,0.0,0.0,0.0,0.0,0.0,0.0,0.0,0.0,0.0,0.0,0.0,0.0,0.0,0.0,0.0,0.0,0.0,0.0,0.0,0.0,0.0,0.0,0.0,0.0,-3.3056,-3.3269,-3.3677,-3.3685,-3.3905,0.0,0.0,0.0,0.0,0.0,0.0,0.0,0.0,0.0,-4.1205,-4.1121,-4.0773,-4.0071,-3.978,-3.9417,-3.8869,-3.8702,-3.8588,-3.8529,-3.855,-3.8759,-3.9023,-3.9244,-3.9439,-3.9545,-3.8738,-3.8547,-3.8644,0.0,0.0,0.0,0.0,-4.2144,-4.2583,-4.4025,-4.4734,0.0,-4.5846,0.0,0.0,0.0,0.0,0.0,0.0,0.0,0.0,0.0,0.0,0.0,-5.6154,-5.7315,-5.8164,-5.8479,-5.7865,-5.7064,0.0,-5.6181,-5.5939,-5.5939,0.0,0.0,0.0,0.0,-5.6703,-5.7456,-5.7851,-5.8464,-5.9594,-5.9751,-5.9751,-5.9751,-6.0086,-6.0101,-5.9631,-5.9728,-5.9872,-5.9914,-5.9371,-5.8973,0.0,0.0,0.0,0.0,0.0,0.0,0.0,0.0,0.0,0.0,0.0,0.0,0.0,0.0,0.0,0.0,0.0,0.0,0.0,0.0,0.0,0.0,0.0,0.0,0.0,0.0,0.0,0.0,-3.4185,-3.448,-3.4583,-3.4933,-3.5342,0.0,0.0,0.0,0.0,0.0,0.0,-4.1875,-4.2519,-4.264,-4.2052,-4.1932,-4.1556,-4.0826,-4.018,-3.9836,-3.968,-3.9161,-3.9174,-3.9639,-3.9662,-3.9908,-4.0341,-4.0718,-4.0923,-4.1068,-3.9988,-3.9637,-3.9774,-4.0682,-4.1167,-4.1602,-4.2991,-4.3804,-4.4389,-4.5655,-4.6398,-4.6936,-4.7686,0.0,-4.8874,-4.842,0.0,0.0,0.0,0.0,-5.1169,-5.3114,-5.4302,-5.5429,-5.7337,-5.8114,-5.8497,-5.8817,-5.8955,-5.8746,0.0,-5.7671,-5.7374,-5.7504,0.0,0.0,0.0,0.0,-5.7757,-5.8154,-5.8322,-5.8684,-5.9326,-5.9359,-5.9359,-5.9359,-5.9718,-5.9739,-5.9465,-5.9857,-5.9989,-5.9995,-5.9833,-5.9438,-5.8707,0.0,0.0,0.0,0.0,0.0,0.0,0.0,0.0,0.0,0.0,0.0,0.0,0.0,0.0,0.0,0.0,0.0,0.0,0.0,0.0,0.0,0.0,0.0,0.0,0.0,0.0,0.0,0.0,0.0,-3.6246,-3.6599,0.0,0.0,0.0,0.0,-4.0845,-4.2019,-4.2806,-4.3103,-4.3187,-4.2987,-4.2683,-4.2056,-4.1523,-4.1072,-4.0435,-4.0139,-4.0249,-4.0197,-4.0521,-4.0982,-4.1002,-4.1263,-4.159,-4.159,-4.2043,-4.2658,-4.1457,-4.114,-4.1534,-4.1967,-4.2757,-4.3867,-4.5088,-4.6045,-4.6864,-4.8071,-4.8484,-4.8717,-4.9959,-5.0543,-5.0818,-5.0474,-5.022,0.0,0.0,-5.0955,-5.2073,-5.3554,-5.4925,-5.6238,-5.7762,-5.8639,-5.9131,-5.9455,-5.9525,-5.9248,0.0,-5.7783,-5.7918,-5.8255,0.0,-5.8295,-5.8349,-5.8833,-5.8963,-5.826,-5.8692,-5.9131,-5.9379,-5.9359,-5.9359,-5.9359,-5.9718,-5.9695,-5.914,-5.9438,-5.9761,-6.015,-5.9612,-5.9224,-5.8964,-5.8762,0.0,0.0,0.0,0.0,0.0,0.0,0.0,0.0,0.0,0.0,0.0,0.0,0.0,0.0,0.0,0.0,0.0,0.0,0.0,0.0,0.0,0.0,0.0,0.0,0.0,0.0,0.0,0.0,-3.7133,-3.756,0.0,-3.8678,-3.973,-4.0944,-4.2326,-4.3144,-4.3832,-4.4232,-4.4328,-4.4046,-4.3264,-4.2642,-4.2082,-4.1542,-4.0871,-4.0625,-4.0759,-4.1036,-4.1312,-4.1485,-4.2144,-4.2507,-4.2648,-4.3473,-4.3983,-4.4271,-4.4363,-4.3751,-4.2876,-4.3239,-4.3745,-4.4529,-4.5783,-4.6822,-4.7933,-4.9226,-5.0032,-5.0649,-5.1677,-5.225,-5.2509,-5.2392,-5.2235,-5.2238,-5.277,-5.3174,-5.3724,-5.526,-5.5975,-5.6519,-5.7461,-5.7869,-5.8025,-5.8167,-5.8167,-5.8037,-5.7622,-5.7999,-5.8289,-5.8079,-5.7998,-5.8132,-5.8547,-5.8814,-5.8876,-5.8788,-5.8956,-5.9026,-5.8855,-5.881,-5.881,-5.881,-5.8953,-5.9016,-5.9114,-5.9228,-5.9438,-5.9787,-5.9475,-5.9089,-5.859,-5.8367,-5.8096,0.0,0.0,0.0,0.0,0.0,0.0,0.0,0.0,0.0,0.0,0.0,0.0,0.0,0.0,0.0,0.0,0.0,0.0,0.0,0.0,0.0,0.0,0.0,0.0,0.0,0.0,-3.8464,-3.8688,-3.9533,-4.0334,-4.0864,-4.165,-4.2668,-4.401,-4.4439,-4.4853,-4.5207,-4.5112,-4.4713,-4.3859,-4.3016,-4.245,-4.2134,-4.1444,-4.1338,-4.19,-4.2174,-4.247,-4.2871,-4.3461,-4.3824,-4.398,-4.4836,-4.5352,-4.5664,-4.623,-4.5812,-4.49,-4.4974,-4.5418,-4.6102,-4.722,-4.8305,-4.9338,-5.0526,-5.156,-5.2357,-5.3059,-5.3592,-5.3881,-5.3881,-5.3796,-5.3732,-5.4223,-5.4426,-5.4867,-5.5994,-5.6437,-5.6662,-5.7251,-5.7379,-5.7379,-5.7379,-5.7379,-5.7379,-5.7379,-5.783,-5.821,-5.8048,-5.8038,-5.8239,-5.8913,-5.8966,-5.9057,-5.9105,-5.9114,-5.8947,-5.8523,-5.8523,-5.8523,-5.8523,-5.8523,-5.8515,-5.8613,-5.8657,-5.8718,-5.8854,-5.8758,-5.8413,-5.7933,-5.774,-5.7407,-5.7067,0.0,0.0,0.0,0.0,0.0,0.0,0.0,0.0,0.0,0.0,0.0,0.0,0.0,0.0,0.0,0.0,0.0,0.0,0.0,0.0,0.0,0.0,0.0,-3.7542,-3.9107,-4.053,-4.0839,-4.2386,-4.3568,-4.394,-4.4384,-4.5029,-4.6031,-4.5932,-4.5883,-4.6117,-4.5392,-4.4853,-4.4476,-4.3103,-4.2483,-4.272,-4.2042,-4.229,-4.3615,-4.3635,-4.4132,-4.5002,-4.5002,-4.5237,-4.5628,-4.5649,-4.6117,-4.6915,-4.6992,-4.7223,-4.7531,-4.7125,-4.7619,-4.8838,-4.9593,-5.0439,-5.1279,-5.2112,-5.2937,-5.3717,-5.4059,-5.4521,-5.4837,-5.4837,-5.4752,-5.4541,-5.4185,-5.4541,-5.5259,-5.5863,-5.6275,-5.6616,-5.7251,-5.7379,-5.7379,-5.7379,-5.7379,-5.7379,-5.7379,-5.7379,-5.7595,-5.831,-5.8452,-5.8735,-5.9438,-5.9578,0.0,-5.9088,-5.9114,-5.8947,-5.8523,-5.8523,-5.8523,-5.8523,-5.8497,-5.8261,-5.7686,-5.7634,-5.7538,-5.7399,-5.7372,-5.7259,-5.6984,-5.6754,-5.6386,-5.5794,0.0,0.0,0.0,0.0,0.0,0.0,0.0,0.0,0.0,0.0,0.0,0.0,0.0,0.0,0.0,0.0,0.0,0.0,0.0,0.0,0.0,0.0,-4.014,-4.0181,-4.1322,-4.2397,-4.2977,-4.3909,-4.4594,-4.4984,-4.5381,-4.5906,-4.6427,-4.6427,-4.6155,-4.5744,-4.5517,-4.5019,-4.4164,-4.3445,-4.2941,-4.272,-4.293,-4.3242,-4.3615,-4.4298,-4.4909,-4.5472,-4.5807,-4.619,-4.6563,-4.7239,-4.7727,-4.7964,-4.82,-4.8593,-4.884,-4.8036,-4.8132,-4.8861,-5.0079,-5.1431,-5.274,-5.3165,-5.3932,-5.4647,-5.4721,-5.5237,-5.5847,-5.5847,-5.5794,-5.5767,-5.5622,-5.5767,-5.5937,-5.6088,-5.6186,-5.6309,-5.646,-5.651,-5.651,-5.651,-5.651,-5.651,-5.651,-5.651,-5.6801,-5.7595,-5.7856,-5.8141,-5.8355,-5.8638,0.0,-5.8664,-5.8664,-5.8594,-5.8523,-5.8523,-5.8381,-5.807,-5.7707,-5.7325,-5.6862,-5.6475,-5.6331,-5.6548,-5.6405,-5.6288,-5.6371,-5.6277,-5.6099,0.0,0.0,0.0,0.0,0.0,0.0,0.0,0.0,0.0,0.0,0.0,0.0,0.0,0.0,0.0,0.0,0.0,0.0,0.0,0.0,0.0,0.0,-4.0865,-4.2365,-4.3028,-4.3632,-4.4202,-4.4958,-4.5699,-4.6364,-4.6665,-4.691,-4.712,-4.727,-4.6922,-4.6497,-4.6109,-4.5432,-4.4907,-4.439,-4.3485,-4.3141,-4.3299,-4.3523,-4.3905,-4.4484,-4.5022,-4.5612,-4.6216,-4.6489,-4.6913,0.0,-4.8064,-4.8432,-4.8591,-4.8986,-4.9302,0.0,0.0,0.0,0.0,0.0,-5.2429,-5.3569,-5.4011,-5.4536,-5.5185,-5.5556,-5.6079,-5.6624,-5.6547,-5.657,-5.652,-5.6269,-5.6219,-5.6219,-5.6219,-5.6219,-5.6219,-5.6219,-5.6219,-5.6219,-5.6219,-5.6219,-5.6219,-5.6219,-5.6219,0.0,-5.6801,-5.7235,-5.7569,-5.7856,-5.807,-5.8284,-5.8452,-5.8523,-5.8523,-5.8523,-5.8381,-5.8037,-5.7591,-5.6997,0.0,0.0,0.0,-5.5201,-5.5546,-5.5388,0.0,0.0,0.0,-5.5841,-5.5717,0.0,0.0,0.0,-5.5238,-5.5108,0.0,0.0,0.0,0.0,0.0,0.0,0.0,0.0,0.0,0.0,0.0,0.0,0.0,0.0,0.0,0.0,-4.2729,-4.4671,-4.5757,-4.5821,-4.6093,-4.6899,-4.7644,-4.8289,-4.8567,-4.8407,-4.8302,-4.8238,-4.7386,-4.6713,-4.6549,0.0,0.0,0.0,0.0,-4.333,-4.4201,-4.3989,-4.4484,-4.5847,-4.5889,-4.648,-4.7403,-4.7403,-4.7885,-4.8663,-4.8598,-4.8814,-4.9131,-4.9482,-4.9639,-4.9762,-4.9718,-5.05,-5.1763,-5.2858,-5.3541,-5.3991,-5.4596,0.0,0.0,-5.6415,-5.7019,-5.7299,-5.7124,-5.7123,-5.7022,-5.6545,-5.6344,-5.6294,-5.6294,-5.6269,-5.6219,-5.6219,-5.6219,-5.6219,-5.6219,-5.6219,-5.6219,-5.6219,-5.6219,-5.6219,-5.6219,-5.651,-5.7019,-5.7641,-5.7784,-5.7999,-5.831,-5.8381,-5.8381,-5.8381,0.0,0.0,-5.6984,-5.6244,-5.5335,-5.4132,-5.405,-5.4141,-5.4309,-5.4443,-5.4645,-5.5032,-5.5339,-5.5538,-5.5604,-5.5418,-5.6103,-5.7461,-5.6168,-5.5916,0.0,0.0,0.0,0.0,0.0,0.0,0.0,0.0,0.0,0.0,0.0,0.0,0.0,0.0,0.0,-4.2448,-4.4365,-4.6081,-4.6996,-4.7873,-4.8451,-4.8639,-4.8803,-4.9007,-4.9332,-4.8729,-4.8174,-4.7829,-4.6867,-4.5996,-4.5342,-4.4709,-4.4276,-4.4052,-4.3952,-4.4004,-4.4201,-4.4946,-4.574,-4.6765,0.0,0.0,-4.9741,-4.9741,-5.0227,-5.101,-5.0609,-5.0431,-5.0488,-5.0165,-5.0703,-5.1624,-5.1236,-5.187,-5.3092,-5.3631,-5.409,-5.462,-5.5456,-5.6033,-5.644,-5.6995,-5.7423,-5.7801,-5.7775,-5.7725,0.0,-5.76,-5.7223,-5.6872,-5.6872,-5.6545,-5.6219,-5.6219,-5.6219,-5.6219,-5.6219,-5.6219,-5.6219,-5.6219,-5.6219,-5.6219,-5.6219,-5.651,-5.6874,-5.7019,-5.7307,-5.7523,-5.7595,-5.7595,-5.7595,-5.7595,-5.7523,-5.7005,-5.5872,-5.5203,-5.4152,-5.2561,-5.2585,-5.2842,-5.3222,-5.4013,-5.4511,-5.4645,-5.5006,-5.5365,-5.5604,-5.604,-5.6704,-5.7488,-5.6774,-5.7185,0.0,0.0,0.0,0.0,0.0,0.0,0.0,0.0,0.0,0.0,0.0,-3.9438,0.0,0.0,-4.265,-4.3668,-4.539,-4.6848,-4.7608,-4.8573,-4.9199,-4.9346,-4.9332,-4.9332,-4.9332,-4.8759,-4.8068,-4.7351,-4.6494,-4.5812,-4.5256,-4.4712,-4.4479,-4.4546,-4.4527,-4.474,-4.5274,-4.5744,-4.659,-4.7664,-4.7895,-4.8887,-5.043,-5.043,-5.0918,-5.1702,-5.1455,-5.1129,-5.0882,-5.1086,-5.1895,-5.2881,-5.3016,-5.3552,-5.4176,-5.4539,-5.4847,-5.515,-5.6066,-5.6724,-5.7158,-5.7891,-5.8374,-5.8654,-5.8378,-5.8303,-5.8252,-5.7976,-5.7474,-5.7022,-5.7022,-5.662,-5.6219,-5.6219,-5.6219,-5.6219,-5.6219,-5.6219,-5.6219,-5.6219,-5.6219,-5.6219,-5.6219,-5.6365,-5.6583,-5.6801,-5.6946,-5.7163,-5.7379,-5.7379,-5.7379,-5.7379,-5.7235,-5.6543,-5.511,-5.3715,-5.2555,-5.1625,-5.1873,-5.2352,-5.2879,-5.3632,-5.4174,-5.4511,-5.4712,-5.5006,-5.5365,-5.5917,-5.6742,-5.7678,-5.7732,-5.8389,0.0,0.0,0.0,0.0,0.0,0.0,0.0,-4.026,-4.0312,-4.0636,-4.1072,-4.1638,-4.2445,-4.3299,-4.4122,-4.4724,-4.6284,-4.7554,-4.8007,-4.8825,-4.947,-4.9604,-4.9525,-4.9396,-4.9202,-4.8592,-4.7828,-4.7017,-4.6165,-4.5622,-4.5447,-4.487,-4.4767,-4.5287,-4.5251,-4.5586,-4.6471,-4.6656,-4.7358,-4.867,-4.8836,-4.9621,-5.0938,-5.102,-5.1508,-5.2236,-5.2146,-5.1763,-5.1301,-5.2179,-5.3005,-5.3928,-5.4673,-5.5081,-5.523,-5.5446,-5.5554,-5.5703,-5.6702,-5.7364,-5.7826,-5.8738,-5.9276,-5.9408,-5.9006,-5.888,-5.8755,-5.8202,-5.765,-5.7173,-5.7072,-5.662,-5.6219,-5.6219,-5.6219,-5.6219,-5.6219,-5.6219,-5.6219,-5.6219,-5.6219,-5.6219,-5.6219,-5.6219,-5.6292,-5.6656,-5.6656,-5.6801,-5.7091,-5.7163,-5.7163,-5.7163,-5.6874,-5.6107,-5.4741,-5.2629,-5.1382,-5.1428,-5.1705,-5.2074,-5.2742,-5.3316,-5.3861,-5.4376,-5.4511,-5.4805,-5.5099,-5.5647,-5.6551,-5.7771,-5.8316,-5.9153,-4.2982,-4.2537,-4.2018,-4.1558,-4.1528,-4.1626,0.0,-4.2072,-4.2381,-4.2956,-4.3059,-4.3375,-4.4062,-4.4561,-4.5156,-4.5945,-4.7374,-4.8379,-4.8342,-4.928,-4.9925,-4.9654,-4.9332,-4.9267,-4.9525,-4.8067,-4.7064,-4.7085,-4.5851,-4.5162,-4.5231,-4.4922,-4.5006,-4.5475,-4.5903,-4.6389,-4.6947,-4.7774,-4.8628,-4.9572,-5.0404,-5.1532,-5.2839,-5.3191,-5.3683,-5.4046,-5.3634,-5.3141,-5.2658,-5.3177,-5.3959,-5.4758,-5.5312,-5.6025,-5.6701,-5.6245,-5.6131,-5.6281,-5.7702,-5.8212,-5.8369,-5.9173,-5.9483,-5.9483,-5.9433,-5.9408,-5.9307,-5.878,-5.8227,-5.7675,-5.7173,-5.662,-5.6219,-5.6219,-5.6219,-5.6219,-5.6219,-5.6219,-5.6219,-5.6219,-5.6219,-5.6219,-5.6219,-5.6219,-5.6219,-5.6292,-5.6292,-5.6292,-5.6365,-5.6365,-5.6365,-5.6365,-5.6292,-5.5895,-5.4835,-5.3052,-5.2059,-5.2413,-5.2042,-5.198,-5.2421,-5.3384,-5.3997,-5.4064,-5.4671,-5.5032,-5.5099,-5.5647,-5.6273,-5.7091,-5.7703,-5.8966,-4.3154,-4.2996,-4.2751,-4.2631,-4.3045,-4.3387,-4.3138,-4.3738,-4.4325,-4.456,-4.5119,-4.566,-4.5988,-4.6581,-4.7187,0.0,-4.837,-4.9086,-4.9234,-4.9443,-4.9596,-4.9629,-4.8747,-4.8289,-4.8616,-4.7671,-4.6787,-4.6197,-4.5505,-4.5194,-4.5326,-4.5486,-4.5791,-4.6305,-4.68,-4.7423,-4.8233,-4.8588,-4.951,-5.0963,-5.1297,-5.2238,-5.3513,-5.3701,-5.4029,-5.4393,-5.413,-5.3909,-5.3752,-5.4437,-5.4926,-5.5366,-5.6073,-5.6804,-5.7314,-5.6835,-5.6842,-5.7103,-5.7976,-5.8443,-5.8731,-5.9353,-5.9483,-5.9483,-5.9483,-5.9282,-5.9006,-5.878,-5.8077,-5.7349,-5.7097,-5.662,-5.6219,-5.6219,-5.6219,-5.6219,-5.6219,-5.6219,-5.6219,-5.6219,-5.6219,-5.6146,-5.5926,-5.5852,-5.5779,-5.5558,-5.5926,-5.6219,-5.6219,-5.6219,-5.6219,-5.6219,-5.5699,-5.5206,-5.4837,-5.3564,-5.2759,-5.2583,-5.2597,-5.2536,-5.2377,-5.3247,-5.3793,-5.3997,-5.4469,-5.4872,-5.5099,-5.5647,-5.6247,-5.7011,-5.7623,-5.859,-4.3574,-4.378,-4.3868,-4.3936,-4.4622,-4.5233,-4.4841,-4.5482,-4.6236,-4.6144,-4.6677,-4.7129,-4.7252,-4.7825,-4.8288,-4.8472,-4.9071,-4.9528,-4.9629,-4.9368,-4.9113,-4.9023,-4.8081,-4.7356,-4.7289,-4.6878,-4.6381,-4.5856,-4.5471,-4.5447,-4.58,-4.6179,-4.6643,-4.7294,-4.7796,-4.8442,-4.9259,-4.968,-5.0501,-5.1831,-5.2187,-5.2852,-5.3783,-5.3947,-5.4193,-5.4556,-5.4511,-5.46,-5.4724,-5.5502,-5.5795,-5.5881,-5.6804,-5.7339,-5.7552,-5.7248,-5.7255,-5.757,-5.8065,-5.8356,-5.8517,-5.8902,-5.9056,-5.9056,-5.9056,-5.8805,-5.8453,-5.8303,-5.7675,-5.6997,-5.6846,-5.652,-5.6219,-5.6219,-5.6219,-5.6219,-5.6219,-5.6219,-5.6219,-5.6219,-5.6146,-5.5926,-5.5632,-5.5411,-5.5115,-5.4696,-5.5016,-5.5433,-5.5827,-5.5999,-5.6072,-5.6072,-5.5576,-5.5181,-5.5181,-5.4442,-5.3802,-5.3406,-5.347,-5.3383,-5.2973,-5.3569,-5.3946,-5.4106,-5.4511,-5.4805,-5.5099,-5.5491,-5.601,-5.6638,-5.713,-5.7745,-4.4381,-4.4907,-4.5459,-4.5528,-4.619,-4.6908,-4.7074,-4.759,-4.7972,-4.7831,-4.7456,-4.7191,-4.7531,-4.7592,-4.786,-4.8489,-4.9271,-4.968,-4.9241,-4.9124,-4.8632,-4.7696,-4.7302,-4.6701,0.0,-4.5503,-4.5808,-4.6441,-4.5779,-4.5843,-4.6804,-4.6849,-4.7336,-4.8356,-4.8776,-4.9259,-4.9721,-5.1054,-5.1747,-5.1831,-5.3101,-5.3783,-5.3783,-5.4171,-5.4661,-5.5067,-5.5044,-5.5249,-5.5621,-5.6144,-5.6311,-5.6275,-5.72,-5.7552,-5.7582,-5.7438,-5.7397,-5.7475,-5.7963,-5.7692,-5.7297,-5.78,-5.7951,-5.7951,-5.7951,-5.7926,-5.7801,-5.7248,-5.7072,-5.6922,-5.6369,-5.6219,-5.6219,-5.6219,-5.6219,-5.6219,-5.6219,-5.6219,-5.6219,-5.6219,-5.5926,-5.5632,-5.5632,-5.4942,-5.4325,-5.3814,-5.3422,-5.3616,-5.4893,-5.5411,-5.5632,-5.5632,-5.5974,-5.6194,-5.6194,-5.5691,-5.5365,-5.534,-5.4838,-5.4426,-5.4246,-5.461,-5.4672,-5.4511,-5.4872,-5.5099,-5.5099,-5.5125,-5.5325,-5.5631,-5.5961,-5.6382,-4.5346,-4.5763,-4.6222,-4.6906,-4.7559,-4.798,-4.7794,-4.8538,-4.9095,-4.8586,-4.8523,-4.8522,-4.8621,-4.9055,-4.9389,-4.9415,-5.0095,-5.0395,-4.957,-4.8794,-4.8189,-4.7686,-4.6448,0.0,0.0,0.0,0.0,-4.5757,-4.6129,-4.6559,-4.687,-4.7525,-4.815,-4.8881,-4.928,-4.9998,-5.1076,-5.158,-5.227,-5.3101,-5.3842,-5.4334,-5.4661,-5.4824,-5.4986,-5.5149,-5.5368,-5.5597,-5.5697,-5.623,-5.6526,-5.678,-5.7345,-5.7813,-5.8104,-5.8299,-5.8089,-5.7697,-5.7545,-5.7573,-5.765,-5.7826,-5.7901,-5.7901,-5.7901,-5.7625,-5.7273,-5.7097,-5.6771,-5.6445,-5.6269,-5.6219,-5.6219,-5.6219,-5.6219,-5.6219,-5.6219,-5.5999,-5.5779,-5.5779,-5.5485,-5.5041,-5.4496,-5.3683,-5.2655,-5.1389,-5.1985,-5.2839,-5.3666,-5.4132,-5.4549,-5.5115,-5.5533,-5.5926,-5.6219,-5.6043,-5.5767,-5.5415,-5.5214,-5.4758,-5.3967,-5.4472,-5.4629,-5.42,-5.4738,-5.5099,-5.5099,-5.5099,-5.5299,-5.5604,-5.5736,-5.5934,-4.625,-4.6807,-4.7301,-4.7925,-4.8674,-4.9132,-4.8798,-4.9311,-4.9723,-4.919,-4.8989,-4.8937,-4.9087,-4.9585,-4.9894,-4.9672,-5.0253,-5.0359,-4.9371,-4.8345,-4.7456,-4.6792,-4.5862,-4.5361,0.0,0.0,0.0,-4.5882,-4.6538,-4.7122,-4.7706,-4.8317,-4.8965,-4.9554,-5.0019,-5.076,-5.1747,-5.2081,-5.2852,-5.4029,-5.4416,-5.4824,-5.5067,-5.5067,-5.5149,-5.5311,-5.5473,-5.5634,-5.5956,-5.6301,-5.6622,-5.6997,-5.7255,-5.7721,-5.8315,-5.8285,-5.8174,-5.7901,-5.7574,-5.74,-5.7298,-5.7298,-5.7298,-5.7298,-5.7447,-5.7269,-5.6967,-5.7114,-5.6861,-5.6583,-5.6438,-5.6438,-5.6365,-5.6072,-5.5999,-5.5926,-5.5779,-5.5558,-5.5336,-5.5138,-5.4672,-5.4105,-5.3367,-5.2146,-5.0806,-4.9439,-4.9952,-5.0901,-5.2054,-5.2932,-5.3691,-5.4253,-5.5066,-5.5705,-5.5999,-5.6146,-5.6068,-5.5691,-5.5491,-5.5035,-5.427,-5.4599,-5.4629,-5.42,-5.4831,-5.5099,-5.5099,-5.5099,-5.5232,-5.5405,-5.5327,-5.5525,-4.7017,-4.7933,-4.8632,-4.8626,-4.9471,-5.0168,-4.9908,-5.0002,-5.004,-4.9694,-4.9002,-4.8553,-4.8861,0.0,-4.9412,-4.9402,-4.9796,-4.9719,-4.8616,-4.7638,-4.6495,0.0,-4.5464,-4.5448,-4.4382,0.0,0.0,-4.6933,0.0,-4.7562,-4.8987,-4.9175,-4.9554,-5.0379,-5.0929,-5.135,-5.1831,-5.2747,-5.3573,-5.4416,-5.4905,-5.5149,-5.5149,-5.5149,-5.5392,-5.5691,-5.5311,-5.5658,-5.6405,-5.6405,-5.6622,-5.6973,-5.6891,-5.7404,-5.8266,-5.7566,-5.7624,-5.7951,-5.7901,-5.7148,-5.6219,-5.6219,-5.6219,-5.6292,-5.6656,-5.6801,-5.6946,-5.7307,-5.7379,-5.7307,-5.6874,-5.6801,-5.6583,-5.5779,-5.5558,-5.5386,-5.4992,-5.4918,-5.4672,-5.4181,-5.3447,-5.2762,-5.221,-5.0467,-4.884,-4.8,-4.7522,-4.7987,-5.0081,-5.1855,-5.293,-5.3053,-5.4549,-5.5533,-5.5632,-5.5999,-5.6194,-5.6168,-5.5666,-5.5282,-5.5056,-5.4847,-5.4697,-5.4443,-5.4872,-5.5099,-5.5099,-5.5072,-5.5046,-5.5046,-5.4748,-5.4971,-4.7456,-4.8042,-4.8651,-4.9351,-4.9708,-4.9959,-5.0015,-5.0257,-5.0232,-4.9482,-4.9223,-4.9168,-4.9254,-4.9533,-4.9724,-4.9698,-4.9926,0.0,-4.847,-4.7132,0.0,-4.6128,-4.5264,-4.4926,-4.567,-4.5795,0.0,0.0,-4.7836,-4.8315,-4.9028,-4.9702,-5.0378,-5.0929,-5.135,-5.1998,-5.2747,-5.3655,-5.4334,-5.4905,-5.5067,-5.5392,-5.606,-5.606,-5.5956,-5.5691,-5.598,-5.598,-5.5876,-5.6221,-5.6622,-5.6997,-5.7327,-5.777,-5.834,-5.8409,-5.8524,-5.8453,-5.8052,-5.7148,-5.6219,-5.6219,-5.6438,-5.6656,-5.6801,-5.7019,-5.7235,-5.7379,-5.7379,-5.7307,-5.6874,-5.6583,-5.6219,-5.5705,-5.5164,-5.4597,-5.4157,-5.3542,-5.3002,-5.2474,-5.1716,-5.0811,-4.9758,-4.8857,-4.791,-4.6712,-4.6684,-4.7188,-4.8433,-4.9531,-5.0694,-5.2041,-5.3371,-5.4598,-5.5509,-5.5999,-5.6043,-5.5616,-5.5465,-5.501,-5.4099,-5.4296,-5.4312,-5.4132,-5.4443,-5.4805,-5.5099,-5.4654,-5.4419,-5.4419,-5.3909,-5.3817,-4.7995,-4.8687,-4.9341,-4.9702,-4.9873,-5.0002,-5.0283,-5.0155,-4.9951,-4.9812,-4.961,-4.9515,-4.9748,-5.0045,-5.021,-4.9867,0.0,0.0,-4.8127,-4.7237,-4.651,-4.6063,-4.5434,-4.5362,-4.5999,-4.601,-4.6532,0.0,-4.8274,-4.8734,-4.966,-5.0357,-5.0991,-5.1685,-5.1936,-5.2581,-5.3655,-5.4334,-5.4905,-5.5392,-5.5553,-5.59,-5.6405,-5.6405,-5.6221,-5.6037,0.0,-5.6037,-5.6037,-5.6301,-5.6622,-5.6997,-5.7206,-5.7673,-5.834,-5.8691,-5.8728,-5.853,-5.8427,-5.7666,-5.6729,-5.651,-5.6729,-5.7091,-5.7235,-5.7451,-5.7615,-5.7572,-5.7423,-5.7087,-5.6259,-5.5779,-5.5274,-5.4376,-5.379,-5.3348,-5.269,-5.2175,-5.1663,-5.0972,-5.0273,-4.9503,-4.8396,-4.8078,-4.7618,-4.664,-4.6596,-4.6854,-4.7589,-4.8555,-4.9638,-5.0787,-5.2617,-5.4059,-5.4941,-5.5551,-5.5717,-5.5415,-5.4913,-5.4361,-5.3733,-5.3854,-5.3945,-5.3819,-5.4241,-5.4474,-5.4533,-5.4301,-5.4079,-5.3844,-5.3269,-5.3138,-4.8609,-4.9454,-5.0168,-4.9834,-4.9901,-5.0104,-5.0487,-4.99,-4.952,-5.0383,-4.9976,-4.9654,-5.0224,-5.0601,-5.0565,-5.0021,0.0,-4.9694,-4.7909,-4.7674,-4.7061,-4.5653,-4.599,-4.6204,-4.601,-4.6283,-4.7068,-4.8482,-4.871,-4.9319,-5.0527,-5.1013,-5.1685,-5.2664,-5.2664,-5.3243,-5.4579,-5.4986,-5.5392,-5.5772,-5.6221,-5.6405,-5.6486,-5.6486,-5.6486,-5.6405,0.0,0.0,-5.6405,-5.6486,-5.6702,-5.7052,-5.6939,-5.7531,-5.8472,-5.865,-5.8681,-5.8626,-5.892,-5.8324,-5.7354,-5.6917,-5.7035,-5.7395,-5.7578,-5.7694,-5.7759,-5.7546,-5.725,-5.6726,-5.5369,-5.4749,-5.4063,-5.2671,-5.2162,-5.1846,-5.1063,-5.0795,-5.0534,-4.97,-4.9209,-4.8691,-4.7941,-4.7794,-4.7648,-4.7281,-4.6891,-4.6817,-4.7134,-4.8254,-4.914,-4.965,-5.1917,-5.3522,-5.4082,-5.476,-5.5168,-5.5164,-5.4235,-5.3658,-5.3607,-5.35,-5.3478,-5.3478,-5.4064,-5.4118,-5.3642,-5.3869,-5.3687,-5.3204,-5.2604,-5.2604,-4.9477,-4.9702,-4.9859,-4.9659,-4.9643,-4.9783,-5.0104,-4.9951,-4.9819,-5.0271,-5.0062,-5.0019,-5.062,-5.0539,-5.0421,-5.0446,-5.0186,-4.9576,-4.8434,-4.7928,-4.7403,-4.6658,-4.6393,-4.6615,-4.7268,-4.7415,0.0,0.0,-5.0195,-5.0931,-5.1558,-5.1914,-5.2747,-5.4007,-5.4089,-5.4475,-5.5449,-5.553,-5.5795,-5.6301,-5.6405,-5.6542,-5.6861,-5.6861,-5.6702,-5.6405,-5.6702,0.0,-5.6405,-5.6782,-5.71,-5.7473,-5.7455,-5.8163,-5.9201,-5.8804,-5.906,-5.9534,-5.8613,-5.8135,-5.7635,-5.6816,-5.6804,-5.708,-5.6615,-5.6738,-5.6947,-5.666,-5.6496,-5.6191,-5.5011,-5.411,-5.3394,-5.2526,-5.1576,-5.0647,-5.008,-4.9391,-4.8849,-4.8684,-4.8519,-4.8328,-4.7868,-4.7794,-4.7648,-4.7281,-4.7112,-4.7112,-4.7208,-4.7422,-4.8067,-4.953,-5.0668,-5.1995,-5.3445,-5.3998,-5.4156,-5.4034,-5.3808,-5.3507,-5.308,-5.3048,-5.3136,-5.3478,-5.3614,-5.3538,-5.3284,-5.2822,-5.2504,-5.2232,-5.1598,-5.158,-4.9687,-5.0103,-5.0359,-5.0096,-5.0017,-5.0147,-5.0664,-5.0282,-4.9996,-5.0841,-5.0637,-5.0524,-5.11,-5.0955,-5.0621,-5.0372,-5.0268,-4.986,-4.8681,-4.8453,-4.8216,-4.7595,-4.7233,-4.7145,-4.7568,-4.7842,-4.8613,-4.9976,-5.067,-5.1267,-5.1809,-5.3075,-5.4092,-5.4742,-5.5241,-5.5672,-5.606,-5.6037,-5.6301,-5.6702,-5.6702,-5.6782,-5.7021,-5.7021,-5.6861,-5.6702,-5.6941,0.0,-5.6702,-5.718,-5.7418,-5.7631,-5.834,-5.8791,-5.9108,-5.9465,-5.9457,-5.9212,-5.858,-5.8122,-5.764,-5.6547,-5.6539,-5.6886,-5.66,-5.6548,-5.6401,-5.5977,-5.5391,-5.4715,-5.3478,-5.2558,-5.1703,-5.0484,-4.9572,-4.8945,-4.8618,-4.8523,-4.84,-4.84,-4.84,-4.8328,-4.8159,-4.8086,-4.8086,-4.8086,-4.7941,-4.7941,-4.8354,-4.8209,-4.8373,-4.9186,-5.0265,-5.149,-5.288,-5.3357,-5.3587,-5.3733,-5.3457,-5.3181,-5.2929,-5.2929,-5.2998,-5.3204,-5.341,-5.3182,-5.245,-5.2393,-5.1935,-5.1254,-5.097,-5.1085,-4.9973,-5.0474,-5.0861,-5.0635,-5.0594,-5.0766,-5.1266,-5.0691,-5.029,-5.1393,-5.1178,-5.0969,-5.1429,-5.1246,-5.0804,-5.0104,-5.0231,-4.9932,-4.8754,-4.9033,-4.9026,-4.8278,-4.7985,-4.7896,-4.7981,-4.8511,0.0,-5.0703,-5.1432,0.0,-5.2309,-5.4206,-5.5322,-5.5415,-5.6138,-5.6486,-5.6566,-5.6566,-5.6702,-5.71,-5.7021,-5.7021,-5.71,-5.7021,-5.7021,-5.7021,-5.7021,0.0,0.0,-5.7352,-5.754,-5.7932,-5.8796,-5.9033,-5.8933,-5.9807,-5.9584,-5.8776,-5.8433,-5.7877,-5.7225,-5.6249,-5.6223,-5.6588,-5.6389,-5.6089,-5.5805,-5.5066,-5.4181,-5.3178,-5.1894,-5.1,-5.0056,-4.8517,-4.7852,-4.766,-4.766,-4.7957,-4.8328,-4.84,-4.84,-4.8473,-4.8546,-4.8546,-4.8691,-4.9052,-4.8908,-4.8957,-4.958,-4.9413,-4.927,-4.9413,-5.0293,-5.1273,-5.234,-5.2787,-5.3138,-5.3532,-5.3155,-5.2929,-5.2929,-5.2929,-5.2929,-5.2929,-5.3204,-5.2835,-5.1889,-5.2114,-5.1776,-5.0845,-5.0845,-5.1139,-5.0703,-5.0865,-5.0937,-5.1138,-5.1197,-5.127,-5.1368,-5.0934,-5.0689,-5.1471,-5.1178,-5.0907,-5.1079,-5.0867,-5.0423,-4.9719,-4.966,-4.9426,-4.8606,-4.9212,-4.9292,-4.8144,0.0,0.0,-4.9395,-4.9897,-5.0703,-5.2005,-5.3316,0.0,-5.4171,-5.5091,-5.5842,-5.6245,-5.6373,-5.6613,-5.6941,-5.6941,-5.718,-5.7576,-5.718,-5.718,-5.7576,-5.718,-5.7021,-5.7021,-5.7021,0.0,0.0,-5.7042,-5.7524,-5.8475,-5.8127,-5.8577,-5.9488,-5.9071,-5.8885,-5.8698,-5.8034,-5.7138,-5.6288,-5.5982,-5.5935,-5.5815,-5.4956,-5.4666,-5.4438,-5.3435,-5.2817,-5.2193,-5.1095,-5.0222,-4.927,-4.8091,-4.7799,-4.7799,-4.7799,-4.7845,-4.7941,-4.8328,-4.84,-4.8546,-4.8908,-4.8908,-4.9052,-4.9365,-4.9747,-4.9961,-5.0033,-5.0293,-5.0553,-5.093,-5.0837,-5.1027,-5.1824,-5.2243,-5.2659,-5.2936,-5.2955,-5.2929,-5.2929,-5.2929,-5.2929,-5.2929,-5.2929,-5.2628,-5.2093,-5.2093,-5.1967,-5.1692,-5.1692,-5.1849,-5.0738,-5.1251,-5.1632,-5.1724,-5.1774,-5.19,-5.2338,-5.1702,-5.1319,-5.2019,-5.1675,-5.121,-5.1131,-5.0677,-5.0104,-4.9396,0.0,0.0,-4.866,-4.9302,-4.9609,-4.9243,-4.9507,-4.9762,0.0,0.0,-5.1773,-5.3479,0.0,0.0,-5.5577,-5.6263,-5.661,-5.6806,-5.7093,-5.7173,-5.7021,-5.7259,-5.7418,-5.7552,-5.7734,-5.7892,-5.805,-5.7813,-5.7734,-5.7734,-5.7734,0.0,0.0,-5.7548,-5.7816,-5.8152,-5.8477,-5.8766,-5.9118,-5.9175,-5.8726,-5.8068,-5.7355,-5.6468,-5.5471,-5.5006,-5.4496,-5.4115,-5.4422,-5.4174,-5.37,-5.3085,-5.2119,-5.1211,-5.053,-4.9368,-4.8205,-4.7485,-4.7485,-4.763,-4.7341,-4.7736,-4.8232,-4.84,-4.8618,-4.8835,-4.898,-4.934,-4.9818,-5.0151,-5.0506,-5.0884,-5.1095,-5.1236,-5.1376,-5.1516,-5.1236,-5.1306,-5.2099,-5.2308,-5.2515,-5.2861,-5.2929,-5.2929,-5.2929,-5.2929,-5.2929,-5.2929,-5.2929,-5.2653,-5.2101,-5.2101,-5.1892,-5.1538,-5.1538,-5.1715,-5.0912,-5.1573,-5.2151,-5.2302,-5.242,-5.259,-5.2797,-5.2345,-5.1846,-5.2048,-5.1784,-5.1283,-5.0867,-5.0359,-4.9794,0.0,0.0,-4.8839,-4.8733,-4.9229,-4.9622,-4.9768,0.0,-5.022,0.0,-5.1515,-5.2913,-5.465,0.0,0.0,-5.6782,-5.7221,-5.7405,-5.718,-5.7542,-5.7542,-5.718,-5.7497,-5.7655,-5.7813,-5.8129,-5.8364,-5.8443,-5.8364,-5.831,-5.8286,-5.8114,0.0,0.0,-5.7744,-5.7825,-5.7973,-5.8536,-5.8766,-5.8765,-5.8869,-5.834,-5.739,-5.6546,-5.5711,-5.4768,-5.4052,-5.3335,-5.2892,-5.3428,-5.319,-5.2674,-5.2129,-5.0958,-4.9769,-4.9275,-4.8352,-4.7499,-4.7118,-4.7326,-4.7561,-4.7273,-4.7835,-4.8473,-4.8546,-4.8908,-4.9196,-4.9484,-4.9961,-5.0507,-5.1148,-5.1596,-5.195,-5.2404,-5.2421,-5.2391,-5.2391,-5.1964,-5.1866,-5.2377,-5.2515,-5.2654,-5.2861,-5.2929,-5.2929,-5.2929,-5.2929,-5.2929,-5.2929,-5.2929,-5.2729,-5.2352,-5.2352,-5.2151,-5.1774,-5.1774,-5.1975,-5.1254,-5.1674,-5.2226,-5.2779,-5.3204,-5.3241,-5.2521,-5.2567,-5.2492,-5.1353,-5.112,-5.0867,-5.0232,-4.9847,-4.9506,-4.933,0.0,0.0,-4.8662,-4.8905,-4.9171,0.0,0.0,-5.0222,-5.0743,-5.2461,-5.419,0.0,0.0,0.0,-5.7552,-5.805,-5.8074,-5.7655,-5.7576,-5.7576,-5.7552,-5.7552,-5.7813,-5.831,-5.831,-5.8521,-5.8887,-5.8443,-5.831,0.0,0.0,0.0,0.0,-5.73,-5.7491,-5.8174,-5.7971,-5.8167,-5.8444,-5.7895,-5.745,-5.691,-5.5565,-5.4831,-5.4288,-5.3191,-5.2802,-5.2607,-5.1646,-5.1314,-5.1114,-4.9995,-4.8926,-4.7865,-4.7096,-4.7252,-4.7499,-4.7118,-4.7432,-4.7794,-4.7794,-4.8086,-4.8546,-4.8908,-4.9245,-4.9723,-5.0506,-5.0648,-5.1124,-5.2413,-5.2936,-5.3371,-5.3917,-5.3778,-5.3683,-5.3683,-5.3231,-5.2723,-5.2446,-5.2723,-5.2929,-5.2929,-5.2929,-5.2929,-5.2929,-5.2929,-5.2929,-5.2929,-5.2929,-5.2929,-5.2929,-5.2929,-5.2929,-5.2904,-5.2904,-5.2904,-5.1289,-5.195,-5.2772,-5.3222,-5.3105,-5.2928,-5.3171,-5.2763,-5.2155,-5.1767,-5.1189,-5.055,-4.9847,-4.9242,-4.8764,-4.8573,-4.8315,0.0,0.0,0.0,0.0,-4.9743,-5.0422,-5.1285,0.0,0.0,0.0,0.0,0.0,0.0,-5.8025,-5.8521,-5.8496,-5.805,-5.805,-5.805,-5.805,-5.834,-5.8575,-5.8731,-5.8965,-5.9198,-5.9328,-5.8823,-5.8596,0.0,0.0,0.0,0.0,-5.7495,-5.7604,-5.7991,-5.7778,-5.7965,-5.8262,-5.789,-5.7482,-5.6939,-5.6054,-5.5037,-5.3922,-5.2943,-5.1846,-5.083,-5.0052,-5.0315,-5.0553,-4.8947,-4.805,-4.7493,-4.7026,-4.7252,-4.7499,-4.7118,-4.7794,-4.8546,-4.8255,-4.874,-4.9245,-4.9675,-5.0104,-5.0435,-5.093,-5.1516,-5.2108,-5.2862,-5.3288,-5.3643,-5.3748,-5.3738,-5.3557,-5.3206,-5.303,-5.2861,-5.2723,-5.2861,-5.2929,-5.2929,-5.2929,-5.2929,-5.2929,-5.2929,-5.2929,-5.2929,-5.2929,-5.2929,-5.2929,-5.2929,-5.2792,-5.2585,-5.2585,-5.2585,-5.1272,-5.2076,-5.2948,-5.3131,-5.2936,-5.2848,-5.3034,-5.2518,-5.1922,-5.1562,-5.0781,-5.004,-4.9525,-4.896,-4.8596,-4.8527,-4.8325,0.0,0.0,0.0,0.0,-5.0596,0.0,0.0,0.0,-5.3542,0.0,0.0,0.0,0.0,-5.82,-5.8632,-5.8809,-5.8521,-5.8364,-5.831,-5.831,-5.8521,-5.8653,-5.8653,-5.9276,-5.9382,-5.9207,-5.8855,-5.8604,0.0,0.0,0.0,0.0,-5.7677,-5.7749,-5.7778,-5.7835,-5.792,-5.8001,-5.7621,-5.7304,-5.6877,-5.6078,-5.4979,-5.3719,-5.2694,-5.1165,-4.9671,-4.9082,-4.915,-4.9224,-4.7803,-4.7187,-4.6911,-4.6427,-4.6957,-4.7486,-4.7202,-4.8159,-4.9101,-4.8884,-4.9437,-5.0009,-5.0317,-5.0742,-5.1236,-5.1586,-5.2074,-5.262,-5.3308,-5.3568,-5.3783,-5.4009,-5.3833,-5.3582,-5.3256,-5.3055,-5.2929,-5.2929,-5.2929,-5.2929,-5.2929,-5.2929,-5.2929,-5.2929,-5.2929,-5.2929,-5.2929,-5.2729,-5.2628,-5.2628,-5.2266,-5.1936,-5.1731,-5.1594,-5.1594,0.0,-5.2126,-5.2872,-5.2725,-5.2884,-5.2884,-5.2182,-5.1974,0.0,-5.0716,-5.004,-4.9486,-4.9122,-4.8886,-4.8797,-4.8944,-4.8823,0.0,0.0,-4.9491,0.0,0.0,-5.2405,0.0,-5.3394,0.0,0.0,0.0,0.0,0.0,-5.8117,-5.8589,-5.8887,-5.8887,-5.8521,-5.831,-5.8389,-5.8389,-5.8389,-5.8364,-5.907,-5.9182,-5.873,-5.8629,-5.8328,0.0,0.0,0.0,0.0,-5.7821,-5.7752,-5.7678,-5.8016,-5.799,-5.7677,-5.7157,-5.6944,-5.6784,-5.5637,-5.466,-5.3655,-5.2296,-5.067,-4.9148,-4.8657,-4.8075,-4.7346,-4.663,-4.6338,-4.6227,-4.5551,-4.6381,-4.7423,-4.7423,-4.8474,-4.9509,-4.9509,-5.0151,-5.0718,-5.0789,-5.1376,-5.196,-5.2377,-5.2446,-5.2759,-5.3563,-5.3708,-5.3884,-5.4436,-5.4034,-5.3683,-5.3658,-5.3206,-5.2929,-5.2929,-5.2929,-5.2929,-5.2929,-5.2929,-5.2929,-5.2929,-5.2929,-5.2929,-5.2929,-5.2377,-5.2076,-5.1983,-5.1163,-5.0687,-5.0645,-5.0284,-5.0149,-5.19,0.0,-5.3017,-5.3547,-5.3084,-5.2499,0.0,-5.1948,-5.1022,-5.0065,-4.9525,-4.9066,-4.8561,-4.8219,-4.8127,-4.8683,0.0,-4.8991,-4.9906,0.0,0.0,-5.2353,-5.2769,-5.3191,-5.3688,0.0,0.0,0.0,0.0,-5.7797,-5.8552,-5.8744,-5.8887,-5.8887,-5.8521,-5.8443,-5.8731,-5.8731,-5.8887,-5.9198,-5.9004,-5.883,-5.8704,-5.7826,-5.7349,0.0,0.0,0.0,-5.7461,-5.7584,-5.7808,-5.8042,-5.7757,-5.733,-5.6846,-5.6607,-5.6327,-5.5961,-5.5273,-5.448,-5.3512,-5.128,-4.9726,-4.8682,-4.8272,-4.7695,-4.7126,-4.659,-4.6025,-4.5619,-4.5415,-4.6381,-4.7423,-4.7423,-4.8686,-4.9961,-4.9961,-5.0506,-5.1141,-5.1446,-5.196,-5.2377,-5.2723,-5.2792,-5.2967,-5.3632,-5.3708,-5.3758,-5.3884,-5.3783,-5.3557,-5.3155,-5.3005,-5.2929,-5.2929,-5.2929,-5.2929,-5.2929,-5.2929,-5.2929,-5.2929,-5.2929,-5.2929,-5.2929,-5.2377,-5.174,-5.1046,-5.0829,-5.0443,-4.9927,-4.9859,-4.9859,-5.2101,-5.2503,-5.2991,-5.3258,-5.2884,-5.2363,-5.2023,0.0,-5.0613,-4.9902,-4.9183,-4.876,-4.8894,-4.8639,-4.861,0.0,-4.9582,0.0,0.0,0.0,-5.2723,-5.3374,-5.3747,-5.4146,0.0,0.0,0.0,0.0,0.0,-5.7699,-5.7999,-5.8387,-5.8496,-5.834,-5.8129,-5.8207,-5.8599,-5.8809,-5.8918,-5.8823,-5.8779,-5.8453,-5.7926,-5.7323,-5.6897,0.0,0.0,0.0,-5.7015,-5.7625,-5.7805,-5.7592,-5.7223,-5.6827,-5.6455,-5.635,-5.6114,-5.5794,-5.5714,-5.4698,-5.3088,-5.1112,-4.9947,-4.9247,-4.9047,-4.8343,-4.7369,-4.6617,-4.616,-4.5822,-4.5483,-4.6265,-4.7075,-4.7075,-4.8404,-4.9747,-4.9747,-5.0644,-5.1516,-5.1751,-5.2412,-5.2998,-5.2886,-5.313,-5.3306,-5.3331,-5.3356,-5.3356,-5.3356,-5.3356,-5.3231,-5.2955,-5.2929,-5.2929,-5.2929,-5.2929,-5.2929,-5.2929,-5.2929,-5.2929,-5.2929,-5.2929,-5.2678,-5.2176,-5.174,-5.0963,-4.9942,-4.9611,-4.9303,-4.8926,-4.8767,-4.87,-5.2226,-5.2578,-5.2872,-5.2734,-5.2599,-5.2295,-5.1307,0.0,-5.0215,-4.9859,-4.9017,-4.8579,-4.929,-4.936,0.0,0.0,0.0,0.0,-5.2538,-5.3051,-5.3639,-5.4447,-5.4868,0.0,0.0,0.0,0.0,0.0,0.0,-5.7725,-5.7348,-5.8006,-5.8207,-5.7789,-5.7716,-5.7849,-5.8266,-5.8607,-5.8616,-5.8193,-5.8401,-5.7951,-5.7022,-5.6947,-5.6646,-5.6219,0.0,0.0,-5.6624,-5.766,-5.7618,-5.7064,-5.6804,-5.6536,-5.6305,-5.6242,-5.5986,-5.5655,-5.5927,-5.4629,-5.2593,-5.13,-5.0531,-5.0106,-5.013,-4.9081,-4.7789,-4.6782,-4.6409,-4.616,-4.5551,-4.608,-4.6725,-4.6725,-4.8004,-4.9319,-4.9319,-5.0591,-5.182,-5.182,-5.2844,-5.3532,-5.3005,-5.3432,-5.3632,-5.303,-5.3005,-5.3005,-5.2929,-5.2929,-5.2929,-5.2929,-5.2929,-5.2929,-5.2929,-5.2929,-5.2929,-5.2929,-5.2929,-5.2929,-5.2929,-5.2854,-5.2259,-5.1231,-5.0772,-5.0,-4.8942,-4.8289,-4.796,-4.7894,-4.763,-4.7497,-5.2804,-5.2854,-5.2973,-5.3308,-5.2699,-5.2093,-5.1959,-5.0978,0.0,0.0,0.0,0.0,0.0,-4.918,-4.9771,0.0,0.0,-5.3278,0.0,0.0,-5.4794,-5.4868,0.0,0.0,0.0,0.0,0.0,0.0,0.0,-5.7901,-5.7826,-5.8445,-5.8809,-5.8731,-5.8232,-5.8086,-5.8164,-5.8164,-5.8345,-5.8628,-5.7675,-5.7198,-5.7022,-5.6545,-5.6294,0.0,0.0,-5.6727,-5.697,-5.7108,-5.7304,-5.7422,-5.7223,-5.6757,-5.6305,-5.5986,-5.5446,-5.4654,-5.3413,-5.2833,-5.2378,-5.0943,-5.0331,-5.013,-4.9767,-4.884,-4.7709,-4.7247,-4.6351,-4.5551,-4.5438,-4.608,-4.6725,-4.6725,-4.8004,-4.9319,-4.9319,-5.0591,-5.182,-5.182,-5.2844,-5.3532,-5.3005,-5.3758,-5.4084,-5.308,-5.3306,-5.3432,-5.298,-5.2929,-5.2929,-5.2929,-5.2929,-5.2929,-5.2929,-5.2929,-5.2929,-5.2929,-5.2929,-5.2929,-5.2929,-5.2477,-5.179,-5.0779,-5.0307,-4.943,-4.8158,-4.8092,-4.7828,-4.7563,-4.7497,-4.7497,-5.2929,-5.2929,-5.2929,-5.2929,-5.2591,-5.1974,-5.1103,-5.0421,-4.9866,-4.9389,0.0,0.0,0.0,0.0,-5.0811,-5.2138,0.0,-5.4106,-5.4353,-5.4943,-5.5337,0.0,0.0,0.0,0.0,0.0,0.0,0.0,0.0,0.0,-5.8024,-5.8268,-5.8387,-5.813,-5.7764,-5.7644,-5.7644,-5.7498,-5.7575,-5.7801,-5.7273,-5.6872,-5.657,-5.6319,-5.6116,-5.6031,0.0,-5.6431,-5.6435,-5.6862,-5.7023,-5.7004,-5.6801,-5.6522,-5.6242,-5.551,-5.4983,-5.4325,-5.2389,-5.1866,-5.179,-5.068,-5.0173,-4.998,-5.0132,-4.8935,-4.7559,-4.7328,-4.6494,-4.5619,-4.5415,-4.5735,-4.5965,-4.5965,-4.7374,-4.8682,-4.8891,-5.0443,-5.1964,-5.247,-5.3458,-5.4084,-5.3858,-5.4486,-5.4737,-5.3934,-5.3758,-5.3607,-5.3381,-5.3105,-5.2929,-5.2929,-5.2929,-5.2929,-5.2929,-5.2929,-5.2929,-5.2929,-5.2929,-5.2929,-5.2929,-5.2678,-5.1922,-5.0712,-5.0238,-4.9387,-4.8026,-4.7828,-4.763,-4.7497,-4.7497,-4.7497,-5.2929,-5.2929,-5.2817,-5.2526,-5.2243,-5.1792,-5.0521,-5.0028,-4.9818,-4.9719,-4.9401,0.0,0.0,-5.1621,0.0,-5.3569,-5.4302,-5.4794,-5.5115,-5.5485,-5.5779,0.0,0.0,0.0,0.0,0.0,0.0,0.0,0.0,0.0,-5.8046,-5.8195,-5.8042,-5.7509,-5.727,-5.7148,-5.7148,-5.69,-5.6897,-5.7022,-5.6971,-5.6768,-5.634,-5.6286,-5.62,-5.6056,-5.6297,-5.6236,-5.6086,-5.6718,-5.6861,-5.6823,-5.6621,-5.6367,-5.5982,-5.4918,-5.4311,-5.3679,-5.1708,-5.1195,-5.1228,-5.021,-4.9955,-5.0049,-5.0172,-4.8921,-4.74,-4.7284,-4.6518,-4.5754,-4.5506,-4.5438,-4.5461,-4.5644,-4.6887,-4.8189,-4.8746,-5.044,-5.2013,-5.2829,-5.3773,-5.4361,-5.4361,-5.4938,-5.5164,-5.4461,-5.411,-5.3808,-5.3557,-5.3181,-5.2929,-5.2929,-5.2929,-5.2929,-5.2929,-5.2929,-5.2929,-5.2929,-5.2929,-5.2929,-5.2929,-5.2804,-5.2047,-5.0578,-5.0228,-4.9309,-4.7894,-4.763,-4.7497,-4.7497,-4.7497,-4.7497,-5.2929,-5.2929,-5.2848,-5.2647,-5.1954,-5.1263,-5.1296,-5.048,-4.982,-5.0332,-5.0076,-5.0123,-5.101,-5.2423,-5.3642,-5.4251,-5.4992,-5.5558,-5.5558,0.0,0.0,0.0,0.0,0.0,0.0,0.0,0.0,0.0,0.0,0.0,-5.7901,-5.8377,-5.8402,-5.7901,-5.7324,-5.7023,-5.7023,-5.6545,-5.652,-5.7022,-5.6887,-5.6754,-5.6776,-5.653,-5.6463,-5.6431,-5.6072,-5.6097,-5.6396,-5.6622,-5.6904,-5.7174,-5.7146,-5.6536,-5.5551,-5.4459,-5.3275,-5.2093,-5.0733,-5.061,-5.0793,-4.9503,-4.9827,-5.0433,-4.9298,-4.8217,-4.733,-4.6842,-4.6103,-4.5438,-4.5415,-4.5438,-4.5598,-4.6402,-4.7351,-4.8307,-4.9547,-5.0822,-5.189,-5.2357,-5.3198,-5.3758,-5.3758,-5.4662,-5.5013,-5.3934,-5.4185,-5.4135,-5.3105,-5.2955,-5.2929,-5.2929,-5.2929,-5.2929,-5.2929,-5.2929,-5.2929,-5.2929,-5.2929,-5.2929,-5.2929,-5.2427,-5.1537,-5.0241,-4.9724,-4.8785,-4.7563,-4.7497,-4.7497,-4.7497,-4.7497,-4.7497,-5.2929,-5.2948,-5.2899,-5.2321,-5.1825,-5.1393,-5.1244,-5.0889,-5.074,-5.0971,-5.1393,-5.206,-5.3048,0.0,-5.4791,-5.5411,-5.5754,0.0,0.0,0.0,0.0,0.0,0.0,0.0,0.0,0.0,0.0,0.0,0.0,0.0,0.0,-5.7951,-5.7649,-5.7746,-5.6969,-5.6593,-5.6887,-5.6684,-5.6684,-5.6887,-5.683,-5.6598,-5.6243,-5.6656,-5.6589,-5.6124,-5.6228,-5.6371,-5.6556,-5.6697,-5.6942,-5.7174,-5.7006,-5.6328,-5.5419,-5.3989,-5.2793,-5.1501,-5.0006,-4.9697,-4.983,-4.9057,-4.9227,-4.9438,-4.84,-4.7394,-4.6607,-4.6126,-4.5782,-4.5507,-4.5438,-4.5599,-4.5944,-4.6541,-4.7631,-4.8802,-5.0014,-5.1056,-5.2059,-5.3009,-5.3487,-5.3934,-5.4637,-5.4813,-5.4838,-5.4762,-5.4336,-5.3884,-5.3457,-5.313,-5.2929,-5.2929,-5.2929,-5.2929,-5.2929,-5.2929,-5.2929,-5.2929,-5.2929,-5.2929,-5.2929,-5.2729,-5.2011,-5.0733,-5.0512,-4.9762,-4.8483,-4.8147,-4.8002,-4.7978,-4.7666,-4.7497,-5.2792,-5.2889,-5.2961,-5.2351,-5.2091,-5.1861,-5.1754,-5.1483,-5.1393,-5.1985,-5.2806,-5.3696,-5.4592,-5.5229,0.0,0.0,-5.651,0.0,0.0,0.0,0.0,0.0,0.0,0.0,0.0,0.0,0.0,0.0,0.0,0.0,0.0,-5.7524,-5.7242,-5.7359,-5.6858,-5.6729,-5.7019,-5.7019,-5.6917,-5.6738,-5.681,-5.675,-5.6482,-5.6755,-5.6641,-5.6247,-5.6438,-5.6571,-5.6747,-5.6812,-5.6942,-5.7006,-5.6524,-5.5828,-5.4799,-5.3212,-5.1892,-5.0623,-4.9338,-4.898,-4.8965,-4.8474,-4.8538,-4.8598,-4.7542,-4.6796,-4.622,-4.5723,-4.5728,-4.58,-4.5714,-4.6035,-4.6542,-4.7167,-4.8099,-4.9156,-5.0558,-5.1387,-5.2128,-5.3242,-5.3457,-5.3758,-5.4687,-5.4536,-5.4411,-5.4787,-5.421,-5.3632,-5.3482,-5.3155,-5.2929,-5.2929,-5.2929,-5.2929,-5.2929,-5.2929,-5.2929,-5.2929,-5.2929,-5.2929,-5.2929,-5.2929,-5.2379,-5.119,-5.1029,-5.0441,-4.929,-4.8623,-4.8291,-4.8267,-4.7738,-4.7497,-5.2515,-5.275,-5.306,-5.2815,-5.257,-5.2526,-5.3048,-5.2253,-5.1885,-5.3325,-5.4152,-5.4768,-5.5124,-5.5757,0.0,-5.6729,-5.7163,0.0,0.0,0.0,0.0,0.0,0.0,0.0,0.0,0.0,0.0,0.0,0.0,0.0,0.0,-5.7392,-5.7359,-5.6801,-5.7163,-5.7379,-5.7379,-5.7379,-5.7072,-5.6508,-5.6932,-5.7258,-5.7556,-5.6841,-5.665,-5.7024,-5.6793,-5.6682,-5.6747,-5.7044,-5.7006,-5.6616,-5.5868,-5.4839,-5.3524,-5.2026,-5.061,-4.9303,-4.8687,-4.8465,-4.8422,-4.7815,-4.7987,-4.814,-4.6843,-4.6396,-4.6284,-4.5864,-4.6014,-4.6297,-4.6297,-4.6603,-4.7234,-4.8498,-4.878,-4.9345,-5.1349,-5.182,-5.203,-5.2792,-5.2929,-5.308,-5.3607,-5.3708,-5.3683,-5.3708,-5.3708,-5.3507,-5.3005,-5.2929,-5.2929,-5.2929,-5.2929,-5.2929,-5.2929,-5.2929,-5.2929,-5.2929,-5.2929,-5.2929,-5.2929,-5.2929,-5.2448,-5.1625,-5.1166,-5.0578,-4.9723,-4.8783,-4.8291,-4.8291,-4.7762,-4.7497,-5.2446,-5.2671,-5.2838,-5.2478,0.0,-5.3072,-5.3288,-5.3148,-5.3435,-5.5059,-5.5764,-5.6176,-5.6426,-5.6897,0.0,-5.7503,-5.7641,0.0,0.0,0.0,0.0,0.0,0.0,0.0,0.0,0.0,0.0,0.0,0.0,0.0,0.0,-5.7185,-5.6993,-5.7003,-5.6836,-5.6727,-5.6552,-5.6527,-5.6589,-5.666,-5.6683,-5.6568,-5.6405,-5.6742,-5.6837,-5.6793,-5.6996,-5.7044,-5.7044,-5.7174,-5.7006,-5.6563,-5.5483,-5.4367,-5.3115,-5.0838,-4.9432,-4.8517,-4.753,-4.726,-4.7282,-4.7245,-4.7314,-4.7411,-4.6334,-4.6055,-4.6017,-4.5792,-4.6047,-4.6676,-4.7461,-4.8023,-4.8469,-4.8756,-4.9251,-5.0126,-5.1492,-5.182,-5.203,-5.2792,-5.2929,-5.308,-5.3607,-5.3406,-5.3281,-5.3658,-5.3381,-5.3105,-5.2955,-5.2929,-5.2929,-5.2929,-5.2929,-5.2929,-5.2929,-5.2929,-5.2929,-5.2929,-5.2929,-5.2929,-5.2929,-5.2553,-5.2047,-5.1532,-5.119,-5.0705,-5.019,-4.9314,-4.8844,-4.882,-4.793,-4.7497,-5.2164,-5.2441,0.0,-5.2332,-5.2756,-5.3286,-5.3731,-5.4098,-5.4625,-5.5896,-5.6497,-5.697,-5.737,-5.7728,0.0,-5.8122,0.0,0.0,0.0,0.0,0.0,0.0,0.0,0.0,0.0,0.0,0.0,0.0,0.0,0.0,0.0,0.0,0.0,0.0,-5.6796,-5.6581,-5.6453,-5.6591,-5.6598,-5.6636,-5.6701,-5.6611,-5.6439,-5.6902,-5.6935,-5.6757,-5.6704,-5.6659,-5.6659,-5.6404,-5.602,-5.545,-5.4262,-5.3125,-5.1854,-4.9717,-4.8549,-4.7801,-4.6816,-4.6588,-4.679,-4.66,-4.6732,-4.6847,-4.6337,-4.6175,-4.6182,-4.6234,-4.673,-4.7413,-4.8134,-4.8868,-4.939,-4.9369,-4.9866,-5.0601,-5.1611,-5.196,-5.2238,-5.2792,-5.2929,-5.303,-5.3331,-5.313,-5.303,-5.3356,-5.313,-5.2929,-5.2929,-5.2929,-5.2929,-5.2929,-5.2929,-5.2929,-5.2929,-5.2929,-5.2929,-5.2929,-5.2729,-5.2603,-5.2603,-5.2277,-5.1865,-5.1412,-5.1073,-5.0665,-5.0323,-4.9446,-4.8908,-4.8748,-4.804,-4.7696,-5.1599,-5.2203,-5.2671,-5.2356,-5.283,-5.3565,-5.4499,-5.5058,-5.5573,-5.6006,0.0,-5.7392,-5.805,-5.8433,-5.8594,0.0,0.0,0.0,0.0,0.0,0.0,0.0,0.0,0.0,0.0,0.0,0.0,0.0,0.0,0.0,0.0,0.0,0.0,-5.7058,-5.6842,-5.6788,-5.6709,-5.6983,-5.6924,0.0,-5.6771,-5.7007,-5.7157,-5.7092,-5.6959,-5.6738,-5.6127,-5.5908,-5.5846,-5.5195,-5.4474,-5.3772,-5.2686,-5.1438,-5.0156,-4.8713,-4.7772,-4.717,-4.6287,-4.6263,-4.6555,-4.605,-4.6175,-4.6596,-4.6596,-4.6596,-4.6743,-4.7208,-4.7868,-4.84,-4.8546,-4.9317,-5.0175,-5.0175,-5.0459,-5.093,-5.1656,-5.2169,-5.2515,-5.2861,-5.2929,-5.2929,-5.2929,-5.2929,-5.2929,-5.2929,-5.2929,-5.2929,-5.2929,-5.2929,-5.2929,-5.2929,-5.2929,-5.2929,-5.2929,-5.2879,-5.2854,-5.2854,-5.2327,-5.2,-5.195,-5.195,-5.1724,-5.1222,-5.0838,-5.0504,-5.0192,-4.9273,-4.8694,-4.8426,-4.8137,-4.8026,-5.0787,-5.1556,0.0,-5.2356,-5.3201,-5.4371,-5.5164,-5.5732,-5.6153,-5.6676,-5.7615,-5.8362,-5.8401,-5.8955,0.0,0.0,0.0,0.0,0.0,0.0,0.0,0.0,0.0,0.0,0.0,0.0,0.0,0.0,0.0,0.0,0.0,0.0,0.0,-5.7047,-5.6712,-5.6314,-5.5867,-5.5907,-5.6054,0.0,-5.6581,-5.6807,-5.6877,-5.6595,-5.6431,-5.6355,-5.6087,-5.5908,-5.5846,-5.5195,-5.45,-5.3772,-5.2246,-5.0821,-4.9446,-4.7901,-4.6658,-4.5686,-4.5256,-4.5247,-4.5444,-4.534,-4.5888,-4.6596,-4.6596,-4.6817,-4.7208,-4.7941,-4.8255,-4.8595,-4.9532,-5.0175,-5.0648,-5.086,-5.1,-5.1282,-5.205,-5.2283,-5.2515,-5.2861,-5.2929,-5.2929,-5.2929,-5.2929,-5.2929,-5.2929,-5.2929,-5.2929,-5.2929,-5.2929,-5.2929,-5.2929,-5.2929,-5.2929,-5.2929,-5.2528,-5.2277,-5.2277,-5.1774,-5.1247,-5.0795,-5.077,-5.072,-5.0619,-5.0223,-5.0025,-4.9983,-4.9436,-4.9162,-4.9071,-4.8624,-4.8445,-5.0429,0.0,0.0,-5.272,0.0,-5.4594,-5.4957,-5.5749,-5.6565,-5.6775,-5.7764,-5.872,-5.8999,0.0,0.0,0.0,0.0,0.0,0.0,0.0,0.0,0.0,0.0,0.0,0.0,0.0,0.0,0.0,0.0,0.0,0.0,-5.7512,-5.7102,-5.7011,-5.6385,-5.5921,-5.5604,-5.5314,-5.5313,-5.5705,-5.58,-5.5943,-5.6184,-5.6094,-5.6148,-5.6331,-5.5596,-5.5304,-5.5182,-5.402,-5.3144,-5.2421,-5.074,-4.9404,-4.8258,-4.6792,-4.5799,-4.5233,-4.4796,-4.4798,-4.5108,-4.5423,-4.5998,-4.667,-4.7281,-4.7648,-4.7941,-4.874,-4.9101,-4.9389,-5.0175,-5.0648,-5.1071,-5.1656,-5.1796,-5.1866,-5.2283,-5.2491,-5.2723,-5.2861,-5.2929,-5.2929,-5.2929,-5.2929,-5.2929,-5.2929,-5.2929,-5.2929,-5.2929,-5.2929,-5.2929,-5.2929,-5.2678,-5.2528,-5.2528,-5.2026,-5.1699,-5.1699,-5.1172,-5.072,-5.0419,-5.0167,-5.0017,-5.0017,-4.9846,-4.9651,-4.952,-4.9298,-4.9101,-4.8993,-4.8895,-4.8713,-5.047,0.0,-5.2374,-5.3343,-5.4039,0.0,-5.4794,-5.5846,-5.6771,-5.6977,-5.7808,-5.8657,0.0,0.0,0.0,0.0,0.0,0.0,0.0,0.0,0.0,0.0,0.0,0.0,0.0,0.0,0.0,0.0,0.0,0.0,-5.7838,-5.7344,-5.7023,-5.7023,-5.6094,-5.5538,-5.5538,-5.4865,-5.4705,-5.4964,-5.4888,-5.5038,-5.537,-5.5534,-5.5898,-5.6167,-5.5099,-5.4548,-5.4401,-5.2799,-5.1659,-5.0816,-4.9152,-4.8002,-4.7165,-4.5799,-4.5233,-4.505,-4.4575,-4.4732,-4.5335,-4.5827,-4.6439,-4.7112,-4.8159,-4.8595,-4.8812,-4.9509,-5.0009,-5.0388,-5.0813,-5.1141,-5.1562,-5.2213,-5.2421,-5.2515,-5.2515,-5.2723,-5.2929,-5.2929,-5.2929,-5.2929,-5.2929,-5.2929,-5.2904,-5.2804,-5.2779,-5.2754,-5.2653,-5.2628,-5.2628,-5.2628,-5.2226,-5.1975,-5.1975,-5.1448,-5.1122,-5.1122,-5.0594,-5.0268,-5.0268,-4.9841,-4.959,-4.959,-4.959,-4.9461,-4.9202,-4.9202,-4.9007,-4.8772,-4.8973,-4.8828,0.0,0.0,-5.2801,0.0,-5.4465,-5.4794,0.0,0.0,-5.6977,0.0,-5.8294,0.0,0.0,0.0,0.0,0.0,0.0,0.0,0.0,0.0,0.0,0.0,0.0,0.0,0.0,0.0,0.0,0.0,0.0,0.0,-5.8046,-5.7504,-5.7152,-5.7152,-5.6003,-5.5359,-5.5359,-5.4478,-5.3994,-5.4059,-5.4396,-5.4569,-5.4644,-5.4699,-5.5047,-5.555,-5.4904,-5.446,-5.4074,-5.2677,-5.156,-5.0525,-4.9087,-4.7714,-4.6473,-4.5595,-4.5003,-4.4502,-4.4427,-4.5047,-4.5872,-4.6301,-4.7241,-4.8232,-4.8717,-4.9293,-4.9961,-5.0435,-5.0789,-5.1165,-5.1516,-5.1935,-5.2283,-5.2377,-5.2654,-5.2861,-5.2861,-5.2861,-5.2929,-5.2929,-5.2929,-5.2929,-5.2929,-5.2929,-5.2754,-5.2277,-5.2226,-5.2051,-5.1548,-5.1498,-5.1498,-5.1498,-5.1448,-5.1398,-5.1398,-5.087,-5.0519,-5.0519,-5.0017,-4.9715,-4.9715,-4.964,-4.959,-4.959,-4.959,-4.959,-4.9525,-4.9525,-4.9525,-4.9461,-4.9049,-4.8773,-5.1874,-5.2396,-5.2959,0.0,-5.437,-5.4714,-5.5627,0.0,-5.6544,-5.7302,0.0,0.0,0.0,0.0,0.0,0.0,0.0,0.0,0.0,0.0,0.0,0.0,0.0,0.0,0.0,0.0,0.0,0.0,0.0,-5.7581,-5.7581,-5.7309,-5.7038,-5.6712,-5.5773,-5.5157,-5.4837,-5.3678,-5.3039,-5.2886,-5.3245,-5.3543,-5.3754,-5.3727,-5.4101,-5.4671,-5.4254,-5.3713,-5.3139,-5.1783,-5.0652,-4.954,-4.7911,-4.665,-4.5686,-4.5026,-4.4601,-4.4445,-4.5069,-4.5678,-4.6368,-4.7291,-4.8049,-4.8861,-4.9628,-5.0151,-5.0601,-5.1165,-5.1446,-5.1656,-5.203,-5.2308,-5.2446,-5.2654,-5.2792,-5.2929,-5.2929,-5.2929,-5.2929,-5.2929,-5.2929,-5.2929,-5.2929,-5.2678,-5.2377,-5.2151,-5.185,-5.1548,-5.1322,-5.1272,-5.1272,-5.1272,-5.0996,-5.0795,-5.0795,-4.9992,-4.949,-4.949,-4.8962,-4.8661,-4.8661,-4.8661,-4.8812,-4.9138,-4.9439,-4.959,-4.959,-4.959,-4.9439,-4.9138,-4.8887,-4.8435,0.0,0.0,-5.3359,-5.3971,-5.4309,-5.4645,0.0,0.0,-5.6263,0.0,0.0,0.0,0.0,0.0,0.0,0.0,0.0,0.0,0.0,0.0,0.0,0.0,0.0,0.0,0.0,0.0,0.0,0.0,0.0,-5.7119,-5.6956,-5.6956,-5.6685,-5.6088,-5.5327,-5.4714,-5.416,-5.2817,-5.1988,-5.1662,-5.1883,-5.2077,-5.2189,-5.2322,-5.262,-5.2985,-5.3146,-5.2773,-5.1944,-5.0689,-4.9475,-4.8306,-4.6874,-4.5824,-4.5165,-4.4575,-4.4534,-4.4771,-4.5572,-4.634,-4.7006,-4.8167,-4.8933,-4.9557,-5.0506,-5.093,-5.1236,-5.182,-5.203,-5.2169,-5.2446,-5.2515,-5.2585,-5.2861,-5.2829,-5.2729,-5.2729,-5.2729,-5.2678,-5.2528,-5.2503,-5.2503,-5.2503,-5.2176,-5.185,-5.1699,-5.1322,-5.0996,-5.087,-5.0845,-5.0845,-5.0845,-5.0343,-4.9992,-4.9992,-4.9113,-4.856,-4.856,-4.8159,-4.7908,-4.7908,-4.7908,-4.8109,-4.8535,-4.8962,-4.9238,-4.9389,-4.9238,-4.8962,-4.856,-4.841,-4.7908,0.0,-5.3929,0.0,-5.4376,-5.4511,0.0,0.0,0.0,0.0,0.0,0.0,0.0,0.0,0.0,0.0,0.0,0.0,0.0,0.0,0.0,0.0,0.0,0.0,0.0,0.0,0.0,0.0,0.0,0.0,-5.6929,-5.6387,-5.6359,-5.6061,-5.5491,-5.4583,-5.3887,-5.3547,-5.1962,-5.095,-5.038,-5.0442,-5.0156,-4.9724,-5.0218,-5.0266,-5.0069,-5.1521,-5.1606,-5.0511,-4.954,-4.8281,-4.696,-4.6204,-4.5554,-4.4945,-4.4568,-4.4738,-4.5333,-4.5742,-4.6709,-4.7822,-4.8621,-4.9628,-5.0648,-5.1071,-5.1726,-5.2283,-5.2377,-5.2585,-5.2861,-5.2861,-5.2861,-5.2861,-5.2929,-5.2528,-5.2151,-5.2151,-5.2151,-5.2,-5.1473,-5.1373,-5.1373,-5.1373,-5.1348,-5.1147,-5.0594,-5.0469,-5.0268,-4.9741,-4.969,-4.969,-4.969,-4.9188,-4.8862,-4.8862,-4.8309,-4.7958,-4.7958,-4.7933,-4.7908,-4.7908,-4.7908,-4.7933,-4.7958,-4.7983,-4.8259,-4.8812,-4.8259,-4.7983,-4.7933,-4.7456,-4.7179,0.0,0.0,0.0,-5.4805,-5.4872,-5.5006,-5.567,-5.5802,0.0,0.0,0.0,0.0,0.0,0.0,0.0,0.0,0.0,0.0,0.0,0.0,0.0,0.0,0.0,0.0,0.0,0.0,0.0,0.0,0.0,0.0,-5.6305,-5.5925,-5.5464,-5.484,-5.4287,-5.3557,-5.2624,-5.1236,-5.0473,-5.0266,-4.9533,-4.9004,-4.8825,-4.8925,-4.8774,-4.8444,-4.8685,-4.8908,-4.9127,-4.8084,-4.7117,-4.6227,-4.5554,-4.5042,-4.4657,-4.4848,-4.531,-4.5808,-4.6462,-4.749,-4.8644,-4.9437,-5.0293,-5.1141,-5.1796,-5.2144,-5.2372,-5.2229,-5.2266,-5.2327,-5.1975,-5.1875,-5.1875,-5.1875,-5.1724,-5.1473,-5.1096,-5.1322,-5.1523,-5.1322,-5.1272,-5.1272,-5.1272,-5.0971,-5.067,-5.0444,-5.0117,-4.9816,-4.9615,-4.959,-4.9464,-4.9113,-4.8887,-4.8611,-4.8259,-4.7732,-4.7405,-4.7405,-4.7079,-4.6878,-4.6878,-4.6878,-4.7054,-4.7405,-4.7054,-4.733,-4.8209,-4.8008,-4.7732,-4.7405,-4.723,-4.6954,-5.4345,-5.4426,0.0,0.0,0.0,-5.4642,-5.5195,0.0,0.0,0.0,0.0,0.0,0.0,0.0,0.0,0.0,0.0,0.0,0.0,0.0,0.0,0.0,0.0,0.0,0.0,0.0,0.0,0.0,0.0,0.0,-5.5708,-5.5328,-5.4813,-5.4216,-5.3759,-5.297,-5.183,-5.0695,-4.9837,-4.9204,-4.8469,-4.792,-4.752,-4.7651,-4.7458,-4.6964,-4.6547,-4.6851,-4.7515,-4.6583,-4.5891,-4.5348,-4.4925,-4.4768,-4.4717,-4.5158,-4.5633,-4.6249,-4.7096,-4.8064,-4.9054,-5.0009,-5.0813,-5.1516,-5.2238,-5.2515,-5.2529,-5.2184,-5.2101,-5.1975,-5.1423,-5.1272,-5.1222,-5.1046,-5.0996,-5.0845,-5.0268,-5.0594,-5.0946,-5.0745,-5.072,-5.072,-5.072,-5.0393,-5.0142,-5.0142,-4.9841,-4.959,-4.959,-4.9439,-4.9163,-4.8812,-4.8435,-4.8058,-4.7682,-4.7154,-4.6853,-4.6853,-4.6527,-4.6301,-4.6301,-4.6301,-4.6476,-4.6792,-4.6502,-4.6652,-4.738,-4.738,-4.7205,-4.6853,-4.6853,-4.6652,0.0,0.0,0.0,-5.353,0.0,0.0,-5.451,0.0,0.0,0.0,0.0,0.0,0.0,0.0,0.0,0.0,0.0,0.0,0.0,0.0,0.0,0.0,0.0,0.0,0.0,0.0,0.0,0.0,0.0,-5.5138,-5.4514,-5.446,-5.4189,-5.3619,-5.2895,-5.2199,-5.1276,-5.024,-4.8869,-4.7104,-4.7284,-4.6721,-4.5629,-4.6311,-4.6246,-4.5544,-4.5388,-4.546,-4.5754,-4.5074,-4.4611,-4.4379,-4.4379,-4.476,-4.5325,-4.5325,-4.5926,-4.6743,-4.7575,-4.8282,-4.9126,-5.0293,-5.1236,-5.189,-5.2308,-5.2654,-5.2804,-5.2226,-5.2076,-5.195,-5.1373,-5.1222,-5.1096,-5.0519,-5.0393,-5.0243,-4.9715,-5.0017,-5.0243,-4.969,-4.959,-4.9565,-4.9565,-4.9565,-4.954,-4.954,-4.954,-4.954,-4.954,-4.9088,-4.8736,-4.8736,-4.7782,-4.7068,-4.7043,-4.6627,-4.6301,-4.6301,-4.6301,-4.6301,-4.6301,-4.6301,-4.6301,-4.6301,-4.6301,-4.6301,-4.6301,-4.6301,-4.6301,-4.6301,-4.6301,-4.6301,-5.4209,0.0,0.0,0.0,0.0,0.0,0.0,0.0,0.0,0.0,0.0,0.0,0.0,0.0,0.0,0.0,0.0,0.0,0.0,0.0,0.0,0.0,0.0,0.0,0.0,0.0,0.0,0.0,-5.5328,-5.4677,-5.4487,-5.408,-5.3633,-5.3254,-5.2615,-5.183,-5.0944,-4.9296,-4.8133,-4.7309,-4.6273,-4.5604,-4.5374,-4.5216,-4.5056,-4.4836,-4.4369,-4.4181,-4.4319,-4.4112,-4.4124,-4.4401,-4.4469,-4.4851,-4.5369,-4.5992,-4.6559,-4.7112,-4.7941,-4.874,-4.9509,-5.0718,-5.1376,-5.196,-5.2585,-5.2861,-5.2729,-5.1774,-5.1498,-5.1297,-5.0318,-5.0067,-5.0017,-4.9866,-4.9816,-4.9791,-4.9615,-4.9715,-4.9766,-4.9615,-4.9264,-4.9012,-4.9012,-4.8661,-4.8385,-4.8385,-4.8385,-4.8385,-4.8385,-4.8234,-4.8008,-4.7631,-4.7305,-4.6979,-4.6577,-4.6401,-4.6301,-4.6301,-4.6301,-4.6301,-4.6301,-4.6301,-4.6301,-4.6301,-4.6301,-4.6301,-4.6301,-4.6301,-4.6301,-4.6301,-4.6301,-4.61,-5.3961,-5.3687,-5.3347,-5.2772,0.0,0.0,-5.2763,-5.2945,0.0,0.0,0.0,0.0,0.0,0.0,0.0,0.0,0.0,0.0,0.0,0.0,0.0,0.0,0.0,0.0,0.0,0.0,0.0,-5.5573,-5.465,-5.4107,-5.4107,-5.366,-5.3288,-5.3132,-5.2306,-5.1397,-5.039,-4.8874,-4.7656,-4.6777,-4.5942,-4.5355,-4.501,-4.4949,-4.464,-4.4188,-4.3863,-4.365,-4.3511,-4.3511,-4.3907,-4.4497,-4.4545,-4.507,-4.5926,-4.6411,-4.7038,-4.7794,-4.8377,-4.9078,-4.9938,-5.1095,-5.1439,-5.1664,-5.2579,-5.2603,-5.2101,-5.1473,-5.0946,-5.0419,-4.9766,-4.959,-4.959,-4.959,-4.959,-4.954,-4.9289,-4.9264,-4.9264,-4.9264,-4.8987,-4.8686,-4.846,-4.8134,-4.7908,-4.7908,-4.7908,-4.7908,-4.7908,-4.7707,-4.7481,-4.7093,-4.6928,-4.6652,-4.6326,-4.6301,-4.6301,-4.6301,-4.6301,-4.6301,-4.6301,-4.6301,-4.6301,-4.6301,-4.6301,-4.6301,-4.6301,-4.6301,-4.62,-4.5974,-4.5974,-4.5673,-5.3322,-5.2903,-5.2291,-5.169,-5.1283,0.0,-5.1741,-5.1666,-5.1807,0.0,0.0,0.0,0.0,0.0,0.0,0.0,0.0,0.0,0.0,0.0,0.0,0.0,0.0,0.0,0.0,-5.5708,-5.5084,-5.4514,-5.3944,-5.3592,-5.3592,-5.3288,-5.3071,-5.301,-5.197,-5.0898,-4.9706,-4.8609,-4.7341,-4.5942,-4.5942,-4.5478,-4.4637,-4.5004,-4.4572,-4.3697,-4.365,-4.3511,-4.3184,-4.3254,-4.3801,-4.4655,-4.4655,-4.5464,-4.667,-4.6743,-4.7457,-4.8381,-4.8768,-4.9368,-5.0126,-5.1275,-5.1304,-5.1215,-5.2398,-5.2076,-5.1272,-5.1197,-5.0419,-4.959,-4.959,-4.959,-4.959,-4.959,-4.959,-4.9439,-4.8887,-4.8761,-4.8736,-4.8611,-4.8586,-4.8435,-4.7908,-4.7782,-4.7732,-4.7732,-4.7732,-4.7732,-4.7732,-4.733,-4.6993,-4.6993,-4.6602,-4.6301,-4.6301,-4.6301,-4.6301,-4.6301,-4.6301,-4.6301,-4.6301,-4.6301,-4.6301,-4.6301,-4.6301,-4.6276,-4.6225,-4.6225,-4.5974,-4.5497,-4.5422,-4.507,-5.2763,-5.2398,-5.1946,-5.1313,-5.0931,0.0,-5.0869,-5.1382,-5.1936,0.0,0.0,0.0,0.0,0.0,0.0,0.0,0.0,0.0,0.0,0.0,0.0,0.0,0.0,0.0,0.0,-5.5301,-5.4623,-5.4487,-5.3944,-5.3592,-5.3592,-5.3288,-5.2861,-5.2306,-5.1283,-5.0205,-4.904,-4.7675,-4.6697,-4.6079,-4.5275,-4.4863,-4.4732,-4.4206,-4.3905,-4.3697,-4.3441,-4.3254,-4.3254,-4.3511,-4.4224,-4.5086,-4.5086,-4.59,-4.7134,-4.7794,-4.7908,-4.7924,-4.8897,-4.9246,-4.9373,-5.022,-5.0623,-5.0886,-5.1439,-5.1448,-5.1197,-5.072,-5.0117,-4.959,-4.959,-4.959,-4.959,-4.959,-4.959,-4.9439,-4.8887,-4.8761,-4.851,-4.7631,-4.7456,-4.7405,-4.7305,-4.6928,-4.6627,-4.6627,-4.6627,-4.6627,-4.6627,-4.6527,-4.6476,-4.6476,-4.6376,-4.6301,-4.6301,-4.6301,-4.6301,-4.6301,-4.6301,-4.6301,-4.6301,-4.6301,-4.6301,-4.6301,-4.6301,-4.61,-4.5648,-4.5648,-4.5598,-4.5472,-4.502,-4.4493,-5.2258,-5.1895,-5.1419,-5.0982,-5.0614,0.0,0.0,-5.0691,-5.1088,0.0,0.0,0.0,0.0,0.0,0.0,0.0,0.0,0.0,0.0,0.0,0.0,0.0,0.0,0.0,0.0,-5.4778,-5.4351,-5.4053,-5.3754,-5.3531,-5.3349,-5.2861,-5.2306,-5.1622,-5.0614,-4.9568,-4.8392,-4.7351,-4.6428,-4.5672,-4.5024,-4.4551,-4.425,-4.3628,-4.328,-4.3141,-4.2931,-4.3023,-4.3163,-4.358,-4.4489,-4.5653,-4.5441,-4.6033,-4.7095,-4.7691,-4.7956,-4.81,-4.873,-4.9094,-4.9402,-4.9995,-5.0295,-5.0431,-5.113,-5.1071,-5.072,-5.0167,-4.9816,-4.959,-4.959,-4.959,-4.959,-4.959,-4.959,-4.9439,-4.8887,-4.8535,-4.8109,-4.728,-4.6903,-4.6728,-4.6728,-4.6502,-4.6301,-4.6301,-4.6301,-4.6301,-4.6301,-4.6301,-4.6301,-4.6301,-4.6301,-4.6301,-4.6301,-4.6301,-4.6301,-4.6301,-4.6301,-4.6301,-4.6301,-4.6301,-4.6301,-4.6301,-4.6301,-4.6175,-4.5899,-4.5321,-4.492,-4.4644,-4.4342,-4.3915,-5.1627,-5.1355,-5.0867,-5.055,-5.0232,-5.0001,0.0,0.0,0.0,0.0,0.0,0.0,0.0,0.0,0.0,0.0,0.0,0.0,0.0,0.0,0.0,0.0,0.0,0.0,0.0,-5.4071,-5.3985,-5.3525,-5.347,-5.3227,-5.2949,-5.2306,-5.1685,-5.0931,-4.9912,-4.8918,-4.7911,-4.7141,-4.6294,-4.5324,-4.4869,-4.4319,-4.3558,-4.3211,-4.2791,-4.2511,-4.2581,-4.2791,-4.3141,-4.3697,-4.4705,-4.5897,-4.5735,-4.6194,-4.705,-4.7493,-4.791,-4.8392,-4.8529,-4.8936,-4.945,-4.9878,-4.9917,-4.9974,-5.0754,-5.0619,-5.0167,-4.9715,-4.959,-4.959,-4.959,-4.959,-4.959,-4.959,-4.959,-4.9439,-4.8887,-4.8309,-4.7757,-4.7168,-4.6702,-4.6301,-4.6301,-4.6301,-4.6301,-4.6301,-4.6301,-4.6301,-4.6301,-4.6301,-4.6301,-4.6301,-4.6301,-4.6301,-4.6301,-4.6301,-4.6301,-4.6301,-4.6301,-4.6301,-4.6301,-4.62,-4.62,-4.6301,-4.61,-4.5974,-4.5974,-4.497,-4.4292,-4.3966,-4.374,-4.3413,-5.0781,-5.0474,-5.0193,-5.0193,-4.9912,-4.9654,-4.9654,0.0,-5.0525,-5.0588,0.0,0.0,0.0,0.0,0.0,0.0,0.0,0.0,0.0,0.0,0.0,0.0,0.0,0.0,0.0,0.0,-5.2914,-5.3132,-5.2861,-5.2553,-5.2245,-5.1846,-5.122,-5.027,-4.9152,-4.8264,-4.7563,-4.6563,-4.5799,-4.5256,-4.4663,-4.3927,-4.3141,-4.2791,-4.2441,-4.2089,-4.2441,-4.2791,-4.3211,-4.425,-4.496,-4.5461,-4.5875,-4.6774,-4.7818,-4.8258,-4.8112,-4.7845,-4.8522,-4.8743,-4.8772,-4.9141,-4.9417,-4.9651,-4.9766,-4.9741,-4.9665,-4.9615,-4.959,-4.959,-4.959,-4.959,-4.959,-4.959,-4.959,-4.9439,-4.8887,-4.8309,-4.7757,-4.7168,-4.6702,-4.6301,-4.6301,-4.6301,-4.6301,-4.6301,-4.6301,-4.6301,-4.6301,-4.6301,-4.6301,-4.6301,-4.6301,-4.6301,-4.6301,-4.6301,-4.6301,-4.6301,-4.6301,-4.6301,-4.6301,-4.5849,-4.5799,-4.6301,-4.5321,-4.4819,-4.4819,-4.4192,-4.4116,-4.4518,-4.3539,-4.3037,-5.0372,-5.004,-4.9783,-4.959,-4.9396,-4.9332,-4.9525,-5.0104,-5.0677,-5.0867,0.0,0.0,0.0,0.0,0.0,0.0,-4.9793,0.0,0.0,0.0,0.0,0.0,0.0,0.0,0.0,0.0,0.0,0.0,0.0,-5.1681,-5.1373,-5.0913,-5.0397,-4.9565,-4.8657,-4.787,-4.7232,-4.6563,-4.5866,-4.5256,-4.4594,-4.3858,-4.3071,-4.2511,-4.2018,-4.1756,-4.2089,-4.2559,-4.3189,-4.4319,-4.5256,-4.5957,-4.6461,-4.6967,-4.7427,-4.7766,-4.7892,-4.7901,-4.8234,-4.855,-4.8967,-4.9267,-4.9461,-4.959,-4.959,-4.959,-4.959,-4.959,-4.959,-4.959,-4.959,-4.959,-4.959,-4.959,-4.959,-4.954,-4.9289,-4.8535,-4.7832,-4.7631,-4.6903,-4.6301,-4.6301,-4.6301,-4.6301,-4.6301,-4.6301,-4.6301,-4.6301,-4.6301,-4.6301,-4.6301,-4.6301,-4.6301,-4.6301,-4.6301,-4.6301,-4.6301,-4.5999,-4.5673,-4.5347,-4.5121,-4.5095,-4.5321,-4.4869,-4.4618,-4.4618,-4.4066,-4.3915,-4.4141,-4.3338,-4.293,-4.9847,-4.9654,-4.9396,-4.9007,-4.9007,-4.9202,-4.9525,-5.0104,-5.0715,-5.1057,-5.1346,0.0,0.0,0.0,-4.9845,-4.9688,0.0,-4.8837,0.0,0.0,0.0,0.0,0.0,0.0,0.0,0.0,0.0,-5.0618,-5.0714,-5.0586,-5.0059,-4.9734,-4.9177,-4.8367,-4.7784,-4.7202,-4.6751,-4.6418,-4.5862,-4.5256,-4.4732,-4.3905,-4.2931,-4.23,-4.1806,-4.1544,-4.1947,-4.263,-4.3445,-4.464,-4.5686,-4.663,-4.7098,-4.7298,-4.7298,-4.7563,-4.7828,-4.8182,-4.8289,-4.8682,-4.9267,-4.9525,-4.959,-4.959,-4.959,-4.959,-4.959,-4.959,-4.959,-4.959,-4.959,-4.959,-4.959,-4.959,-4.949,-4.9364,-4.9364,-4.8485,-4.7682,-4.7682,-4.6954,-4.6301,-4.6301,-4.6301,-4.6301,-4.6301,-4.6301,-4.6301,-4.6301,-4.6301,-4.6301,-4.6301,-4.6301,-4.6301,-4.6301,-4.6301,-4.625,-4.61,-4.5573,-4.507,-4.4644,-4.4468,-4.4468,-4.4618,-4.4317,-4.4242,-4.4392,-4.384,-4.3589,-4.3564,-4.3106,-4.2737,0.0,0.0,0.0,-4.8706,0.0,0.0,0.0,-5.0104,-5.0715,-5.1057,-5.1346,-5.1439,-5.089,-5.0289,-4.9714,-4.9191,-4.8354,0.0,0.0,0.0,0.0,0.0,0.0,0.0,0.0,0.0,0.0,-4.9958,-4.9655,-4.9045,-4.817,-4.8045,-4.7545,-4.6558,-4.6174,-4.6029,-4.6204,-4.5809,-4.5512,-4.5324,-4.4937,-4.4021,-4.2581,-4.2229,-4.1806,-4.1544,-4.23,-4.3189,-4.4228,-4.5415,-4.6294,-4.7032,-4.7696,-4.796,-4.796,-4.796,-4.8248,-4.8666,-4.8942,-4.9267,-4.959,-4.959,-4.959,-4.959,-4.959,-4.959,-4.959,-4.959,-4.959,-4.959,-4.959,-4.959,-4.959,-4.959,-4.9188,-4.8786,-4.8786,-4.7933,-4.7093,-4.7093,-4.6702,-4.6301,-4.6301,-4.6301,-4.6301,-4.6301,-4.6301,-4.6301,-4.6301,-4.6301,-4.6301,-4.6301,-4.6301,-4.6301,-4.6301,-4.6301,-4.6075,-4.5547,-4.497,-4.4644,-4.4618,-4.4116,-4.4091,-4.4618,-4.3589,-4.3288,-4.3815,-4.3263,-4.3011,-4.3011,-4.2706,-4.2513,0.0,0.0,-4.8772,-4.8902,0.0,0.0,0.0,0.0,0.0,-5.1283,-5.1246,-5.089,-5.0315,-4.974,-4.9106,-4.8269,-4.7892,-4.7619,0.0,-4.756,0.0,0.0,0.0,0.0,0.0,0.0,0.0,-4.8451,-4.8068,-4.7724,-4.7442,-4.7296,-4.7143,-4.6763,-4.6612,-4.6582,-4.6624,-4.611,-4.5788,-4.5822,-4.4774,-4.3937,-4.328,-4.2721,-4.237,-4.2229,-4.2721,-4.3558,-4.4663,-4.5551,-4.6362,-4.7055,-4.7762,-4.8158,-4.8379,-4.8379,-4.8419,-4.8447,-4.8807,-4.8974,-4.9113,-4.9464,-4.959,-4.959,-4.959,-4.959,-4.959,-4.959,-4.959,-4.959,-4.959,-4.9314,-4.9063,-4.9063,-4.8611,-4.8209,-4.8209,-4.7631,-4.7068,-4.7068,-4.6702,-4.6301,-4.6301,-4.6301,-4.6301,-4.6301,-4.6301,-4.6386,-4.6626,-4.6446,-4.6361,-4.6626,-4.6421,-4.6175,-4.5799,-4.5422,-4.497,-4.4418,-4.4192,-4.3915,-4.3539,-4.3363,-4.3338,-4.3539,-4.3162,-4.3062,-4.3263,-4.3062,-4.2874,-4.2625,-4.2369,-4.2256,-4.9461,-4.9097,0.0,-4.8902,-4.8967,0.0,-4.9937,0.0,-5.0905,0.0,0.0,-5.0838,-5.0028,-4.961,-4.8994,-4.7892,-4.756,-4.7442,0.0,-4.7383,-4.7703,0.0,-4.8172,-4.8114,0.0,-4.7821,-4.7586,-4.7231,-4.6964,-4.6681,0.0,0.0,-4.6301,-4.6175,-4.6238,-4.6399,-4.6595,-4.609,-4.5918,-4.6091,-4.4766,-4.4052,-4.3628,-4.2931,-4.2651,-4.2791,-4.328,-4.4112,-4.5278,-4.5957,-4.6697,-4.7431,-4.796,-4.8322,-4.85,-4.85,-4.8348,-4.8169,-4.8397,-4.846,-4.8535,-4.8887,-4.8987,-4.8987,-4.8987,-4.9138,-4.9314,-4.9314,-4.9314,-4.9314,-4.9314,-4.8887,-4.846,-4.846,-4.8033,-4.7631,-4.7631,-4.7205,-4.6853,-4.6853,-4.6552,-4.6301,-4.6301,-4.6301,-4.6301,-4.6301,-4.6301,-4.6421,-4.6746,-4.6626,-4.6566,-4.6806,-4.6424,-4.5892,-4.5221,-4.4669,-4.4192,-4.3815,-4.3614,-4.3338,-4.2986,-4.2986,-4.2986,-4.2986,-4.2986,-4.2986,-4.2986,-4.2986,-4.2818,-4.2457,-4.2199,-4.2054]}]]